[[{"header":{"parameterUnit":"m.s-1","parameterCategory":1,"la1":31.0,"la2":29.5877,"lo1":-88.7671,"lo2":-86.6584,"dy":0.0162,"dx":0.0185,"nx":115,"ny":88,"refTime":"2024-05-18T06:00:00:Z","depth":0,"parameterNumber":2,"parameterNumberName":"U-component_of_WINDS"},"data":[0.0,0.0,0.0,0.0,0.0,0.0,0.0,0.0,0.0,0.0,0.0,0.0,0.0,0.0,0.0,0.0,0.0,0.0,0.0,0.0,0.0,0.0,0.0,0.0,0.0,0.0,0.0,0.0,0.0,0.0,0.0,0.0,0.0,0.0,0.0,0.0,0.0,0.0,0.0,0.0,0.0,0.0,0.0,0.0,0.0,0.0,0.0,0.0,0.0,0.0,0.0,0.0,0.0,0.0,0.0,0.0,0.0,0.0,0.0,0.0,0.0,0.0,0.0,0.0,0.0,0.0,0.0,0.0,0.0,0.0,0.0,0.0,0.0,0.0,0.0,0.0,0.0,0.0,0.0,0.0,0.0,0.0,0.0,0.0,0.0,0.0,0.0,0.0,0.0,0.0,0.0,0.0,0.0,0.0,0.0,0.0,0.0,0.0,0.0,0.0,0.0,0.0,0.0,0.0,0.0,0.0,0.0,0.0,0.0,0.0,0.0,0.0,0.0,0.0,0.0,0.0,0.0,0.0,0.0,0.0,0.0,0.0,0.0,0.0,0.0,0.0,0.0,0.0,0.0,0.0,0.0,0.0,0.0,0.0,0.0,0.0,0.0,0.0,0.0,0.0,0.0,0.0,0.0,0.0,0.0,0.0,0.0,0.0,0.0,0.0,0.0,0.0,0.0,0.0,0.0,0.0,0.0,0.0,0.0,0.0,0.0,0.0,0.0,0.0,0.0,0.0,0.0,0.0,0.0,0.0,0.0,0.0,0.0,0.0,0.0,0.0,0.0,0.0,0.0,0.0,0.0,0.0,0.0,0.0,0.0,0.0,0.0,0.0,0.0,0.0,0.0,0.0,0.0,0.0,0.0,0.0,0.0,0.0,0.0,0.0,0.0,0.0,0.0,0.0,0.0,0.0,0.0,0.0,0.0,0.0,0.0,0.0,0.0,0.0,0.0,0.0,0.0,0.0,0.0,0.0,0.0,0.0,0.0,0.0,0.0,0.0,0.0,0.0,0.0,0.0,0.0,0.0,0.0,0.0,0.0,0.0,0.0,0.0,0.0,0.0,0.0,0.0,0.0,0.0,0.0,0.0,0.0,0.0,0.0,0.0,0.0,0.0,0.0,0.0,0.0,0.0,0.0,0.0,0.0,0.0,0.0,0.0,0.0,0.0,0.0,0.0,0.0,0.0,0.0,0.0,0.0,0.0,0.0,0.0,0.0,0.0,0.0,0.0,0.0,0.0,0.0,0.0,0.0,0.0,0.0,0.0,0.0,0.0,0.0,0.0,0.0,0.0,0.0,0.0,0.0,0.0,0.0,0.0,0.0,0.0,0.0,0.0,0.0,0.0,0.0,0.0,0.0,0.0,0.0,0.0,0.0,0.0,0.0,0.0,0.0,0.0,0.0,0.0,0.0,0.0,0.0,0.0,0.0,0.0,0.0,0.0,0.0,0.0,0.0,0.0,0.0,0.0,0.0,0.0,0.0,0.0,0.0,0.0,0.0,0.0,0.0,0.0,0.0,0.0,0.0,0.0,0.0,0.0,0.0,0.0,0.0,0.0,0.0,0.0,0.0,0.0,0.0,0.0,0.0,0.0,0.0,0.0,0.0,0.0,0.0,0.0,0.0,0.0,0.0,0.0,0.0,0.0,0.0,0.0,0.0,0.0,0.0,0.0,0.0,0.0,0.0,0.0,0.0,0.0,0.0,0.0,0.0,0.0,0.0,0.0,0.0,0.0,0.0,0.0,0.0,0.0,0.0,0.0,0.0,0.0,0.0,0.0,0.0,0.0,0.0,0.0,0.0,0.0,0.0,0.0,0.0,0.0,0.0,0.0,0.0,0.0,0.0,0.0,0.0,0.0,0.0,0.0,0.0,0.0,0.0,0.0,0.0,0.0,0.0,0.0,0.0,0.0,0.0,0.0,0.0,0.0,0.0,0.0,0.0,0.0,0.0,0.0,0.0,0.0,0.0,0.0,0.0,0.0,0.0,0.0,0.0,0.0,0.0,0.0,0.0,0.0,0.0,0.0,0.0,0.0,0.0,0.0,0.0,0.0,0.0,0.0,0.0,0.0,0.0,0.0,0.0,0.0,0.0,0.0,0.0,0.0,0.0,0.0,0.0,0.0,0.0,0.0,0.0,0.0,0.0,0.0,0.0,0.0,0.0,0.0,0.0,0.0,0.0,0.0,0.0,0.0,0.0,0.0,0.0,0.0,0.0,0.0,0.0,0.0,0.0,0.0,0.0,0.0,0.0,0.0,0.0,0.0,0.0,0.0,0.0,0.0,0.0,0.0,0.0,0.0,0.0,0.0,0.0,0.0,0.0,0.0,0.0,0.0,0.0,0.0,0.0,0.0,0.0,0.0,0.0,0.0,0.0,0.0,0.0,0.0,0.0,0.0,0.0,0.0,0.0,0.0,0.0,0.0,0.0,0.0,0.0,0.0,0.0,0.0,0.0,0.0,0.0,0.0,0.0,0.0,0.0,0.0,0.0,0.0,0.0,0.0,0.0,0.0,0.0,0.0,0.0,0.0,0.0,0.0,0.0,0.0,0.0,0.0,0.0,0.0,0.0,0.0,0.0,0.0,0.0,0.0,0.0,0.0,0.0,0.0,0.0,0.0,0.0,0.0,0.0,0.0,0.0,0.0,0.0,0.0,0.0,0.0,0.0,0.0,0.0,0.0,0.0,0.0,0.0,0.0,0.0,0.0,0.0,0.0,0.0,0.0,0.0,0.0,0.0,0.0,0.0,0.0,0.0,0.0,0.0,0.0,0.0,0.0,0.0,0.0,0.0,0.0,0.0,0.0,0.0,0.0,0.0,0.0,0.0,0.0,0.0,0.0,0.0,0.0,0.0,0.0,0.0,0.0,0.0,0.0,0.0,0.0,0.0,0.0,0.0,0.0,0.0,0.0,0.0,0.0,0.0,0.0,0.0,0.0,0.0,0.0,0.0,0.0,0.0,0.0,0.0,0.0,0.0,0.0,0.0,0.0,0.0,0.0,0.0,0.0,0.0,0.0,0.0,0.0,0.0,0.0,0.0,0.0,0.0,0.0,0.0,0.0,0.0,0.0,0.0,0.0,0.0,0.0,0.0,0.0,0.0,0.0,0.0,0.0,0.0,0.0,0.0,0.0,0.0,0.0,0.0,0.0,0.0,0.0,0.0,0.0,0.0,0.0,0.0,0.0,0.0,0.0,0.0,0.0,0.0,0.0,0.0,0.0,0.0,0.0,0.0,0.0,0.0,0.0,0.0,0.0,0.0,0.0,0.0,0.0,0.0,0.0,0.0,0.0,0.0,0.0,0.0,0.0,0.0,0.0,0.0,0.0,0.0,0.0,0.0,0.0,0.0,0.0,0.0,0.0,0.0,0.0,0.0,0.0,0.0,0.0,0.0,0.0,0.0,0.0,0.0,0.0,0.0,0.0,0.0,0.0,0.0,0.0,0.0,0.0,0.0,0.0,0.0,0.0,0.0,0.0,0.0,0.0,0.0,0.0,0.0,0.0,0.0,0.0,0.0,0.0,0.0,0.0,0.0,0.0,0.0,0.0,0.0,0.0,0.0,0.0,0.0,0.0,0.0,0.0,0.0,0.0,0.0,0.0,0.0,0.0,0.0,0.0,0.0,0.0,0.0,0.0,0.0,0.0,0.0,0.0,0.0,0.0,0.0,0.0,0.0,0.0,0.0,0.0,0.0,0.0,0.0,0.0,0.0,0.0,0.0,0.0,0.0,0.0,0.0,0.0,0.0,0.0,0.0,0.0,0.0,0.0,0.0,0.0,0.0,0.0,0.0,0.0,0.0,0.0,0.0,0.0,0.0,0.0,0.0,0.0,0.0,0.0,0.0,0.0,0.0,0.0,0.0,0.0,0.0,0.0,0.0,0.0,0.0,0.0,0.0,0.0,0.0,0.0,0.0,0.0,0.0,0.0,0.0,0.0,0.0,0.0,0.0,0.0,0.0,0.0,0.0,0.0,0.0,0.0,0.0,0.0,0.0,0.0,0.0,0.0,0.0,0.0,0.0,0.0,0.0,0.0,0.0,0.0,0.0,0.0,0.0,0.0,0.0,0.0,0.0,0.0,0.0,0.0,0.0,0.0,0.0,0.0,0.0,0.0,0.0,0.0,0.0,0.0,0.0,0.0,0.0,0.0,0.0,0.0,0.0,0.0,0.0,0.0,0.0,0.0,0.0,0.0,0.0,0.0,0.0,0.0,0.0,0.0,0.0,0.0,0.0,0.0,0.0,0.0,0.0,0.0,0.0,0.0,0.0,0.0,-2.6721,0.0,0.0,0.0,0.0,0.0,0.0,0.0,0.0,0.0,0.0,0.0,0.0,0.0,0.0,0.0,0.0,0.0,0.0,0.0,0.0,0.0,0.0,0.0,0.0,0.0,0.0,0.0,0.0,0.0,0.0,0.0,0.0,0.0,0.0,0.0,0.0,0.0,0.0,0.0,0.0,0.0,0.0,0.0,0.0,0.0,0.0,0.0,0.0,0.0,0.0,0.0,0.0,0.0,0.0,0.0,0.0,0.0,0.0,0.0,0.0,0.0,0.0,0.0,0.0,0.0,0.0,0.0,0.0,0.0,0.0,0.0,0.0,0.0,0.0,0.0,0.0,0.0,0.0,0.0,0.0,0.0,0.0,0.0,0.0,0.0,0.0,0.0,0.0,0.0,0.0,0.0,0.0,0.0,0.0,0.0,0.0,0.0,0.0,0.0,0.0,0.0,0.0,0.0,0.0,0.0,0.0,0.0,0.0,0.0,0.0,-3.0022,-2.9998,-2.9171,-2.83,-2.7445,0.0,0.0,0.0,0.0,0.0,0.0,0.0,0.0,0.0,0.0,0.0,0.0,0.0,0.0,0.0,0.0,0.0,0.0,0.0,0.0,0.0,0.0,0.0,0.0,0.0,0.0,0.0,0.0,0.0,0.0,0.0,0.0,0.0,0.0,0.0,0.0,0.0,0.0,0.0,0.0,0.0,0.0,0.0,0.0,0.0,0.0,0.0,0.0,0.0,0.0,0.0,0.0,0.0,0.0,0.0,0.0,0.0,0.0,0.0,0.0,0.0,0.0,0.0,0.0,0.0,0.0,0.0,0.0,0.0,0.0,0.0,0.0,0.0,0.0,0.0,0.0,0.0,0.0,0.0,0.0,0.0,0.0,0.0,0.0,0.0,0.0,0.0,0.0,0.0,0.0,0.0,0.0,0.0,0.0,0.0,0.0,0.0,0.0,0.0,0.0,0.0,0.0,0.0,0.0,0.0,0.0,0.0,0.0,0.0,0.0,0.0,0.0,-2.9945,-2.9093,-2.803,0.0,0.0,0.0,0.0,0.0,0.0,0.0,0.0,0.0,0.0,0.0,0.0,0.0,0.0,0.0,0.0,0.0,0.0,0.0,0.0,0.0,0.0,0.0,0.0,0.0,0.0,0.0,0.0,0.0,0.0,0.0,0.0,0.0,0.0,0.0,0.0,0.0,0.0,0.0,0.0,0.0,0.0,0.0,0.0,0.0,0.0,0.0,0.0,0.0,0.0,0.0,0.0,0.0,0.0,0.0,0.0,0.0,0.0,0.0,0.0,0.0,0.0,0.0,0.0,0.0,0.0,0.0,0.0,0.0,0.0,0.0,0.0,0.0,0.0,0.0,0.0,0.0,0.0,0.0,0.0,0.0,0.0,0.0,0.0,0.0,0.0,0.0,0.0,0.0,0.0,0.0,0.0,0.0,0.0,0.0,0.0,0.0,0.0,0.0,0.0,0.0,0.0,0.0,0.0,0.0,0.0,0.0,0.0,0.0,0.0,-3.0617,-3.0598,-3.052,0.0,-2.8049,0.0,0.0,0.0,0.0,0.0,0.0,0.0,0.0,0.0,0.0,0.0,0.0,0.0,0.0,0.0,0.0,0.0,0.0,0.0,0.0,0.0,0.0,0.0,0.0,0.0,0.0,0.0,0.0,0.0,0.0,0.0,0.0,0.0,0.0,0.0,0.0,0.0,0.0,0.0,0.0,0.0,0.0,0.0,0.0,0.0,0.0,0.0,0.0,0.0,0.0,0.0,0.0,0.0,0.0,0.0,0.0,0.0,0.0,0.0,0.0,0.0,0.0,0.0,0.0,0.0,0.0,0.0,0.0,0.0,0.0,0.0,0.0,0.0,0.0,0.0,0.0,0.0,0.0,0.0,0.0,0.0,0.0,0.0,0.0,0.0,0.0,0.0,0.0,0.0,0.0,0.0,0.0,0.0,0.0,0.0,0.0,0.0,0.0,0.0,0.0,0.0,0.0,0.0,0.0,0.0,0.0,0.0,0.0,0.0,0.0,0.0,-3.1294,-3.0849,-2.9785,0.0,0.0,0.0,0.0,0.0,0.0,0.0,0.0,0.0,0.0,0.0,0.0,0.0,0.0,0.0,0.0,0.0,0.0,0.0,0.0,0.0,0.0,0.0,0.0,0.0,0.0,0.0,0.0,0.0,0.0,0.0,0.0,0.0,0.0,0.0,0.0,0.0,0.0,0.0,0.0,0.0,0.0,0.0,0.0,0.0,0.0,0.0,0.0,0.0,0.0,0.0,0.0,0.0,0.0,0.0,0.0,0.0,0.0,0.0,0.0,0.0,0.0,0.0,0.0,0.0,0.0,0.0,0.0,0.0,0.0,0.0,0.0,0.0,0.0,0.0,0.0,0.0,0.0,0.0,0.0,0.0,0.0,0.0,0.0,0.0,0.0,0.0,0.0,0.0,0.0,0.0,0.0,0.0,0.0,0.0,0.0,0.0,0.0,0.0,0.0,0.0,0.0,0.0,0.0,0.0,0.0,0.0,0.0,0.0,0.0,-3.0617,0.0,-3.1391,-3.0907,-2.9766,-2.8049,0.0,0.0,0.0,0.0,0.0,0.0,0.0,0.0,0.0,0.0,0.0,0.0,0.0,0.0,0.0,0.0,0.0,0.0,0.0,0.0,0.0,0.0,0.0,0.0,0.0,0.0,0.0,0.0,0.0,0.0,0.0,0.0,0.0,0.0,0.0,0.0,0.0,0.0,0.0,0.0,0.0,0.0,0.0,0.0,0.0,0.0,0.0,0.0,0.0,0.0,0.0,0.0,0.0,0.0,0.0,0.0,0.0,0.0,0.0,0.0,0.0,0.0,0.0,0.0,0.0,0.0,0.0,0.0,0.0,0.0,0.0,0.0,0.0,0.0,0.0,0.0,0.0,0.0,0.0,0.0,0.0,0.0,0.0,0.0,0.0,0.0,0.0,0.0,0.0,0.0,0.0,0.0,0.0,0.0,0.0,0.0,0.0,0.0,0.0,0.0,0.0,0.0,0.0,0.0,0.0,0.0,0.0,0.0,0.0,-3.0617,-3.0617,-3.0675,-3.0617,-2.9785,0.0,0.0,0.0,0.0,0.0,0.0,0.0,0.0,0.0,0.0,0.0,0.0,0.0,0.0,0.0,0.0,0.0,0.0,0.0,0.0,0.0,0.0,0.0,0.0,0.0,0.0,0.0,0.0,0.0,0.0,0.0,0.0,0.0,0.0,0.0,0.0,0.0,0.0,0.0,0.0,0.0,0.0,0.0,0.0,0.0,0.0,0.0,0.0,0.0,0.0,0.0,0.0,0.0,0.0,0.0,0.0,0.0,0.0,0.0,0.0,0.0,0.0,0.0,0.0,0.0,0.0,0.0,0.0,0.0,0.0,0.0,0.0,0.0,0.0,0.0,0.0,0.0,0.0,0.0,0.0,0.0,0.0,0.0,0.0,0.0,0.0,0.0,0.0,0.0,0.0,0.0,0.0,0.0,0.0,0.0,0.0,0.0,0.0,0.0,0.0,0.0,0.0,0.0,0.0,0.0,0.0,0.0,0.0,0.0,-3.0578,-3.1096,-3.1115,-3.0636,-3.0617,-2.979,0.0,0.0,0.0,0.0,0.0,0.0,0.0,0.0,0.0,0.0,0.0,0.0,0.0,0.0,0.0,0.0,0.0,0.0,0.0,0.0,0.0,0.0,0.0,0.0,0.0,0.0,0.0,0.0,0.0,0.0,0.0,0.0,0.0,0.0,0.0,0.0,0.0,0.0,0.0,0.0,0.0,0.0,0.0,0.0,0.0,0.0,0.0,0.0,0.0,0.0,0.0,0.0,0.0,0.0,0.0,0.0,0.0,0.0,0.0,0.0,0.0,0.0,0.0,0.0,0.0,0.0,0.0,0.0,0.0,0.0,0.0,0.0,0.0,0.0,0.0,0.0,0.0,0.0,0.0,0.0,0.0,0.0,0.0,0.0,0.0,0.0,0.0,0.0,0.0,0.0,0.0,0.0,0.0,0.0,0.0,0.0,0.0,0.0,0.0,0.0,0.0,0.0,0.0,0.0,0.0,0.0,0.0,0.0,0.0,-3.0598,0.0,-3.1159,0.0,-3.0617,-2.979,0.0,0.0,0.0,0.0,0.0,0.0,0.0,0.0,0.0,0.0,0.0,0.0,0.0,0.0,0.0,0.0,0.0,0.0,0.0,0.0,0.0,0.0,0.0,0.0,0.0,0.0,0.0,0.0,0.0,0.0,0.0,0.0,0.0,0.0,0.0,0.0,0.0,0.0,0.0,0.0,0.0,0.0,0.0,0.0,0.0,0.0,0.0,0.0,0.0,0.0,0.0,0.0,0.0,0.0,0.0,0.0,0.0,0.0,0.0,0.0,0.0,0.0,0.0,0.0,0.0,0.0,0.0,0.0,0.0,0.0,0.0,0.0,0.0,0.0,0.0,0.0,0.0,0.0,0.0,0.0,0.0,0.0,0.0,0.0,0.0,0.0,0.0,0.0,0.0,0.0,0.0,0.0,0.0,0.0,0.0,0.0,0.0,0.0,0.0,0.0,0.0,0.0,0.0,0.0,0.0,0.0,0.0,0.0,-3.055,-3.0617,-3.0675,-3.0752,-3.0636,-3.0617,-2.9785,0.0,0.0,0.0,0.0,0.0,0.0,0.0,0.0,0.0,0.0,0.0,0.0,0.0,0.0,0.0,0.0,0.0,0.0,0.0,0.0,0.0,0.0,0.0,0.0,0.0,0.0,0.0,0.0,0.0,0.0,0.0,0.0,0.0,0.0,0.0,0.0,0.0,0.0,0.0,0.0,0.0,0.0,0.0,0.0,0.0,0.0,0.0,0.0,0.0,0.0,0.0,0.0,0.0,0.0,0.0,0.0,0.0,0.0,0.0,0.0,0.0,0.0,0.0,0.0,0.0,0.0,0.0,0.0,0.0,0.0,0.0,0.0,0.0,0.0,0.0,0.0,0.0,0.0,0.0,0.0,0.0,0.0,0.0,0.0,0.0,0.0,0.0,0.0,0.0,0.0,0.0,0.0,0.0,0.0,0.0,0.0,0.0,0.0,0.0,0.0,0.0,0.0,0.0,0.0,0.0,0.0,0.0,0.0,0.0,-3.1424,-3.2024,-3.2024,-3.1444,-3.0907,-2.979,0.0,0.0,0.0,0.0,0.0,0.0,0.0,0.0,0.0,0.0,0.0,0.0,0.0,0.0,0.0,0.0,0.0,0.0,0.0,0.0,0.0,0.0,0.0,0.0,0.0,0.0,0.0,0.0,0.0,0.0,0.0,0.0,0.0,0.0,0.0,0.0,0.0,0.0,0.0,0.0,0.0,0.0,0.0,0.0,0.0,0.0,0.0,0.0,0.0,0.0,0.0,0.0,0.0,0.0,0.0,0.0,0.0,0.0,0.0,0.0,0.0,0.0,0.0,0.0,0.0,0.0,0.0,0.0,0.0,0.0,0.0,0.0,0.0,0.0,0.0,0.0,0.0,0.0,0.0,0.0,0.0,0.0,0.0,0.0,0.0,0.0,0.0,0.0,0.0,0.0,0.0,0.0,0.0,0.0,0.0,0.0,0.0,0.0,0.0,0.0,0.0,0.0,0.0,0.0,0.0,0.0,0.0,0.0,0.0,-3.3186,-3.3125,-3.284,-3.2299,-3.1478,-3.023,-2.8533,0.0,0.0,0.0,0.0,0.0,0.0,0.0,0.0,0.0,0.0,0.0,0.0,0.0,0.0,0.0,0.0,0.0,0.0,0.0,0.0,0.0,0.0,0.0,0.0,0.0,0.0,0.0,0.0,0.0,0.0,0.0,0.0,0.0,0.0,0.0,0.0,0.0,0.0,0.0,0.0,0.0,0.0,0.0,0.0,0.0,0.0,0.0,0.0,0.0,0.0,0.0,0.0,0.0,0.0,0.0,0.0,0.0,0.0,0.0,0.0,0.0,0.0,0.0,0.0,0.0,0.0,0.0,0.0,0.0,0.0,0.0,0.0,0.0,0.0,0.0,0.0,0.0,0.0,0.0,0.0,0.0,0.0,0.0,0.0,0.0,0.0,0.0,0.0,0.0,0.0,0.0,0.0,0.0,0.0,0.0,0.0,0.0,0.0,0.0,0.0,0.0,0.0,0.0,0.0,0.0,0.0,0.0,0.0,-3.556,-3.4085,-3.331,-3.3252,-3.2357,-3.1076,0.0,0.0,0.0,0.0,0.0,0.0,0.0,0.0,0.0,0.0,0.0,0.0,0.0,0.0,0.0,0.0,0.0,0.0,0.0,0.0,0.0,0.0,0.0,0.0,0.0,0.0,0.0,0.0,0.0,0.0,0.0,0.0,0.0,0.0,0.0,0.0,0.0,0.0,0.0,0.0,0.0,0.0,0.0,0.0,0.0,0.0,0.0,0.0,0.0,0.0,0.0,0.0,0.0,0.0,0.0,0.0,0.0,0.0,0.0,0.0,0.0,0.0,0.0,0.0,0.0,0.0,0.0,0.0,0.0,0.0,0.0,0.0,0.0,0.0,0.0,0.0,0.0,0.0,0.0,0.0,0.0,0.0,0.0,0.0,0.0,0.0,0.0,0.0,0.0,0.0,0.0,0.0,0.0,0.0,0.0,0.0,0.0,0.0,0.0,0.0,0.0,0.0,0.0,0.0,0.0,0.0,0.0,0.0,0.0,-3.5431,-3.5714,-3.554,-3.4932,-3.3534,-3.1955,0.0,0.0,0.0,0.0,0.0,0.0,0.0,0.0,0.0,0.0,0.0,0.0,0.0,0.0,0.0,0.0,0.0,0.0,0.0,0.0,0.0,0.0,0.0,0.0,0.0,0.0,0.0,0.0,0.0,0.0,0.0,0.0,0.0,0.0,0.0,0.0,0.0,0.0,0.0,0.0,0.0,0.0,0.0,0.0,0.0,0.0,0.0,0.0,0.0,0.0,0.0,0.0,0.0,0.0,0.0,0.0,0.0,0.0,0.0,0.0,0.0,0.0,0.0,0.0,0.0,0.0,0.0,0.0,0.0,0.0,0.0,0.0,0.0,0.0,0.0,0.0,0.0,0.0,0.0,0.0,0.0,0.0,0.0,0.0,0.0,0.0,0.0,0.0,0.0,0.0,0.0,0.0,0.0,0.0,0.0,0.0,0.0,0.0,0.0,0.0,0.0,0.0,0.0,0.0,0.0,0.0,0.0,0.0,-3.4449,-3.6507,-3.7041,-3.7094,-3.6607,-3.5011,-3.315,0.0,0.0,0.0,0.0,0.0,0.0,0.0,0.0,0.0,0.0,0.0,0.0,0.0,0.0,0.0,0.0,0.0,0.0,0.0,0.0,0.0,0.0,0.0,0.0,0.0,0.0,0.0,0.0,0.0,0.0,0.0,0.0,0.0,0.0,0.0,0.0,0.0,0.0,0.0,0.0,0.0,0.0,0.0,0.0,0.0,0.0,0.0,0.0,0.0,0.0,0.0,0.0,0.0,0.0,0.0,0.0,0.0,0.0,0.0,0.0,0.0,0.0,0.0,0.0,0.0,0.0,0.0,0.0,0.0,0.0,0.0,0.0,0.0,0.0,0.0,0.0,0.0,0.0,0.0,0.0,0.0,0.0,0.0,0.0,0.0,0.0,0.0,0.0,0.0,0.0,0.0,0.0,0.0,0.0,0.0,0.0,0.0,0.0,0.0,0.0,0.0,0.0,0.0,0.0,0.0,0.0,0.0,0.0,-3.5507,-3.7923,-3.8077,-3.8077,-3.7942,-3.644,-3.4407,0.0,0.0,0.0,0.0,0.0,0.0,0.0,0.0,0.0,0.0,0.0,0.0,0.0,0.0,0.0,0.0,0.0,0.0,0.0,0.0,0.0,0.0,0.0,0.0,0.0,0.0,0.0,0.0,0.0,0.0,0.0,0.0,0.0,0.0,0.0,0.0,0.0,0.0,0.0,0.0,0.0,0.0,0.0,0.0,0.0,0.0,0.0,0.0,0.0,0.0,0.0,0.0,0.0,0.0,0.0,0.0,0.0,0.0,0.0,0.0,0.0,0.0,0.0,0.0,0.0,0.0,0.0,0.0,0.0,0.0,0.0,0.0,0.0,0.0,0.0,0.0,0.0,0.0,0.0,0.0,0.0,0.0,0.0,0.0,0.0,0.0,0.0,0.0,0.0,0.0,0.0,0.0,0.0,0.0,0.0,0.0,0.0,0.0,0.0,0.0,0.0,0.0,0.0,0.0,0.0,0.0,0.0,0.0,-3.6101,-3.7878,-3.8589,-3.8612,-3.7928,-3.636,-3.4604,0.0,0.0,0.0,0.0,0.0,0.0,0.0,0.0,0.0,0.0,0.0,0.0,0.0,0.0,0.0,0.0,0.0,0.0,0.0,0.0,0.0,0.0,0.0,0.0,0.0,0.0,0.0,0.0,0.0,0.0,0.0,0.0,0.0,0.0,0.0,0.0,0.0,0.0,0.0,0.0,0.0,0.0,0.0,0.0,0.0,0.0,0.0,0.0,-1.9871,0.0,0.0,0.0,0.0,0.0,0.0,0.0,0.0,0.0,0.0,0.0,0.0,0.0,0.0,0.0,0.0,0.0,0.0,0.0,0.0,0.0,0.0,0.0,0.0,0.0,0.0,0.0,0.0,0.0,0.0,0.0,0.0,0.0,0.0,0.0,0.0,0.0,0.0,0.0,0.0,0.0,0.0,0.0,0.0,0.0,0.0,0.0,0.0,0.0,0.0,0.0,0.0,0.0,0.0,0.0,0.0,0.0,0.0,0.0,-3.6619,-3.7846,-3.9073,-3.9116,-3.7859,-3.6952,-3.5335,0.0,0.0,0.0,0.0,0.0,0.0,0.0,0.0,0.0,0.0,0.0,0.0,0.0,0.0,0.0,0.0,0.0,0.0,0.0,0.0,0.0,0.0,0.0,0.0,0.0,0.0,0.0,0.0,0.0,0.0,0.0,0.0,0.0,0.0,0.0,0.0,0.0,0.0,0.0,0.0,0.0,0.0,0.0,0.0,0.0,0.0,0.0,0.0,0.0,0.0,0.0,0.0,0.0,0.0,0.0,0.0,0.0,0.0,0.0,0.0,0.0,0.0,0.0,0.0,0.0,0.0,0.0,0.0,0.0,0.0,0.0,0.0,0.0,0.0,0.0,0.0,0.0,0.0,0.0,0.0,0.0,0.0,0.0,0.0,0.0,0.0,0.0,0.0,0.0,0.0,0.0,0.0,0.0,0.0,0.0,0.0,0.0,0.0,0.0,0.0,0.0,0.0,0.0,0.0,0.0,0.0,0.0,-3.5408,-3.7089,-3.7785,-3.941,-3.9441,-3.7718,-3.7594,-3.6048,-3.2856,0.0,0.0,0.0,0.0,0.0,0.0,0.0,0.0,0.0,0.0,0.0,0.0,0.0,0.0,0.0,0.0,0.0,0.0,0.0,0.0,0.0,0.0,0.0,0.0,0.0,0.0,0.0,0.0,0.0,0.0,0.0,0.0,0.0,0.0,0.0,0.0,0.0,0.0,-1.8241,-2.0408,0.0,0.0,0.0,0.0,0.0,0.0,0.0,0.0,-2.1206,0.0,0.0,0.0,0.0,0.0,0.0,0.0,0.0,0.0,0.0,0.0,0.0,0.0,0.0,0.0,0.0,0.0,0.0,0.0,0.0,0.0,0.0,0.0,0.0,0.0,0.0,0.0,0.0,0.0,0.0,0.0,0.0,0.0,0.0,0.0,0.0,0.0,0.0,0.0,0.0,0.0,0.0,0.0,0.0,0.0,0.0,0.0,0.0,0.0,0.0,0.0,0.0,0.0,0.0,0.0,0.0,-3.2699,-3.5842,-3.7507,-3.7642,-3.9212,-3.9229,-3.7536,-3.7431,-3.5875,-3.2641,0.0,0.0,0.0,0.0,0.0,0.0,0.0,0.0,0.0,0.0,0.0,0.0,0.0,0.0,0.0,0.0,0.0,0.0,0.0,0.0,0.0,0.0,0.0,0.0,0.0,0.0,0.0,0.0,0.0,0.0,0.0,0.0,0.0,0.0,0.0,0.0,0.0,0.0,0.0,-2.2014,-2.3,0.0,0.0,0.0,0.0,0.0,0.0,0.0,0.0,-2.1442,0.0,0.0,0.0,0.0,0.0,0.0,0.0,0.0,0.0,0.0,0.0,0.0,0.0,0.0,0.0,0.0,0.0,0.0,0.0,0.0,0.0,0.0,0.0,0.0,0.0,0.0,0.0,0.0,0.0,0.0,0.0,0.0,0.0,0.0,0.0,0.0,0.0,0.0,0.0,0.0,0.0,0.0,0.0,0.0,0.0,0.0,0.0,0.0,0.0,0.0,0.0,0.0,0.0,0.0,0.0,-3.267,-3.5826,-3.7451,-3.7437,-3.8956,-3.8976,-3.7316,-3.6804,-3.5011,0.0,0.0,0.0,0.0,0.0,0.0,0.0,0.0,0.0,0.0,0.0,0.0,0.0,0.0,0.0,0.0,0.0,0.0,0.0,0.0,0.0,0.0,0.0,0.0,0.0,0.0,0.0,0.0,0.0,0.0,0.0,0.0,0.0,0.0,0.0,0.0,0.0,0.0,0.0,0.0,-2.3035,-2.3886,-2.4757,0.0,0.0,0.0,0.0,0.0,0.0,-2.2963,-2.2369,0.0,0.0,0.0,0.0,0.0,0.0,0.0,0.0,0.0,0.0,0.0,0.0,0.0,0.0,0.0,0.0,0.0,0.0,0.0,0.0,0.0,0.0,0.0,0.0,0.0,0.0,0.0,0.0,0.0,0.0,0.0,0.0,0.0,0.0,0.0,0.0,0.0,0.0,0.0,0.0,0.0,0.0,0.0,0.0,0.0,0.0,0.0,0.0,0.0,0.0,0.0,0.0,0.0,0.0,0.0,-3.2508,-3.5693,-3.7273,-3.7224,-3.8548,-3.8575,-3.7101,-3.6073,-3.4027,0.0,0.0,0.0,0.0,0.0,0.0,0.0,0.0,0.0,0.0,0.0,0.0,0.0,0.0,0.0,0.0,0.0,0.0,0.0,0.0,0.0,0.0,0.0,0.0,0.0,0.0,0.0,0.0,0.0,0.0,0.0,0.0,0.0,0.0,0.0,0.0,0.0,0.0,0.0,0.0,0.0,-2.4946,-2.5646,-2.5898,0.0,0.0,0.0,0.0,-2.4804,-2.4076,0.0,0.0,0.0,0.0,0.0,0.0,0.0,0.0,0.0,0.0,0.0,0.0,0.0,0.0,0.0,0.0,0.0,0.0,0.0,0.0,0.0,0.0,0.0,0.0,0.0,0.0,0.0,0.0,0.0,0.0,0.0,0.0,0.0,0.0,0.0,0.0,0.0,0.0,0.0,0.0,0.0,0.0,0.0,0.0,0.0,0.0,0.0,0.0,0.0,0.0,0.0,0.0,0.0,0.0,0.0,0.0,-3.2345,-3.5504,-3.7117,-3.7066,-3.786,-3.7823,-3.6951,-3.5388,-3.3343,0.0,0.0,0.0,0.0,0.0,0.0,0.0,0.0,0.0,0.0,0.0,0.0,0.0,0.0,0.0,0.0,0.0,0.0,0.0,0.0,0.0,0.0,0.0,0.0,0.0,0.0,0.0,0.0,0.0,0.0,0.0,0.0,0.0,0.0,0.0,0.0,0.0,0.0,0.0,0.0,0.0,-2.645,-2.6551,-2.7213,-2.772,0.0,0.0,-2.7303,-2.6614,-2.5783,0.0,0.0,0.0,0.0,0.0,0.0,0.0,0.0,0.0,0.0,0.0,0.0,0.0,0.0,0.0,0.0,0.0,0.0,0.0,0.0,0.0,0.0,0.0,0.0,0.0,0.0,0.0,0.0,0.0,0.0,0.0,0.0,0.0,0.0,0.0,0.0,0.0,0.0,0.0,0.0,0.0,0.0,0.0,0.0,0.0,0.0,0.0,0.0,0.0,0.0,0.0,0.0,0.0,0.0,0.0,-3.05,-3.2112,-3.5273,-3.6883,-3.6851,-3.7551,-3.7575,-3.6795,-3.4721,-3.2467,0.0,0.0,0.0,0.0,0.0,0.0,0.0,0.0,0.0,0.0,0.0,0.0,0.0,0.0,0.0,0.0,0.0,0.0,0.0,0.0,0.0,0.0,0.0,0.0,0.0,0.0,0.0,0.0,0.0,0.0,0.0,0.0,0.0,0.0,0.0,0.0,0.0,0.0,0.0,0.0,0.0,0.0,-2.6702,-2.7445,0.0,0.0,0.0,-2.7717,-2.6916,0.0,0.0,0.0,0.0,0.0,0.0,0.0,0.0,0.0,0.0,0.0,0.0,0.0,0.0,0.0,0.0,0.0,0.0,0.0,0.0,0.0,0.0,0.0,0.0,0.0,0.0,0.0,0.0,0.0,0.0,0.0,0.0,0.0,0.0,0.0,0.0,0.0,0.0,0.0,0.0,0.0,0.0,0.0,0.0,0.0,0.0,0.0,0.0,0.0,0.0,0.0,0.0,0.0,0.0,0.0,0.0,0.0,-3.1864,-3.489,-3.642,-3.6369,-3.6896,-3.6914,-3.6345,-3.3981,0.0,0.0,0.0,0.0,0.0,0.0,0.0,0.0,0.0,0.0,0.0,0.0,0.0,0.0,0.0,0.0,0.0,0.0,0.0,0.0,0.0,0.0,0.0,0.0,0.0,0.0,0.0,-1.4456,0.0,0.0,0.0,0.0,0.0,0.0,0.0,0.0,0.0,0.0,0.0,0.0,0.0,0.0,-2.7015,-2.7035,-2.7967,-2.8649,0.0,0.0,-2.8363,-2.7547,-2.7226,-2.6834,0.0,0.0,0.0,0.0,0.0,0.0,0.0,0.0,0.0,0.0,0.0,0.0,0.0,0.0,0.0,0.0,0.0,0.0,0.0,0.0,0.0,0.0,0.0,0.0,0.0,0.0,0.0,0.0,0.0,0.0,0.0,0.0,0.0,0.0,0.0,0.0,0.0,0.0,0.0,0.0,0.0,0.0,0.0,0.0,0.0,0.0,0.0,0.0,0.0,0.0,0.0,0.0,0.0,0.0,0.0,-3.1733,-3.4216,-3.5475,-3.5391,-3.5446,-3.5473,-3.5445,-3.3092,-3.1039,0.0,0.0,0.0,0.0,0.0,0.0,0.0,0.0,0.0,0.0,0.0,0.0,0.0,0.0,0.0,0.0,0.0,0.0,0.0,0.0,0.0,0.0,0.0,0.0,0.0,0.0,0.0,0.0,0.0,0.0,0.0,0.0,0.0,0.0,0.0,0.0,0.0,0.0,0.0,0.0,0.0,-2.7914,-2.7914,-2.934,-3.0424,0.0,0.0,-3.0114,-2.9248,-2.8433,-2.766,-2.6845,0.0,0.0,0.0,0.0,0.0,0.0,0.0,0.0,0.0,0.0,0.0,0.0,0.0,0.0,0.0,0.0,0.0,0.0,0.0,0.0,0.0,0.0,0.0,0.0,0.0,0.0,0.0,0.0,0.0,0.0,0.0,0.0,0.0,0.0,0.0,0.0,0.0,0.0,0.0,0.0,0.0,0.0,0.0,0.0,0.0,0.0,0.0,0.0,0.0,0.0,0.0,0.0,0.0,-2.9518,-3.1573,-3.3493,-3.4729,-3.5219,-3.5224,-3.5264,-3.5343,-3.2945,-3.0909,0.0,0.0,0.0,0.0,0.0,0.0,0.0,0.0,0.0,0.0,0.0,0.0,0.0,0.0,0.0,0.0,0.0,0.0,0.0,0.0,0.0,0.0,0.0,0.0,0.0,0.0,0.0,0.0,-1.5811,-1.6266,-1.7351,0.0,0.0,0.0,0.0,0.0,0.0,0.0,0.0,0.0,0.0,-2.7927,-2.7947,-2.9424,0.0,0.0,-3.0588,-3.0288,-2.9442,-2.9021,-2.836,-2.7016,-2.6546,0.0,0.0,0.0,0.0,0.0,0.0,0.0,0.0,0.0,0.0,0.0,0.0,0.0,0.0,0.0,0.0,0.0,0.0,0.0,0.0,0.0,0.0,0.0,0.0,0.0,0.0,0.0,0.0,0.0,0.0,0.0,0.0,0.0,0.0,0.0,0.0,0.0,0.0,0.0,0.0,0.0,0.0,0.0,0.0,0.0,0.0,0.0,0.0,0.0,0.0,0.0,0.0,-2.9591,-3.1464,-3.3046,-3.4144,-3.4783,-3.4788,-3.4797,-3.4803,-3.2736,-3.0969,0.0,0.0,0.0,0.0,0.0,0.0,0.0,0.0,0.0,0.0,0.0,0.0,0.0,0.0,0.0,0.0,0.0,0.0,0.0,0.0,0.0,0.0,0.0,0.0,0.0,0.0,0.0,0.0,-1.6485,-1.7227,-1.8712,0.0,0.0,0.0,0.0,0.0,0.0,0.0,0.0,0.0,0.0,-2.7971,-2.8236,-2.9529,-3.0451,-3.0471,-3.0515,-3.0347,-2.9752,-2.9467,-2.89,-2.7741,0.0,0.0,0.0,0.0,0.0,0.0,0.0,0.0,0.0,0.0,0.0,0.0,0.0,0.0,0.0,0.0,0.0,0.0,0.0,0.0,0.0,0.0,0.0,0.0,0.0,0.0,0.0,0.0,0.0,0.0,-2.6041,0.0,0.0,0.0,0.0,0.0,0.0,0.0,0.0,0.0,0.0,0.0,0.0,0.0,0.0,0.0,0.0,0.0,0.0,0.0,0.0,0.0,0.0,-3.0534,-3.1415,-3.2976,-3.3807,-3.3857,-3.3844,-3.3902,-3.3931,-3.2348,-3.1138,-3.0312,0.0,0.0,0.0,0.0,0.0,0.0,0.0,0.0,0.0,0.0,0.0,0.0,0.0,0.0,0.0,0.0,0.0,0.0,0.0,0.0,0.0,0.0,0.0,0.0,0.0,0.0,-1.6182,-1.6994,-1.7885,0.0,0.0,0.0,0.0,0.0,0.0,0.0,0.0,0.0,0.0,-2.729,-2.8115,-2.8937,-2.9836,-3.0431,-3.0417,-3.0483,-3.0509,-3.0491,-2.9839,-2.9279,0.0,0.0,0.0,0.0,0.0,0.0,0.0,0.0,0.0,0.0,0.0,0.0,0.0,0.0,0.0,0.0,0.0,0.0,0.0,0.0,0.0,0.0,0.0,0.0,0.0,0.0,0.0,-2.7244,-2.724,0.0,0.0,0.0,0.0,0.0,0.0,0.0,0.0,0.0,0.0,0.0,-3.1222,-3.1737,0.0,0.0,0.0,0.0,0.0,0.0,0.0,0.0,0.0,0.0,0.0,0.0,-3.0063,-3.1397,-3.2449,-3.3275,-3.377,-3.3807,-3.382,-3.381,-3.2285,-3.0343,-2.8006,0.0,0.0,0.0,0.0,0.0,0.0,0.0,0.0,0.0,0.0,0.0,0.0,0.0,0.0,0.0,0.0,0.0,0.0,0.0,0.0,0.0,0.0,0.0,0.0,0.0,-1.6838,0.0,0.0,0.0,0.0,0.0,0.0,0.0,0.0,0.0,0.0,0.0,-2.6031,-2.7119,-2.7988,-2.8638,-2.8945,-3.0222,-3.1136,0.0,0.0,0.0,0.0,0.0,0.0,0.0,0.0,0.0,0.0,0.0,0.0,0.0,0.0,-2.4369,-2.3235,-2.3074,-2.3104,-2.3098,0.0,0.0,0.0,0.0,0.0,0.0,0.0,0.0,0.0,0.0,0.0,0.0,0.0,0.0,0.0,0.0,-2.9667,0.0,0.0,0.0,0.0,0.0,0.0,0.0,0.0,-3.2542,-3.3324,-3.3597,-3.4109,-3.4091,0.0,-3.3288,-3.2115,0.0,0.0,0.0,0.0,0.0,0.0,0.0,0.0,-3.0356,-3.1397,-3.2467,-3.3261,-3.3788,-3.3807,-3.3807,-3.377,-3.2241,-3.0031,-2.718,-2.5822,-2.4377,0.0,0.0,0.0,0.0,0.0,0.0,0.0,0.0,0.0,0.0,0.0,0.0,0.0,0.0,0.0,0.0,0.0,0.0,0.0,0.0,0.0,0.0,0.0,-1.795,0.0,0.0,0.0,0.0,0.0,0.0,0.0,0.0,0.0,-2.5147,-2.6128,-2.7122,-2.7948,-2.8533,-2.906,-2.9651,0.0,0.0,0.0,0.0,0.0,0.0,0.0,-3.1276,-2.9922,-2.9742,-2.9487,-2.8683,-2.7593,-2.6637,-2.611,0.0,0.0,-2.4116,-2.3952,-2.3964,-2.3978,-2.3992,-2.4007,-2.4006,-2.4002,-2.4014,0.0,0.0,0.0,0.0,0.0,0.0,0.0,0.0,-3.3087,-3.3144,0.0,-3.2669,0.0,0.0,0.0,0.0,0.0,0.0,0.0,0.0,-3.4389,-3.517,-3.5876,-3.5949,-3.5931,-3.5858,-3.5113,-3.4709,-3.4512,-3.0943,0.0,0.0,0.0,0.0,0.0,0.0,-3.1439,-3.1494,-3.2981,-3.3788,-3.3807,-3.3807,-3.377,-3.3678,-3.2205,-3.0277,-2.7915,-2.7069,-2.5913,-2.4238,-2.2744,0.0,0.0,0.0,0.0,0.0,0.0,0.0,0.0,0.0,0.0,0.0,0.0,0.0,0.0,0.0,0.0,0.0,0.0,0.0,0.0,-1.8067,0.0,0.0,0.0,0.0,0.0,0.0,0.0,0.0,0.0,0.0,-2.5361,-2.667,-2.7965,-2.886,0.0,0.0,0.0,0.0,-3.1787,-3.2607,-3.2768,-3.2546,-3.1764,-3.1654,-3.1389,-3.0604,0.0,0.0,-2.9536,-2.8012,-2.6891,-2.6812,-2.6178,-2.5641,-2.5556,-2.5493,-2.5524,-2.5526,-2.5537,-2.566,-2.5671,-2.5515,-2.5571,-3.7976,0.0,0.0,0.0,0.0,-3.4899,-3.4985,-3.5027,-3.517,-3.5253,-3.5218,-3.4745,0.0,0.0,0.0,0.0,0.0,0.0,-3.5666,-3.6053,-3.7393,-3.8138,-3.8391,-3.8899,-3.888,-3.8355,-3.7558,-3.6886,-3.6266,-3.4109,-3.2361,-3.1065,0.0,0.0,0.0,0.0,-3.2135,-3.2261,-3.3213,-3.3753,-3.3807,-3.3807,-3.3256,-3.2113,-3.1654,-3.0265,-2.7879,-2.7027,-2.587,-2.4264,-2.3235,0.0,0.0,0.0,0.0,0.0,0.0,0.0,0.0,0.0,0.0,0.0,0.0,0.0,0.0,0.0,0.0,0.0,0.0,0.0,-1.9664,-1.9982,-2.0394,0.0,0.0,0.0,0.0,0.0,0.0,0.0,0.0,0.0,-2.8369,-2.8365,-2.8839,0.0,0.0,-3.0765,-3.1872,-3.2596,-3.3132,-3.3377,0.0,0.0,0.0,-3.2474,-3.2051,-3.0658,-3.0479,-3.0265,-2.9465,-2.8902,-2.8206,-2.7047,-2.6611,-2.6295,-2.5719,-2.5598,-2.561,-2.5599,-2.5612,-2.5627,-2.563,-2.5646,-2.5704,-4.0926,-3.9054,-3.7687,-3.6956,-3.6735,-3.7007,-3.7109,-3.7149,-3.728,-3.7325,-3.7296,-3.6827,-3.6257,-3.5655,-3.5398,0.0,0.0,0.0,-3.7802,-3.7924,-3.9225,-3.984,-3.9876,-4.0293,-4.0257,-3.9822,-3.9333,-3.8717,-3.7937,-3.6701,-3.546,-3.4197,0.0,0.0,-3.1222,-3.2005,-3.242,-3.2479,-3.3241,-3.3684,-3.3766,-3.3793,-3.3018,-3.1476,-3.1403,-3.0411,-2.8356,-2.72,-2.6153,-2.5181,-2.3768,-2.2197,0.0,0.0,0.0,0.0,0.0,0.0,0.0,0.0,0.0,0.0,0.0,-1.6372,-1.6372,0.0,0.0,0.0,-1.8618,-1.985,-2.1161,-2.1306,0.0,0.0,0.0,0.0,0.0,0.0,0.0,-2.6185,-2.7575,-2.8844,-2.9633,-2.9339,-2.965,-3.1298,-3.1525,-3.1826,-3.2666,0.0,-3.3667,-3.3695,-3.4227,-3.408,-3.2462,-3.2292,-3.1936,-3.0627,-3.0428,-3.0321,-2.9893,-2.9544,-2.8947,-2.8028,-2.7249,-2.6643,-2.6165,-2.5832,-2.5598,-2.561,-2.5596,-2.5612,-2.5615,-2.565,-2.5707,-4.3061,-4.2175,-4.0164,-3.8862,-3.822,-3.8836,-3.9073,-3.9097,-3.9212,-3.9278,-3.9234,-3.8721,-3.8178,-3.7698,-3.7596,0.0,-3.7737,-3.8834,-3.9337,-3.9409,-4.0293,-4.0673,-4.0673,-4.0691,-4.0691,-4.0691,-4.0619,-4.0239,-3.9568,-3.8698,-3.7901,-3.7013,-3.4197,-3.2343,-3.1646,-3.2306,-3.267,-3.2684,-3.3372,-3.3688,-3.3684,-3.3753,-3.3023,-3.1458,-3.1403,-3.0613,-2.895,-2.7409,-2.6565,-2.6447,-2.4327,-2.2721,-2.1923,0.0,0.0,0.0,0.0,0.0,0.0,0.0,0.0,0.0,0.0,0.0,0.0,0.0,0.0,0.0,-2.001,0.0,-2.2033,-2.2221,0.0,0.0,0.0,-2.4798,-2.4798,-2.615,-2.7428,-2.8287,0.0,0.0,-2.9767,0.0,-3.0528,-3.226,-3.2317,-3.2487,-3.326,-3.3402,-3.3516,-3.3516,-3.3653,-3.3157,-3.1733,-3.1477,-3.1232,-3.0537,-3.0392,-3.0414,-3.0404,-2.9917,-2.9434,-2.9203,-2.7977,-2.6866,-2.6803,-2.6107,-2.5602,-2.5595,-2.5607,-2.5607,-2.5603,-2.5643,-2.5679,-4.3999,-4.2802,-4.2248,-4.1398,-4.0409,-3.9986,-3.9842,-3.9842,-3.9867,-3.9867,-3.9841,-3.9275,-3.8854,-3.8586,-3.8751,-3.9027,-3.9377,-4.024,-4.0714,-4.092,-4.1808,-4.2244,-4.2262,-4.2283,-4.2321,-4.2285,-4.1687,-4.1325,-4.1089,-3.9767,-3.8699,-3.7883,-3.6574,-3.5486,-3.4743,-3.4906,-3.5027,-3.5054,-3.4651,-3.4167,-3.3651,-3.3684,-3.2957,-3.1364,-3.1359,-3.0356,-2.8172,-2.7145,-2.6319,-2.5705,-2.4548,-2.3566,-2.2749,-2.1784,0.0,0.0,0.0,0.0,0.0,0.0,0.0,0.0,0.0,-1.8989,-1.9014,0.0,-2.1105,0.0,-2.1476,-2.2052,-2.2831,-2.3543,0.0,0.0,-2.5808,-2.645,-2.645,-2.7354,-2.8063,-2.8306,-2.8924,-2.9888,-3.1332,-3.154,-3.2152,-3.378,-3.2416,-3.1533,-3.2314,-3.2533,-3.2609,-3.2638,-3.271,-3.2452,-3.1492,-3.0858,-3.0503,-3.0355,-3.0365,-3.0408,-3.0428,-3.0335,-3.0037,-2.9395,-2.8459,-2.7574,-2.6924,-2.6109,-2.5606,-2.558,-2.5595,-2.561,-2.5607,-2.5622,-2.5641,-4.4733,-4.3913,-4.326,-4.2618,-4.1947,-4.1206,-4.0701,-4.0415,-4.0475,-4.0315,-3.9995,-3.9806,-3.9696,-3.9743,-4.0,-4.0327,-4.0698,-4.1329,-4.1687,-4.1825,-4.2431,-4.2745,-4.2783,-4.2841,-4.288,-4.2882,-4.2448,-4.2031,-4.165,-4.0836,-3.9858,-3.8752,-3.8281,-3.7649,-3.687,-3.6164,-3.5835,-3.5849,-3.5442,-3.4869,-3.4131,-3.4148,-3.3241,-3.1342,-3.1271,-3.0375,-2.8347,-2.7185,-2.6371,-2.5933,-2.4824,-2.3841,-2.3043,-2.2593,-2.1767,0.0,0.0,0.0,0.0,0.0,0.0,0.0,0.0,0.0,0.0,0.0,-2.2102,-2.2497,-2.2895,-2.3442,-2.4259,-2.5067,-2.5745,-2.6191,-2.6991,-2.7503,-2.7484,-2.8248,-2.8789,-2.879,-2.9547,-3.0446,-3.1405,-3.1866,-3.2422,-3.3381,-3.2292,-3.1729,-3.2453,-3.2456,-3.2138,-3.1798,-3.1832,-3.1667,-3.0918,-3.0476,-3.0221,-3.0292,-3.0323,-3.0359,-3.0389,-3.0433,-3.0311,-2.9882,-2.9144,-2.8315,-2.7469,-2.6645,-2.6008,-2.5647,-2.5548,-2.555,-2.5596,-2.5609,-2.5625,-4.5297,-4.5026,-4.3738,-4.3153,-4.3019,-4.2373,-4.1648,-4.0933,-4.1057,-4.0716,-4.0061,-4.0189,-4.0429,-4.068,-4.1018,-4.1318,-4.1582,-4.1998,-4.2225,-4.2246,-4.247,-4.2609,-4.2745,-4.2764,-4.2822,-4.2862,-4.2844,-4.25,-4.1831,-4.1722,-4.0944,-3.9551,-3.9442,-3.8972,-3.8156,-3.6799,-3.6073,-3.5965,-3.6009,-3.5605,-3.4697,-3.4768,-3.3686,-3.1482,-3.1258,-3.0476,-2.8948,-2.743,-2.6622,-2.6536,-2.5262,-2.4143,-2.3364,-2.3208,-2.2786,0.0,-2.1849,0.0,0.0,0.0,0.0,0.0,0.0,0.0,0.0,-2.2257,-2.2737,-2.3575,-2.4371,-2.5094,-2.5782,-2.6572,-2.7055,-2.7074,-2.778,-2.8263,-2.83,-2.9025,-2.9547,-2.956,-3.0315,-3.0897,-3.1187,-3.1788,-3.2268,-3.2553,-3.2443,-3.2536,-3.3118,-3.2587,-3.1742,-3.0968,-3.0935,-3.0826,-3.0368,-3.0202,-3.0199,-3.0286,-3.0286,-3.0323,-3.0367,-3.0402,-3.0422,-3.0372,-2.9762,-2.897,-2.814,-2.7305,-2.6502,-2.5669,-2.5517,-2.5525,-2.5585,-2.5599,-2.5609,-4.5875,-4.4779,-4.448,-4.4032,-4.3472,-4.3339,-4.267,-4.1703,-4.173,-4.1366,-4.0776,-4.0333,-4.0288,-4.0558,-4.0847,-4.1065,-4.13,-4.1587,-4.178,-4.1909,-4.2205,-4.2369,-4.2409,-4.255,-4.2649,-4.2668,-4.2668,-4.2578,-4.2416,-4.1767,-4.0975,-4.0058,-3.9482,-3.8831,-3.8072,0.0,0.0,0.0,-3.6794,-3.6087,-3.4694,-3.4679,-3.3873,-3.2147,-3.1523,0.0,-2.8883,-2.7891,-2.7123,-2.6556,-2.6219,0.0,0.0,0.0,0.0,0.0,0.0,0.0,0.0,0.0,0.0,0.0,-2.3979,-2.4192,-2.303,-2.4099,-2.5236,-2.6042,-2.6321,-2.6507,-2.6646,-2.7408,-2.7873,-2.791,-2.8635,-2.9165,-2.9184,-2.988,-3.0392,-3.0392,-3.1131,-3.1927,-3.2512,-3.2913,-3.3315,-3.3805,-3.3519,-3.3239,-3.3352,-3.2163,-3.096,-3.0141,-3.0124,-3.0148,-3.0049,-3.0079,-3.015,-3.0218,-3.0233,-3.0247,-3.0305,-3.038,-3.0396,-3.0408,-2.9753,-2.8965,-2.8116,-2.7271,-2.652,-2.5646,-2.5511,-2.5517,-2.558,-2.5595,-2.561,-4.646,0.0,-4.497,-4.4473,0.0,-4.3747,-4.3273,-4.272,-4.2405,-4.1765,-4.0889,-4.0634,-4.0468,-4.0337,-4.0583,-4.083,-4.1065,-4.1277,-4.1498,-4.1714,-4.1952,-4.21,-4.2207,-4.2389,-4.2452,-4.2512,-4.257,-4.2609,-4.2591,-4.2194,-4.1602,-4.0774,-4.0057,-3.932,-3.8563,-3.8253,-3.7941,-3.7593,-3.7593,-3.7013,-3.5854,-3.5434,-3.4471,-3.2893,0.0,0.0,0.0,0.0,0.0,0.0,0.0,0.0,0.0,0.0,0.0,-2.4245,-2.4181,-2.3997,-2.3648,-2.4337,-2.4785,-2.4785,-2.5511,-2.567,-2.4929,-2.566,-2.6336,-2.6773,-2.7191,-2.7443,-2.752,-2.8244,-2.8746,-2.8793,-2.9489,-2.9991,-3.0065,-3.0697,-3.118,-3.1255,-3.1927,-3.2638,-3.3045,-3.3519,-3.3941,-3.439,-3.4199,-3.38,-3.3333,-3.1993,-3.0641,-2.9859,-2.9815,-2.9899,-2.9948,-3.0003,-3.0083,-3.0147,-3.0178,-3.0213,-3.024,-3.0318,-3.0336,-3.0323,-3.0031,-2.9531,-2.8664,-2.7846,-2.7049,-2.6271,-2.5746,-2.5496,-2.5533,-2.556,-2.5567,-4.7023,-4.6792,-4.5566,-4.492,-4.4638,-4.4059,-4.3714,-4.3532,0.0,0.0,0.0,-4.0996,-4.0658,-4.0223,-4.0364,-4.0541,-4.0776,-4.1018,-4.1249,-4.1493,-4.1626,-4.1801,-4.1995,-4.2124,-4.2246,-4.231,-4.243,-4.249,-4.2508,-4.251,-4.2097,-4.1346,-4.0701,-3.9966,-3.9103,-3.8364,-3.8054,-3.8157,-3.8174,-3.7756,-3.6814,-3.6146,-3.5041,-3.3447,-3.1981,-3.0867,-3.0122,-2.8675,-2.7876,-2.7783,-2.7203,-2.6834,-2.6699,-2.6771,-2.6426,-2.5684,-2.6235,-2.6319,-2.5668,-2.6227,-2.6667,-2.6796,-2.6814,-2.6825,-2.6885,-2.6909,-2.6997,-2.7187,-2.7808,-2.8238,-2.8317,-2.9079,-2.959,-2.9619,-3.0326,-3.0809,-3.0864,-3.1533,-3.1998,-3.208,-3.2723,-3.3236,-3.3338,-3.3864,-3.4328,-3.442,-3.4435,-3.4225,-3.3368,-3.1963,-3.0612,-2.9897,-2.9789,-2.9849,-2.9891,-2.994,-3.0007,-3.0046,-3.014,-3.0171,-3.0178,-3.0245,-3.0286,-3.0292,-3.0343,-2.9976,-2.9233,-2.8373,-2.7629,-2.6843,-2.6013,-2.5417,-2.5456,-2.5491,-2.5511,-4.7471,-4.6891,-4.6676,-4.5864,-4.4671,-4.4572,-4.4191,-4.3549,-4.2833,-4.2501,-4.2377,-4.1177,-4.0685,-4.0678,-4.0324,-4.0171,-4.0221,-4.0624,-4.0864,0.0,-4.1203,-4.1346,-4.1515,-4.1758,-4.1866,-4.1888,-4.203,-4.209,-4.2094,-4.2142,-4.1792,-4.1154,-4.1117,-4.0447,-3.9139,-3.8312,-3.7951,-3.8036,-3.814,-3.7468,-3.6003,-3.5858,-3.5044,-3.3465,-3.2506,-3.1668,-3.0867,-2.9961,-2.9188,-2.8579,-2.8464,-2.8118,-2.7508,-2.7499,-2.7185,-2.6428,-2.6507,-2.6528,-2.6447,-2.6528,-2.6906,-2.7548,-2.7633,-2.7633,-2.7651,-2.7695,-2.8014,-2.8688,-2.8927,-2.9055,-2.9164,-2.9879,-3.0383,-3.0463,-3.1143,-3.1626,-3.1645,-3.2332,-3.2823,-3.2841,-3.354,-3.4011,-3.3998,-3.4176,-3.4293,-3.4328,-3.4386,-3.417,-3.3296,-3.1933,-3.0668,-2.9916,-2.9698,-2.9744,-2.9806,-2.9874,-2.9924,-2.9913,-3.003,-3.0117,-3.0091,-3.0157,-3.0199,-3.0206,-3.0279,-2.9966,-2.9206,-2.8365,-2.7596,-2.6823,-2.603,-2.5449,-2.5395,-2.5421,-2.5437,-4.7802,-4.7454,-4.7073,-4.651,-4.5831,-4.5067,-4.4274,-4.3582,-4.3251,-4.2866,-4.2539,-4.1976,-4.1344,-4.0692,-4.0536,-4.0332,-4.0096,-4.0288,-4.0527,-4.0793,-4.0894,-4.1035,-4.1238,-4.1403,-4.152,-4.1604,-4.1797,-4.1884,-4.1902,-4.1991,-4.1874,-4.1505,-4.0867,-3.999,-3.9012,-3.8205,-3.7828,-3.7951,-3.8054,-3.7561,-3.649,-3.6021,-3.5225,-3.4048,-3.2886,-3.2035,-3.1655,-3.0455,-2.9652,-2.9297,-2.8918,-2.8543,-2.8221,-2.8263,-2.7939,-2.7196,-2.7581,-2.764,-2.7218,-2.7655,-2.8051,-2.8418,-2.8851,-2.909,-2.909,-2.8727,-2.8853,-2.966,-2.9768,-3.0005,-3.0486,-3.0909,-3.1165,-3.1199,-3.1938,-3.2444,-3.2525,-3.3157,-3.3621,-3.3689,-3.3956,-3.4197,-3.4216,-3.4221,-3.4257,-3.4293,-3.4351,-3.4117,-3.3362,-3.2668,-3.1727,-3.0603,-3.0001,-2.9746,-2.9754,-2.9825,-2.9859,-2.9841,-2.9924,-2.998,-3.0007,-3.0049,-3.014,-3.0154,-3.0171,-3.0053,-2.9633,-2.8574,-2.7748,-2.7303,-2.6154,-2.5476,-2.5351,-2.5373,-2.5425,-4.8001,-4.7951,-4.7388,-4.6941,-4.6543,-4.5251,-4.4274,-4.3615,-4.3598,-4.3284,-4.2783,-4.27,-4.2059,-4.1061,-4.0859,-4.056,-4.023,-4.0062,-4.0213,-4.0551,-4.0576,-4.0697,-4.0935,-4.1041,-4.1157,-4.1312,-4.1538,-4.1648,-4.1675,-4.1819,-4.1962,-4.1864,-4.0668,-3.9708,-3.9097,-3.8293,-3.7882,-3.7864,-3.7915,-3.7623,-3.6946,-3.6168,-3.5372,-3.457,-3.323,-3.2397,-3.2144,-3.0998,-3.0255,-3.0056,-2.9528,-2.9141,-2.8972,-2.9004,-2.8682,-2.8002,-2.8481,-2.8699,-2.8356,-2.905,-2.9525,-2.9555,-3.0099,-3.0467,-3.0411,-2.9904,-2.9799,-3.0428,-3.055,-3.0832,-3.1414,-3.1775,-3.1934,-3.1982,-3.2727,-3.3226,-3.3312,-3.3814,-3.4216,-3.4216,-3.4216,-3.4216,-3.4216,-3.4216,-3.4221,-3.4269,-3.4328,-3.4101,-3.3579,-3.3399,-3.2705,-3.1698,-3.0603,-2.9926,-2.9766,-2.9745,-2.979,-2.9771,-2.9832,-2.9883,-2.9899,-2.9983,-3.0038,-3.0046,-3.0076,-3.0075,-3.0023,-2.902,-2.8077,-2.7674,-2.657,-2.559,-2.5346,-2.5341,-2.541,-4.8001,-4.8001,-4.7901,-4.7123,-4.5897,-4.5083,-4.4307,-4.3664,-4.3615,-4.3565,-4.34,-4.2816,-4.2469,-4.2183,-4.1145,-4.0654,-4.0481,-3.9995,-3.9926,-4.0121,-4.0163,-4.0313,-4.0558,-4.068,-4.0817,-4.0959,-4.1117,-4.1215,-4.1295,-4.1538,-4.1771,-4.1895,-4.1102,-4.0349,-3.9686,-3.8888,-3.8235,-3.7721,-3.7721,-3.7433,-3.6812,-3.6035,-3.5291,-3.4627,-3.374,-3.294,-3.2288,-3.2053,-3.1636,-3.098,-3.0799,-3.045,-2.9797,-2.9759,-2.9439,-2.8706,-2.8773,-2.9089,-2.982,-3.0637,-3.1047,-3.1164,-3.1201,-3.1305,-3.1292,-3.1231,-3.1195,-3.1336,-3.1317,-3.1397,-3.1544,-3.2195,-3.2619,-3.2724,-3.3426,-3.4,-3.3975,-3.4117,-3.4216,-3.4216,-3.4216,-3.4216,-3.4216,-3.4216,-3.4197,-3.4209,-3.425,-3.4267,-3.4081,-3.3642,-3.3228,-3.2745,-3.1771,-3.0593,-2.9992,-2.97,-2.9727,-2.9717,-2.9763,-2.9798,-2.9842,-2.9868,-2.991,-2.9932,-2.9964,-3.0022,-2.9916,-2.9363,-2.8533,-2.774,-2.6865,-2.6044,-2.5513,-2.5288,-2.5346,-4.8398,-4.8017,-4.8001,-4.7421,-4.6411,-4.5649,-4.4937,-4.4241,-4.378,-4.3615,-4.3565,-4.3267,-4.2903,-4.2469,-4.1962,-4.1322,-4.06,-4.0338,-4.0096,-3.9875,-3.9858,-4.0011,-4.0263,-4.0313,-4.0461,-4.0655,-4.0793,-4.0912,-4.1041,-4.1249,-4.1515,-4.1644,-4.0961,-4.027,-3.9673,-3.8876,-3.8155,-3.754,-3.7522,-3.7452,-3.7271,-3.6621,-3.5665,-3.4542,-3.4138,-3.3644,-3.2918,-3.2441,-3.2053,-3.1691,-3.1256,-3.0853,-3.0527,-3.0522,-3.0409,-3.0096,-3.0117,-3.0321,-3.0726,-3.1093,-3.1314,-3.1352,-3.1818,-3.2118,-3.2155,-3.254,-3.2816,-3.2779,-3.2394,-3.2296,-3.2781,-3.3175,-3.3429,-3.3491,-3.3813,-3.4061,-3.4099,-3.4124,-3.4142,-3.4204,-3.4216,-3.4216,-3.4216,-3.4216,-3.4216,-3.4216,-3.4233,-3.4264,-3.4227,-3.3995,-3.3664,-3.3209,-3.2604,-3.1759,-3.0628,-2.9908,-2.9739,-2.9701,-2.9718,-2.9754,-2.9754,-2.9789,-2.9842,-2.9841,-2.9866,-2.9907,-2.9964,-2.9296,-2.8548,-2.771,-2.653,-2.5583,-2.5288,-2.5233,-2.5264,-4.868,-4.805,-4.8001,-4.757,-4.6841,-4.6113,-4.5367,-4.4638,-4.3896,-4.3615,-4.3615,-4.3615,-4.33,-4.282,-4.2589,-4.1896,-4.0901,-4.0629,-4.0211,-3.9675,-3.9625,-3.9772,-3.9986,-3.9986,-4.0121,-4.0362,-4.0485,-4.0648,-4.0823,-4.1018,-4.1244,-4.1338,-4.0893,-4.0336,-3.9791,-3.9035,-3.8337,-3.7727,-3.7497,-3.7448,-3.7506,-3.7148,-3.6178,-3.479,-3.4459,-3.4022,-3.328,-3.2711,-3.2466,-3.2477,-3.1934,-3.155,-3.1342,-3.1342,-3.1238,-3.1071,-3.1261,-3.1424,-3.1487,-3.1759,-3.1908,-3.1971,-3.2554,-3.2905,-3.2991,-3.3445,-3.3788,-3.3715,-3.3275,-3.3201,-3.366,-3.3842,-3.3868,-3.3868,-3.3934,-3.3998,-3.4036,-3.4061,-3.4099,-3.4161,-3.4161,-3.4173,-3.4179,-3.4216,-3.4216,-3.4216,-3.4216,-3.4216,-3.4209,-3.4208,-3.4027,-3.3476,-3.328,-3.2429,-3.1092,-3.0364,-2.9926,-2.9664,-2.9682,-2.9682,-2.97,-2.9736,-2.9763,-2.9771,-2.9771,-2.9798,-2.9866,-2.9277,-2.86,-2.7614,-2.6485,-2.5461,-2.5216,-2.5201,-2.5209,-4.868,-4.805,-4.8001,-4.7603,-4.6858,-4.6146,-4.5431,-4.4721,-4.3959,-4.3615,-4.3615,-4.3615,-4.3582,-4.3449,-4.2837,-4.2121,-4.1342,-4.0741,-4.0159,-3.9601,-3.9544,-3.959,-3.9703,-3.9729,-3.9858,-4.0096,-4.0121,-4.032,-4.0673,-4.0847,-4.0982,-4.1099,-4.1094,-4.0852,-4.0258,-3.955,-3.8933,-3.8265,-3.7614,-3.7336,-3.7411,-3.7358,-3.672,-3.5513,-3.4735,-3.3982,-3.3278,-3.3099,-3.3075,-3.3238,-3.3112,-3.2816,-3.2238,-3.2144,-3.1818,-3.1256,-3.1745,-3.2186,-3.2328,-3.2888,-3.3298,-3.3423,-3.3437,-3.3625,-3.3547,-3.368,-3.3793,-3.3788,-3.3702,-3.3702,-3.3788,-3.382,-3.382,-3.3834,-3.3887,-3.3908,-3.3908,-3.3991,-3.4018,-3.408,-3.4111,-3.4136,-3.4204,-3.4216,-3.4216,-3.4216,-3.4216,-3.4216,-3.4216,-3.4209,-3.4153,-3.3986,-3.3459,-3.2497,-3.1105,-3.0557,-3.0259,-2.985,-2.9617,-2.9626,-2.9664,-2.9701,-2.971,-2.9709,-2.9709,-2.9708,-2.9771,-2.9448,-2.882,-2.7922,-2.6837,-2.5982,-2.5482,-2.5221,-2.5137,-4.9094,-4.8001,-4.8001,-4.7835,-4.7537,-4.6825,-4.6063,-4.5334,-4.4622,-4.4042,-4.3648,-4.3615,-4.3615,-4.3565,-4.3317,-4.2804,-4.2088,-4.1375,-4.0691,-4.0066,-3.9611,-3.9448,-3.9563,-3.9563,-3.9668,-3.9833,-3.9875,-4.0011,-4.0313,-4.0517,-4.0704,-4.084,-4.0942,-4.0683,-4.0055,-3.9434,-3.8797,-3.8209,-3.7492,-3.7182,-3.7316,-3.7353,-3.6859,-3.5919,-3.5324,-3.4619,-3.3831,-3.3358,-3.3117,-3.3165,-3.3165,-3.3054,-3.2832,-3.2856,-3.281,-3.26,-3.2814,-3.2973,-3.3038,-3.3317,-3.3506,-3.3534,-3.3605,-3.3647,-3.3629,-3.3643,-3.3684,-3.3726,-3.3739,-3.3753,-3.3793,-3.3807,-3.3807,-3.382,-3.3815,-3.3842,-3.3881,-3.3921,-3.3959,-3.4023,-3.4074,-3.4111,-3.4136,-3.4173,-3.4216,-3.4216,-3.4216,-3.4216,-3.4216,-3.4216,-3.4197,-3.4179,-3.3937,-3.3422,-3.2404,-3.1219,-3.0478,-2.9866,-2.954,-2.955,-2.9579,-2.9589,-2.9589,-2.9645,-2.9636,-2.9664,-2.969,-2.9377,-2.8818,-2.8334,-2.7229,-2.6472,-2.5839,-2.5512,-2.5247,-4.9127,-4.81,-4.8001,-4.8001,-4.7901,-4.7206,-4.6477,-4.5748,-4.5003,-4.4291,-4.3698,-4.3615,-4.3615,-4.3615,-4.3615,-4.335,-4.2787,-4.2075,-4.1276,-4.0426,-3.9895,-3.9584,-3.9438,-3.9432,-3.9511,-3.9625,-3.9677,-3.979,-3.9969,-4.0263,-4.0412,-4.051,-4.0697,-4.0606,-4.0176,-3.9557,-3.8947,-3.8353,-3.7641,-3.7248,-3.7177,-3.7182,-3.6973,-3.6445,-3.5919,-3.5257,-3.4523,-3.38,-3.3434,-3.3432,-3.3198,-3.3088,-3.3083,-3.318,-3.3244,-3.3304,-3.3304,-3.3319,-3.3367,-3.3408,-3.3437,-3.3481,-3.352,-3.3563,-3.3563,-3.3591,-3.3615,-3.3661,-3.3675,-3.3684,-3.3726,-3.3726,-3.3753,-3.3793,-3.3807,-3.3802,-3.3873,-3.3873,-3.3895,-3.3959,-3.4023,-3.4043,-3.4055,-3.4111,-3.4124,-3.4136,-3.4136,-3.4148,-3.4161,-3.4173,-3.4185,-3.4179,-3.4197,-3.3751,-3.292,-3.1827,-3.0948,-3.0319,-2.95,-2.9472,-2.9501,-2.9511,-2.9521,-2.955,-2.9579,-2.9617,-2.9467,-2.9183,-2.889,-2.8596,-2.797,-2.719,-2.6492,-2.5745,-2.5491,-4.8696,-4.805,-4.8001,-4.8001,-4.7918,-4.7289,-4.6527,-4.5831,-4.5069,-4.4406,-4.3797,-4.3631,-4.3615,-4.3615,-4.3615,-4.3565,-4.3367,-4.2787,-4.1773,-4.0575,-4.0376,-3.9928,-3.9332,-3.9342,-3.9379,-3.9484,-3.9642,-3.9677,-3.9729,-3.9969,-4.0096,-4.0163,-4.0387,-4.0573,-4.0836,-3.9985,-3.941,-3.8864,-3.8125,-3.7457,-3.6913,-3.6946,-3.7011,-3.6929,-3.6408,-3.581,-3.5172,-3.4458,-3.4114,-3.409,-3.3534,-3.308,-3.3196,-3.3227,-3.3137,-3.3135,-3.3101,-3.318,-3.3277,-3.331,-3.3319,-3.3364,-3.3452,-3.3481,-3.3477,-3.3534,-3.3577,-3.3591,-3.3605,-3.3619,-3.3619,-3.3601,-3.3657,-3.378,-3.3793,-3.3793,-3.382,-3.382,-3.3834,-3.3895,-3.3959,-3.3998,-3.3998,-3.4011,-3.4023,-3.4036,-3.4023,-3.4049,-3.4086,-3.4099,-3.4136,-3.4173,-3.4142,-3.387,-3.3133,-3.2351,-3.1574,-3.0807,-2.9905,-2.9412,-2.9461,-2.9471,-2.9481,-2.9501,-2.9512,-2.9551,-2.9589,-2.9308,-2.9167,-2.8837,-2.8281,-2.7807,-2.7124,-2.6408,-2.5747,-4.868,-4.8034,-4.8001,-4.8001,-4.7984,-4.7752,-4.7239,-4.651,-4.5781,-4.5036,-4.4357,-4.3843,-4.3615,-4.3615,-4.3615,-4.3615,-4.3582,-4.33,-4.2456,-4.121,-4.0613,-4.0028,-3.9448,-3.9315,-3.9325,-3.9379,-3.9501,-3.9563,-3.959,-3.9729,-3.9875,-3.9986,-4.0138,-4.0313,-4.0451,-3.984,-3.9416,-3.9221,-3.8138,-3.7447,-3.7297,-3.6986,-3.6806,-3.6791,-3.6663,-3.6498,-3.6385,-3.5279,-3.4694,-3.4693,-3.4531,-3.4276,-3.3942,-3.3849,-3.3613,-3.3176,-3.3119,-3.3101,-3.315,-3.3201,-3.3237,-3.3214,-3.3244,-3.3289,-3.3334,-3.3451,-3.3491,-3.3524,-3.3538,-3.3549,-3.3591,-3.3605,-3.3633,-3.3712,-3.3739,-3.3753,-3.378,-3.3807,-3.382,-3.3829,-3.3881,-3.3921,-3.3934,-3.3947,-3.3972,-3.3985,-3.3985,-3.3998,-3.4023,-3.4036,-3.4018,-3.4061,-3.4024,-3.4012,-3.3451,-3.2641,-3.1681,-3.0954,-3.015,-2.9427,-2.9421,-2.9431,-2.9441,-2.9461,-2.9472,-2.9492,-2.9531,-2.9456,-2.9289,-2.912,-2.8717,-2.8209,-2.77,-2.7094,-2.6411,-4.8928,-4.8034,-4.8001,-4.8001,-4.8001,-4.8001,-4.757,-4.6841,-4.6113,-4.5367,-4.4638,-4.3943,-4.3615,-4.3615,-4.3615,-4.3615,-4.3615,-4.3615,-4.2953,-4.1811,-4.1077,-4.0365,-3.973,-3.9398,-3.9315,-3.9315,-3.9395,-3.9422,-3.9432,-3.9563,-3.9651,-3.9772,-3.9884,-4.0062,-4.0179,-3.987,-3.9651,-3.935,-3.8603,-3.7914,-3.7452,-3.7093,-3.6814,-3.6596,-3.6647,-3.6748,-3.6799,-3.5987,-3.5503,-3.5331,-3.5173,-3.4834,-3.451,-3.4438,-3.4258,-3.3916,-3.384,-3.3874,-3.3886,-3.4026,-3.3968,-3.4,-3.4,-3.4049,-3.4114,-3.413,-3.4086,-3.3837,-3.3816,-3.3683,-3.3459,-3.3401,-3.3459,-3.3577,-3.3629,-3.3671,-3.373,-3.3726,-3.3726,-3.3739,-3.3766,-3.3793,-3.3788,-3.3802,-3.3842,-3.3842,-3.3868,-3.3895,-3.3921,-3.3947,-3.3959,-3.3985,-3.4005,-3.3949,-3.3863,-3.2964,-3.1804,-3.1054,-3.0309,-2.972,-2.9409,-2.9409,-2.9409,-2.9419,-2.945,-2.9451,-2.9461,-2.9463,-2.9352,-2.9175,-2.9045,-2.8671,-2.8183,-2.7696,-2.7037,-4.9342,-4.8067,-4.8001,-4.8001,-4.8001,-4.8001,-4.7653,-4.6941,-4.6228,-4.5516,-4.4771,-4.4108,-4.3681,-4.3631,-4.3615,-4.3615,-4.3615,-4.3598,-4.3267,-4.2506,-4.1778,-4.1028,-4.0127,-3.9547,-3.9315,-3.9315,-3.9299,-3.9315,-3.9325,-3.9432,-3.9484,-3.9537,-3.9668,-3.9833,-3.9978,-4.0054,-3.9823,-3.9501,-3.9317,-3.8555,-3.741,-3.7215,-3.7016,-3.6452,-3.6454,-3.6523,-3.6588,-3.6531,-3.6414,-3.6088,-3.5525,-3.5172,-3.5013,-3.496,-3.496,-3.4783,-3.4977,-3.4976,-3.5115,-3.5005,-3.5109,-3.5139,-3.5139,-3.5475,-3.5208,-3.5135,-3.4936,-3.4447,-3.4391,-3.4139,-3.3582,-3.3345,-3.337,-3.3364,-3.352,-3.3619,-3.3605,-3.3601,-3.3633,-3.3619,-3.3605,-3.3605,-3.3615,-3.3629,-3.3615,-3.3629,-3.3703,-3.3739,-3.378,-3.3815,-3.3895,-3.3908,-3.3895,-3.3863,-3.3763,-3.3055,-3.1955,-3.1241,-3.0505,-2.9879,-2.9402,-2.9357,-2.9357,-2.9386,-2.9407,-2.9409,-2.9419,-2.9421,-2.9423,-2.9359,-2.9183,-2.9016,-2.8689,-2.8204,-2.768,-4.9342,-4.8034,-4.8001,-4.8001,-4.8001,-4.8001,-4.7901,-4.762,-4.6908,-4.6129,-4.545,-4.4721,-4.4075,-4.3631,-4.3615,-4.3615,-4.3615,-4.3615,-4.3549,-4.3218,-4.2539,-4.116,-3.9895,-3.9431,-3.9315,-3.9315,-3.9315,-3.9315,-3.9315,-3.9325,-3.9422,-3.9484,-3.9537,-3.9642,-3.9764,-3.9807,-3.98,-3.9682,-3.9257,-3.8982,-3.8527,-3.7621,-3.7096,-3.6896,-3.6431,-3.6242,-3.6331,-3.6478,-3.6577,-3.6628,-3.6535,-3.6189,-3.5769,-3.5736,-3.5543,-3.5119,-3.4995,-3.4996,-3.5031,-3.5084,-3.5083,-3.5065,-3.5243,-3.5083,-3.5188,-3.5256,-3.5199,-3.5034,-3.5119,-3.5062,-3.4774,-3.4307,-3.3818,-3.3301,-3.3477,-3.3599,-3.3577,-3.3605,-3.3605,-3.3605,-3.3591,-3.3577,-3.3577,-3.3577,-3.3577,-3.3577,-3.3587,-3.3615,-3.3629,-3.3657,-3.3712,-3.3698,-3.3684,-3.3698,-3.3474,-3.2876,-3.2175,-3.147,-3.0733,-2.9958,-2.9539,-2.9265,-2.9304,-2.9315,-2.9355,-2.9368,-2.9378,-2.9399,-2.9419,-2.9419,-2.9328,-2.917,-2.9051,-2.8688,-2.8287,-4.9359,-4.8017,-4.8001,-4.8001,-4.8001,-4.8001,-4.8001,-4.7852,-4.7222,-4.6477,-4.5748,-4.5019,-4.4291,-4.3631,-4.3615,-4.3615,-4.3615,-4.3615,-4.3598,-4.3466,-4.2804,-4.1491,-4.0111,-3.9531,-3.9315,-3.9315,-3.9315,-3.9315,-3.9315,-3.9315,-3.9369,-3.9379,-3.9405,-3.9484,-3.9616,-3.9616,-3.9694,-3.9723,-3.9413,-3.9185,-3.8871,-3.8176,-3.7441,-3.7029,-3.6486,-3.6263,-3.6169,-3.6229,-3.6402,-3.6629,-3.6753,-3.6696,-3.635,-3.6338,-3.613,-3.5674,-3.5675,-3.573,-3.5731,-3.5732,-3.5806,-3.5825,-3.5825,-3.5898,-3.6041,-3.6061,-3.6043,-3.5687,-3.5739,-3.5578,-3.5256,-3.4862,-3.4288,-3.3677,-3.3633,-3.3656,-3.3459,-3.3371,-3.3386,-3.3386,-3.3386,-3.3386,-3.3386,-3.3386,-3.3386,-3.3404,-3.3419,-3.3452,-3.3481,-3.3509,-3.352,-3.352,-3.3549,-3.3559,-3.3423,-3.2908,-3.2143,-3.1461,-3.0338,-2.9644,-2.9495,-2.9189,-2.924,-2.9251,-2.9312,-2.9334,-2.9344,-2.9326,-2.9315,-2.9326,-2.9339,-2.9304,-2.9175,-2.9066,-2.8705,-4.9275,-4.7935,-4.7935,-4.7935,-4.7952,-4.7935,-4.7902,-4.7819,-4.7258,-4.6595,-4.5899,-4.5121,-4.4475,-4.3714,-4.3681,-4.3615,-4.3615,-4.3615,-4.3615,-4.3383,-4.2787,-4.1711,-4.0564,-3.9829,-3.9464,-3.9348,-3.9315,-3.9315,-3.9315,-3.9315,-3.9315,-3.9325,-3.9299,-3.9352,-3.9458,-3.9475,-3.9563,-3.9651,-3.961,-3.9335,-3.895,-3.8572,-3.8008,-3.7263,-3.6719,-3.6327,-3.6026,-3.5954,-3.6067,-3.6398,-3.6579,-3.6606,-3.6588,-3.6626,-3.6615,-3.6565,-3.6486,-3.6581,-3.6741,-3.67,-3.6865,-3.6835,-3.6872,-3.7126,-3.6988,-3.6919,-3.6726,-3.6213,-3.6214,-3.588,-3.5296,-3.5137,-3.4818,-3.4231,-3.4067,-3.3827,-3.3349,-3.3142,-3.307,-3.3052,-3.3086,-3.3086,-3.3086,-3.3086,-3.3086,-3.3193,-3.3226,-3.3289,-3.3304,-3.3331,-3.336,-3.3404,-3.3433,-3.3462,-3.3255,-3.2988,-3.2147,-3.1318,-2.9867,-2.9094,-2.9205,-2.9078,-2.9152,-2.9197,-2.9229,-2.924,-2.924,-2.9229,-2.9218,-2.924,-2.9265,-2.9294,-2.9275,-2.9214,-2.8967,-4.8884,-4.7604,-4.762,-4.7604,-4.762,-4.762,-4.7604,-4.7571,-4.744,-4.698,-4.6336,-4.5659,-4.4979,-4.4376,-4.3847,-4.3615,-4.3568,-4.3568,-4.3615,-4.3499,-4.2837,-4.2042,-4.1177,-4.0464,-3.9862,-3.9464,-3.9315,-3.9315,-3.9315,-3.9315,-3.9315,-3.9315,-3.9299,-3.9325,-3.9342,-3.9352,-3.9405,-3.9528,-3.9537,-3.9506,-3.9317,-3.8865,-3.8472,-3.7994,-3.7038,-3.6155,-3.5643,-3.56,-3.5711,-3.5866,-3.6101,-3.6289,-3.6331,-3.6377,-3.6423,-3.6485,-3.6544,-3.6606,-3.6705,-3.6725,-3.6766,-3.6786,-3.6806,-3.6806,-3.6826,-3.6888,-3.6838,-3.6665,-3.6726,-3.6361,-3.5763,-3.5715,-3.5381,-3.4835,-3.4624,-3.4411,-3.3769,-3.3244,-3.3039,-3.2948,-3.293,-3.293,-3.2948,-3.2948,-3.2963,-3.3011,-3.3042,-3.3106,-3.3119,-3.3135,-3.3165,-3.3196,-3.3211,-3.3223,-3.3123,-3.2806,-3.2053,-3.1211,-2.9842,-2.8724,-2.884,-2.8929,-2.8975,-2.9055,-2.9152,-2.9163,-2.913,-2.9145,-2.9134,-2.9167,-2.9178,-2.9207,-2.9207,-2.9222,-2.9235,-4.8453,-4.752,-4.7504,-4.7504,-4.7504,-4.7504,-4.7504,-4.7504,-4.7504,-4.7127,-4.6454,-4.5715,-4.5055,-4.441,-4.3718,-4.3372,-4.3372,-4.3372,-4.3372,-4.329,-4.2911,-4.2446,-4.1807,-4.1047,-4.0282,-3.9471,-3.9315,-3.9315,-3.9315,-3.9315,-3.9315,-3.9315,-3.9315,-3.9299,-3.9315,-3.9315,-3.9325,-3.9395,-3.9405,-3.9458,-3.9411,-3.9161,-3.8746,-3.8329,-3.7184,-3.6195,-3.5901,-3.5557,-3.5508,-3.5503,-3.5661,-3.5922,-3.6079,-3.6127,-3.6191,-3.6233,-3.6255,-3.6276,-3.6356,-3.6377,-3.6377,-3.6478,-3.6482,-3.6561,-3.6623,-3.6687,-3.6748,-3.6766,-3.6774,-3.6619,-3.6269,-3.6274,-3.5927,-3.5349,-3.5178,-3.4846,-3.4197,-3.3634,-3.3127,-3.2896,-3.2753,-3.2753,-3.2753,-3.2737,-3.2753,-3.277,-3.2786,-3.2836,-3.2818,-3.285,-3.2916,-3.2932,-3.2963,-3.2977,-3.2934,-3.2565,-3.192,-3.1062,-3.0022,-2.9083,-2.8677,-2.8724,-2.8767,-2.8881,-2.8975,-2.8975,-2.8964,-2.901,-2.9033,-2.901,-2.901,-2.9067,-2.9112,-2.9145,-2.9178,-4.7956,-4.7369,-4.7369,-4.7385,-4.7403,-4.7403,-4.7352,-4.7386,-4.7403,-4.7092,-4.6471,-4.575,-4.5144,-4.4358,-4.3684,-4.3277,-4.3113,-4.3143,-4.3157,-4.3125,-4.3092,-4.2663,-4.2094,-4.135,-4.0506,-3.9483,-3.9322,-3.9315,-3.9315,-3.9315,-3.9315,-3.9315,-3.9315,-3.9315,-3.9315,-3.9315,-3.9315,-3.9342,-3.9342,-3.9325,-3.9325,-3.9242,-3.8963,-3.8243,-3.7494,-3.6593,-3.6233,-3.5796,-3.5435,-3.5285,-3.5308,-3.552,-3.5773,-3.591,-3.5932,-3.5932,-3.5975,-3.6041,-3.6101,-3.6062,-3.6084,-3.6165,-3.6212,-3.6297,-3.6419,-3.6461,-3.6502,-3.6541,-3.6544,-3.6527,-3.6564,-3.6519,-3.6223,-3.5809,-3.5655,-3.5307,-3.4722,-3.4248,-3.3776,-3.2929,-3.2824,-3.2824,-3.2595,-3.2489,-3.2505,-3.2521,-3.2556,-3.2573,-3.2573,-3.2606,-3.2688,-3.2737,-3.277,-3.2786,-3.2763,-3.2333,-3.1678,-3.0951,-3.0026,-2.9286,-2.86,-2.8526,-2.8569,-2.8682,-2.8761,-2.8785,-2.881,-2.8846,-2.8858,-2.8828,-2.8858,-2.894,-2.901,-2.9067,-2.9089,-4.7258,-4.6738,-4.6738,-4.6858,-4.6996,-4.6996,-4.6996,-4.6996,-4.6996,-4.705,-4.694,-4.6255,-4.5571,-4.4965,-4.4341,-4.3702,-4.315,-4.3005,-4.3035,-4.3035,-4.305,-4.272,-4.213,-4.1471,-4.0631,-3.9912,-3.9534,-3.9344,-3.9288,-3.9315,-3.9245,-3.9272,-3.9288,-3.9288,-3.9272,-3.9315,-3.9272,-3.9272,-3.9272,-3.9315,-3.9315,-3.9265,-3.9033,-3.8396,-3.7917,-3.7286,-3.643,-3.6113,-3.5778,-3.5218,-3.5245,-3.5337,-3.5435,-3.5543,-3.5633,-3.5684,-3.5773,-3.5839,-3.5888,-3.5975,-3.5997,-3.6019,-3.6041,-3.6062,-3.6084,-3.6127,-3.6208,-3.6187,-3.6187,-3.6144,-3.6127,-3.6276,-3.6326,-3.6195,-3.6194,-3.6067,-3.5461,-3.5085,-3.457,-3.3505,-3.3191,-3.2931,-3.2704,-3.2494,-3.2441,-3.2441,-3.2387,-3.2422,-3.2456,-3.2489,-3.2573,-3.2606,-3.2621,-3.2621,-3.2638,-3.2053,-3.1446,-3.0815,-3.0006,-2.9269,-2.8691,-2.8398,-2.838,-2.8471,-2.8574,-2.865,-2.8675,-2.87,-2.8712,-2.873,-2.8761,-2.8822,-2.8858,-2.8893,-2.8905,-4.6689,-4.6439,-4.6458,-4.6509,-4.658,-4.6563,-4.658,-4.6615,-4.658,-4.6649,-4.6509,-4.6011,-4.5318,-4.469,-4.3994,-4.3314,-4.2874,-4.2743,-4.2774,-4.2821,-4.2803,-4.2767,-4.2339,-4.1703,-4.1089,-4.0471,-3.9923,-3.9353,-3.9073,-3.904,-3.9067,-3.904,-3.904,-3.904,-3.9067,-3.9121,-3.9148,-3.9148,-3.9245,-3.9315,-3.9315,-3.9299,-3.904,-3.8808,-3.8377,-3.7831,-3.7334,-3.6754,-3.6298,-3.5741,-3.5623,-3.5447,-3.5261,-3.5238,-3.5354,-3.5435,-3.5503,-3.5588,-3.5639,-3.5684,-3.5745,-3.5751,-3.5817,-3.5905,-3.591,-3.5954,-3.5993,-3.5997,-3.6014,-3.6014,-3.6019,-3.6105,-3.6127,-3.6152,-3.6293,-3.6146,-3.5887,-3.5766,-3.5062,-3.4187,-3.3994,-3.362,-3.2926,-3.2701,-3.2492,-3.237,-3.2249,-3.2267,-3.2301,-3.2353,-3.2422,-3.2404,-3.2404,-3.2438,-3.2455,-3.2119,-3.1485,-3.0792,-3.017,-2.9422,-2.8773,-2.8504,-2.8261,-2.8205,-2.8327,-2.8471,-2.851,-2.8523,-2.858,-2.8605,-2.8625,-2.8632,-2.8687,-2.8712,-2.8737,-4.6084,-4.6156,-4.6156,-4.6171,-4.6191,-4.6191,-4.6243,-4.6262,-4.6262,-4.6314,-4.6218,-4.5741,-4.5088,-4.4189,-4.3406,-4.2751,-4.2366,-4.2333,-4.2413,-4.2476,-4.2508,-4.2586,-4.2533,-4.2075,-4.1339,-4.0658,-4.0062,-3.9469,-3.8947,-3.8832,-3.8805,-3.8832,-3.8805,-3.8805,-3.8832,-3.8942,-3.8969,-3.8996,-3.9094,-3.9218,-3.9245,-3.9228,-3.9272,-3.9299,-3.8709,-3.8377,-3.8013,-3.7599,-3.697,-3.6481,-3.6183,-3.5917,-3.5304,-3.5226,-3.5238,-3.5232,-3.5245,-3.5308,-3.5354,-3.5423,-3.5475,-3.5498,-3.5594,-3.5661,-3.5706,-3.5773,-3.5883,-3.591,-3.591,-3.5888,-3.5888,-3.5932,-3.5954,-3.5975,-3.5997,-3.6002,-3.6011,-3.5891,-3.5724,-3.516,-3.4875,-3.414,-3.3294,-3.285,-3.2624,-3.2174,-3.2037,-3.2073,-3.2126,-3.2161,-3.2197,-3.2179,-3.2179,-3.2249,-3.2284,-3.2319,-3.1705,-3.1036,-3.0526,-2.9927,-2.9198,-2.8567,-2.8364,-2.8156,-2.8136,-2.8273,-2.83,-2.8358,-2.838,-2.8406,-2.8432,-2.8466,-2.8536,-2.8574,-2.86,-4.541,-4.5578,-4.5614,-4.5687,-4.5848,-4.5868,-4.5941,-4.61,-4.61,-4.6191,-4.6191,-4.6103,-4.5333,-4.4072,-4.278,-4.2237,-4.2141,-4.2109,-4.2158,-4.2174,-4.2206,-4.2318,-4.2348,-4.1703,-4.1134,-4.0605,-3.9907,-3.9316,-3.8858,-3.875,-3.8777,-3.8777,-3.875,-3.8777,-3.875,-3.8805,-3.8832,-3.8832,-3.886,-3.8914,-3.904,-3.905,-3.9121,-3.9169,-3.908,-3.8815,-3.8384,-3.8086,-3.7706,-3.7102,-3.6986,-3.6605,-3.6025,-3.586,-3.5503,-3.5234,-3.5152,-3.5308,-3.5285,-3.5291,-3.5314,-3.5314,-3.5383,-3.536,-3.5429,-3.552,-3.5616,-3.5644,-3.5667,-3.5667,-3.5689,-3.5756,-3.5795,-3.5861,-3.5888,-3.5932,-3.5954,-3.5888,-3.574,-3.5727,-3.5351,-3.4346,-3.3387,-3.3038,-3.2683,-3.22,-3.1857,-3.1911,-3.193,-3.2001,-3.2037,-3.2019,-3.2019,-3.2072,-3.2108,-3.2161,-3.1952,-3.1288,-3.0833,-3.0379,-2.971,-2.8985,-2.8383,-2.8212,-2.8163,-2.8056,-2.8053,-2.8109,-2.8178,-2.8246,-2.8286,-2.834,-2.8406,-2.8432,-2.8445,-4.4776,-4.5173,-4.5315,-4.5389,-4.5463,-4.5463,-4.5484,-4.5573,-4.5609,-4.5646,-4.5682,-4.5667,-4.4894,-4.3494,-4.2136,-4.1603,-4.167,-4.1753,-4.1899,-4.198,-4.2029,-4.2142,-4.2158,-4.1837,-4.1322,-4.0339,-3.9854,-3.9266,-3.8792,-3.8544,-3.8572,-3.8572,-3.8572,-3.8572,-3.8628,-3.8655,-3.8683,-3.8711,-3.875,-3.8816,-3.8871,-3.8887,-3.8931,-3.904,-3.904,-3.8869,-3.8698,-3.8642,-3.8365,-3.7829,-3.7731,-3.7384,-3.682,-3.6572,-3.6307,-3.5652,-3.5642,-3.5514,-3.5164,-3.5185,-3.5175,-3.5205,-3.5245,-3.5331,-3.5314,-3.5337,-3.5383,-3.5412,-3.5503,-3.5526,-3.5549,-3.5639,-3.5667,-3.5711,-3.5795,-3.5778,-3.58,-3.5778,-3.5722,-3.5783,-3.572,-3.4798,-3.3939,-3.3542,-3.3073,-3.2427,-3.2001,-3.1815,-3.1817,-3.1838,-3.1874,-3.1893,-3.1911,-3.1929,-3.1948,-3.2002,-3.2073,-3.1586,-3.1115,-3.0645,-3.014,-2.9528,-2.8914,-2.8283,-2.801,-2.7912,-2.7865,-2.7911,-2.8025,-2.8099,-2.8154,-2.8178,-2.8187,-2.8232,-2.8259,-4.4035,-4.4442,-4.4776,-4.4905,-4.4905,-4.4905,-4.4942,-4.498,-4.498,-4.5017,-4.493,-4.4651,-4.3796,-4.2743,-4.1626,-4.1138,-4.1189,-4.1406,-4.1554,-4.1702,-4.1817,-4.1851,-4.19,-4.1837,-4.1231,-4.0014,-4.0011,-3.9285,-3.8505,-3.8221,-3.8307,-3.8408,-3.842,-3.842,-3.8436,-3.852,-3.8548,-3.856,-3.8628,-3.8711,-3.8738,-3.875,-3.8777,-3.8805,-3.8805,-3.886,-3.8942,-3.8909,-3.8661,-3.8451,-3.8302,-3.7998,-3.7413,-3.7257,-3.6952,-3.6365,-3.6116,-3.5752,-3.5361,-3.5193,-3.5091,-3.5065,-3.5111,-3.5175,-3.5245,-3.5245,-3.5268,-3.5314,-3.5383,-3.5446,-3.5469,-3.552,-3.5571,-3.5594,-3.5616,-3.5616,-3.5622,-3.5644,-3.5667,-3.5689,-3.5661,-3.553,-3.4759,-3.4227,-3.3574,-3.2747,-3.2222,-3.1816,-3.1703,-3.169,-3.1727,-3.1783,-3.1819,-3.1838,-3.1856,-3.1893,-3.1965,-3.1879,-3.1376,-3.0942,-3.0473,-3.0022,-2.9483,-2.8856,-2.823,-2.8066,-2.8174,-2.8029,-2.7885,-2.7882,-2.7911,-2.795,-2.7979,-2.8025,-2.8067,-4.3061,-4.3195,-4.3817,-4.4104,-4.4143,-4.4065,-4.422,-4.4396,-4.4396,-4.448,-4.4348,-4.3362,-4.2505,-4.1723,-4.116,-4.0765,-4.0833,-4.1034,-4.1135,-4.1135,-4.1169,-4.1372,-4.1538,-4.148,-4.1055,-4.0082,-3.9843,-3.9093,-3.8238,-3.7889,-3.8107,-3.8351,-3.8323,-3.8363,-3.8363,-3.8379,-3.8436,-3.8436,-3.8476,-3.8532,-3.8588,-3.8616,-3.8655,-3.875,-3.8777,-3.8805,-3.8805,-3.8805,-3.8783,-3.8646,-3.8657,-3.8514,-3.8018,-3.7903,-3.7593,-3.7017,-3.6555,-3.6224,-3.5902,-3.528,-3.4956,-3.4923,-3.493,-3.5018,-3.5105,-3.5128,-3.5175,-3.5245,-3.5268,-3.5291,-3.5354,-3.5423,-3.5475,-3.5498,-3.5543,-3.5571,-3.5594,-3.56,-3.5622,-3.56,-3.5571,-3.5475,-3.5396,-3.4796,-3.4164,-3.3359,-3.252,-3.2081,-3.1658,-3.1595,-3.1615,-3.1653,-3.1727,-3.1764,-3.1783,-3.1801,-3.1783,-3.1783,-3.1542,-3.118,-3.0817,-3.0387,-2.9886,-2.9522,-2.8967,-2.8721,-2.842,-2.8167,-2.7949,-2.7735,-2.7659,-2.7748,-2.7821,-2.785,-2.7911,-4.2809,-4.285,-4.3105,-4.3409,-4.3762,-4.3949,-4.4026,-4.4089,-4.4127,-4.3907,-4.3518,-4.2602,-4.1824,-4.1189,-4.0598,-4.0296,-4.0331,-4.0474,-4.0593,-4.073,-4.0867,-4.1037,-4.1221,-4.1084,-4.0648,-3.9661,-3.9346,-3.8807,-3.7707,-3.7596,-3.7801,-3.7992,-3.8049,-3.8078,-3.8107,-3.8221,-3.8323,-3.8379,-3.8391,-3.8436,-3.8448,-3.8476,-3.8504,-3.8544,-3.8544,-3.86,-3.8655,-3.8683,-3.8722,-3.875,-3.8777,-3.8619,-3.8466,-3.8444,-3.8109,-3.7597,-3.7204,-3.6942,-3.6389,-3.5612,-3.4932,-3.4899,-3.4923,-3.4923,-3.4994,-3.4994,-3.4994,-3.5058,-3.5152,-3.5158,-3.5198,-3.5291,-3.5377,-3.5423,-3.5452,-3.552,-3.5526,-3.5532,-3.5554,-3.5549,-3.5594,-3.5588,-3.5487,-3.5351,-3.4684,-3.3986,-3.3114,-3.2361,-3.1922,-3.1517,-3.1521,-3.154,-3.1632,-3.1651,-3.1651,-3.1632,-3.1614,-3.1632,-3.1632,-3.1376,-3.1052,-3.0602,-3.0174,-2.9902,-2.961,-2.9178,-2.8746,-2.8312,-2.7977,-2.7687,-2.7559,-2.7569,-2.7644,-2.7704,-2.7766,-4.2514,-4.2555,-4.2581,-4.289,-4.3314,-4.3542,-4.3621,-4.3621,-4.3581,-4.3109,-4.2311,-4.1648,-4.0986,-4.0353,-3.9953,-3.9768,-3.9874,-4.0001,-4.0176,-4.0316,-4.0505,-4.0662,-4.078,-4.0696,-4.0251,-3.9211,-3.8887,-3.8451,-3.7331,-3.73,-3.7419,-3.7553,-3.7642,-3.7671,-3.7963,-3.802,-3.818,-3.8221,-3.825,-3.8307,-3.8307,-3.8335,-3.8408,-3.8391,-3.842,-3.8448,-3.8504,-3.8532,-3.8588,-3.8628,-3.8683,-3.8711,-3.8722,-3.8657,-3.8455,-3.8182,-3.7886,-3.7627,-3.6988,-3.6075,-3.5164,-3.4949,-3.4899,-3.4899,-3.4899,-3.4899,-3.4947,-3.4923,-3.4994,-3.5041,-3.5058,-3.5152,-3.5222,-3.5268,-3.536,-3.5429,-3.5429,-3.5435,-3.5458,-3.5498,-3.5526,-3.5571,-3.5538,-3.5419,-3.4991,-3.4193,-3.3083,-3.2431,-3.2077,-3.1691,-3.1408,-3.1445,-3.15,-3.15,-3.15,-3.1519,-3.1555,-3.1557,-3.1557,-3.1538,-3.1228,-3.0832,-3.0678,-3.0651,-3.0277,-2.9608,-2.9214,-2.8939,-2.8281,-2.7561,-2.7488,-2.7465,-2.7524,-2.7602,-2.7585,-4.2133,-4.2133,-4.231,-4.2541,-4.267,-4.2729,-4.2754,-4.2731,-4.2672,-4.2021,-4.0979,-4.029,-3.9668,-3.9187,-3.9192,-3.9301,-3.9409,-3.9574,-3.9788,-3.9945,-4.0016,-4.0106,-4.0281,-4.0286,-3.9881,-3.9031,-3.8677,-3.8151,-3.6953,-3.6953,-3.6999,-3.709,-3.7181,-3.7375,-3.7847,-3.7889,-3.7889,-3.7918,-3.7963,-3.8049,-3.8164,-3.8193,-3.8266,-3.8294,-3.8307,-3.8307,-3.8335,-3.8391,-3.842,-3.8448,-3.8476,-3.8532,-3.8588,-3.8588,-3.8562,-3.8619,-3.8073,-3.7773,-3.757,-3.6554,-3.5803,-3.51,-3.5,-3.4875,-3.4899,-3.4899,-3.4899,-3.4899,-3.4923,-3.4923,-3.497,-3.4994,-3.5065,-3.5111,-3.5245,-3.5291,-3.5314,-3.536,-3.5383,-3.5406,-3.5469,-3.5514,-3.552,-3.5442,-3.5149,-3.4366,-3.3119,-3.25,-3.2232,-3.1916,-3.1618,-3.1349,-3.1402,-3.1402,-3.1421,-3.146,-3.1479,-3.1498,-3.1462,-3.1423,-3.1423,-3.12,-3.1187,-3.1293,-3.0902,-3.0237,-2.9911,-2.9672,-2.8853,-2.8059,-2.7502,-2.7376,-2.7452,-2.745,-2.7419,-4.2092,-4.2092,-4.2175,-4.198,-4.1796,-4.239,-4.2452,-4.201,-4.1583,-4.0973,-4.0227,-3.9858,-3.9416,-3.8996,-3.8833,-3.8943,-3.9017,-3.9053,-3.925,-3.9568,-3.9604,-3.9803,-3.998,-3.9934,-3.949,-3.8562,-3.8218,-3.7751,-3.6461,-3.6523,-3.6631,-3.677,-3.6877,-3.7195,-3.7478,-3.7581,-3.7639,-3.7876,-3.7905,-3.7918,-3.7992,-3.7992,-3.802,-3.8078,-3.8107,-3.8107,-3.8107,-3.8193,-3.825,-3.8278,-3.8307,-3.8391,-3.8436,-3.8464,-3.8492,-3.856,-3.8197,-3.809,-3.7801,-3.7157,-3.6626,-3.5819,-3.5093,-3.4903,-3.4875,-3.4899,-3.4899,-3.4899,-3.4875,-3.4875,-3.4923,-3.4923,-3.497,-3.4994,-3.5065,-3.5152,-3.5198,-3.5285,-3.5331,-3.5354,-3.5377,-3.536,-3.5383,-3.5429,-3.5206,-3.5032,-3.4009,-3.3064,-3.2632,-3.228,-3.191,-3.1436,-3.1286,-3.1286,-3.1305,-3.1344,-3.1344,-3.1308,-3.1288,-3.1269,-3.1288,-3.1288,-3.1293,-3.1208,-3.1059,-3.0859,-3.0416,-2.9923,-2.9313,-2.8631,-2.8064,-2.7496,-2.7389,-2.7303,-2.7168,-4.1744,-4.1729,-4.1497,-4.1149,-4.0928,-4.1763,-4.1741,-4.1096,-4.0519,-3.9977,-3.9586,-3.9352,-3.9,-3.8648,-3.8598,-3.8649,-3.8686,-3.8723,-3.8833,-3.9156,-3.9192,-3.9322,-3.9502,-3.9672,-3.9179,-3.8333,-3.7925,-3.7451,-3.659,-3.627,-3.6258,-3.6414,-3.6585,-3.6754,-3.7029,-3.721,-3.7359,-3.7524,-3.7537,-3.7639,-3.7714,-3.7772,-3.7876,-3.7905,-3.7934,-3.7905,-3.7963,-3.802,-3.8107,-3.8135,-3.8164,-3.8221,-3.8221,-3.8221,-3.8237,-3.825,-3.8315,-3.8228,-3.8013,-3.7552,-3.7012,-3.6528,-3.5555,-3.498,-3.4822,-3.4715,-3.4756,-3.4756,-3.478,-3.4804,-3.4828,-3.4811,-3.4851,-3.4875,-3.4947,-3.5034,-3.5058,-3.5128,-3.5128,-3.5152,-3.5198,-3.5222,-3.5268,-3.5291,-3.527,-3.5132,-3.4925,-3.4021,-3.3111,-3.2671,-3.2269,-3.1745,-3.1326,-3.1261,-3.1244,-3.123,-3.121,-3.1151,-3.1131,-3.1131,-3.1092,-3.1092,-3.1114,-3.1137,-3.1002,-3.0835,-3.0573,-3.0138,-2.9663,-2.9171,-2.8611,-2.8049,-2.7486,-2.7247,-2.7127,-4.1062,-4.096,-4.0365,-4.0133,-4.0191,-4.0681,-4.0608,-4.007,-3.9436,-3.9199,-3.9102,-3.8516,-3.8335,-3.8269,-3.824,-3.8315,-3.8478,-3.8478,-3.8664,-3.876,-3.8833,-3.8907,-3.9017,-3.922,-3.8829,-3.8432,-3.7921,-3.7345,-3.6879,-3.6213,-3.5941,-3.6005,-3.6132,-3.632,-3.6585,-3.677,-3.6953,-3.7135,-3.724,-3.7344,-3.7419,-3.7537,-3.7612,-3.7671,-3.77,-3.77,-3.7759,-3.7801,-3.786,-3.786,-3.7905,-3.7934,-3.7905,-3.7905,-3.7905,-3.7947,-3.8107,-3.8185,-3.8141,-3.7667,-3.7399,-3.6972,-3.6248,-3.542,-3.4923,-3.4783,-3.4775,-3.4636,-3.4594,-3.4618,-3.4667,-3.4691,-3.4715,-3.4763,-3.4851,-3.4875,-3.4875,-3.4875,-3.4875,-3.4923,-3.4994,-3.5041,-3.5128,-3.5175,-3.5152,-3.5155,-3.5034,-3.4818,-3.395,-3.3161,-3.2693,-3.209,-3.1672,-3.1286,-3.1219,-3.1165,-3.1092,-3.1032,-3.1015,-3.1012,-3.0952,-3.0932,-3.0992,-3.0995,-3.0952,-3.0821,-3.067,-3.0492,-3.0224,-2.97,-2.9244,-2.8691,-2.815,-2.7487,-2.7248,-4.0379,-4.0365,-4.0176,-3.9842,-3.945,-3.916,-3.9175,-3.9349,-3.8783,-3.8492,-3.8478,-3.8289,-3.8202,-3.8202,-3.8202,-3.824,-3.8277,-3.8329,-3.8441,-3.8516,-3.8575,-3.8686,-3.8797,-3.8863,-3.8529,-3.8032,-3.75,-3.7014,-3.6328,-3.5804,-3.5651,-3.5651,-3.5782,-3.602,-3.6147,-3.6258,-3.6554,-3.6847,-3.6984,-3.7044,-3.7089,-3.7195,-3.7285,-3.7331,-3.7361,-3.7345,-3.7345,-3.7462,-3.7522,-3.7551,-3.7772,-3.7876,-3.7905,-3.7905,-3.7905,-3.7889,-3.7963,-3.7976,-3.7972,-3.7857,-3.758,-3.7279,-3.6722,-3.6155,-3.5589,-3.5168,-3.5004,-3.4742,-3.4481,-3.4497,-3.4521,-3.457,-3.4594,-3.4643,-3.4691,-3.4691,-3.4667,-3.4691,-3.4691,-3.4691,-3.4763,-3.4811,-3.4923,-3.4923,-3.4899,-3.4994,-3.5038,-3.4935,-3.466,-3.3829,-3.3261,-3.2664,-3.2109,-3.1739,-3.1248,-3.1073,-3.0986,-3.0932,-3.0895,-3.0855,-3.0831,-3.0831,-3.0892,-3.0871,-3.079,-3.0851,-3.0902,-3.067,-3.0398,-3.0367,-2.9964,-2.9389,-2.8807,-2.813,-2.7623,-3.9741,-3.9712,-3.945,-3.9131,-3.8768,-3.8391,-3.8449,-3.8696,-3.8362,-3.8202,-3.8202,-3.8202,-3.8202,-3.8202,-3.8202,-3.8202,-3.8202,-3.824,-3.8277,-3.8366,-3.8404,-3.8441,-3.8538,-3.862,-3.8495,-3.7922,-3.7311,-3.6803,-3.6119,-3.5511,-3.5261,-3.5279,-3.5492,-3.5668,-3.5765,-3.5861,-3.61,-3.6429,-3.6677,-3.6785,-3.6816,-3.6908,-3.6969,-3.6969,-3.6969,-3.6969,-3.6969,-3.718,-3.7224,-3.7224,-3.7494,-3.7524,-3.7524,-3.7524,-3.7567,-3.7567,-3.7669,-3.7743,-3.7786,-3.7889,-3.7617,-3.7393,-3.7217,-3.6837,-3.6158,-3.561,-3.5233,-3.4886,-3.4569,-3.4349,-3.4399,-3.4423,-3.4472,-3.4497,-3.4497,-3.448,-3.4497,-3.448,-3.448,-3.4521,-3.4546,-3.457,-3.4594,-3.4594,-3.4643,-3.4715,-3.4763,-3.4754,-3.4622,-3.4224,-3.3796,-3.3376,-3.2772,-3.2215,-3.1708,-3.1195,-3.1091,-3.097,-3.0692,-3.0671,-3.0688,-3.0626,-3.0584,-3.0605,-3.0647,-3.0688,-3.0692,-3.0733,-3.0583,-3.0519,-3.0456,-3.0121,-2.9477,-2.8775,-2.8374,-3.9117,-3.9073,-3.8463,-3.8289,-3.8217,-3.8217,-3.8217,-3.8202,-3.8217,-3.8202,-3.8202,-3.8202,-3.8202,-3.8202,-3.8202,-3.8202,-3.8202,-3.8202,-3.8202,-3.8202,-3.824,-3.8277,-3.8329,-3.8352,-3.8376,-3.8084,-3.7417,-3.6485,-3.6231,-3.5564,-3.4949,-3.4902,-3.4968,-3.5166,-3.5409,-3.5424,-3.5636,-3.5846,-3.6178,-3.6382,-3.6523,-3.6724,-3.6923,-3.6847,-3.6847,-3.6831,-3.6877,-3.6908,-3.6954,-3.6954,-3.6984,-3.6999,-3.7014,-3.709,-3.7135,-3.721,-3.7314,-3.7419,-3.7553,-3.7612,-3.77,-3.7695,-3.7786,-3.7339,-3.6614,-3.6077,-3.5695,-3.5182,-3.4843,-3.4529,-3.4473,-3.4239,-3.4176,-3.4201,-3.4226,-3.4226,-3.4226,-3.4226,-3.4209,-3.4209,-3.4226,-3.4275,-3.4325,-3.4325,-3.4374,-3.4448,-3.4521,-3.4521,-3.4495,-3.4313,-3.408,-3.3822,-3.3301,-3.2658,-3.2147,-3.1672,-3.1373,-3.1115,-3.077,-3.048,-3.0471,-3.0371,-3.0248,-3.0333,-3.0459,-3.0422,-3.0422,-3.0447,-3.051,-3.0518,-3.051,-3.0658,-3.0166,-2.9382,-2.908,-3.8449,-3.8434,-3.8275,-3.8202,-3.8202,-3.8202,-3.8202,-3.8202,-3.8202,-3.8202,-3.8202,-3.8202,-3.8202,-3.8202,-3.8202,-3.8202,-3.8202,-3.8202,-3.8202,-3.8202,-3.8202,-3.8202,-3.8202,-3.8277,-3.8277,-3.787,-3.7106,-3.6041,-3.5331,-3.4888,-3.475,-3.475,-3.4802,-3.4968,-3.5067,-3.5082,-3.518,-3.5314,-3.5604,-3.5893,-3.6068,-3.6132,-3.6226,-3.6273,-3.6273,-3.6336,-3.6336,-3.6383,-3.6414,-3.6414,-3.6554,-3.6677,-3.677,-3.6908,-3.7015,-3.706,-3.7029,-3.7105,-3.7135,-3.7225,-3.7271,-3.7255,-3.724,-3.7205,-3.6959,-3.6625,-3.6169,-3.5604,-3.5134,-3.4781,-3.4487,-3.4201,-3.3937,-3.3963,-3.394,-3.394,-3.394,-3.3924,-3.3924,-3.3924,-3.3924,-3.3975,-3.405,-3.4075,-3.4101,-3.4201,-3.43,-3.4349,-3.4374,-3.4251,-3.3988,-3.3747,-3.358,-3.3031,-3.2556,-3.216,-3.1836,-3.1397,-3.1074,-3.0702,-3.0282,-3.0136,-3.0055,-3.0162,-3.0269,-3.0167,-3.0167,-3.0231,-3.0295,-3.0316,-3.0338,-3.0359,-3.0363,-2.9749,-2.9639,-3.8202,-3.8202,-3.8202,-3.8202,-3.8202,-3.8202,-3.8202,-3.8202,-3.8202,-3.8202,-3.8202,-3.8202,-3.8202,-3.8202,-3.8202,-3.8202,-3.8202,-3.8202,-3.8202,-3.8202,-3.8202,-3.8202,-3.8202,-3.8202,-3.8202,-3.7883,-3.6852,-3.577,-3.4603,-3.4481,-3.4549,-3.4582,-3.4668,-3.4735,-3.4769,-3.4817,-3.4835,-3.492,-3.5148,-3.5344,-3.5606,-3.5735,-3.5973,-3.602,-3.5988,-3.5988,-3.6037,-3.6085,-3.6085,-3.6132,-3.6226,-3.6289,-3.6383,-3.646,-3.6507,-3.6538,-3.6569,-3.6647,-3.6662,-3.6739,-3.6785,-3.68,-3.6862,-3.689,-3.7072,-3.6772,-3.6571,-3.6014,-3.5399,-3.5002,-3.4795,-3.452,-3.4245,-3.4144,-3.382,-3.3607,-3.3658,-3.3694,-3.372,-3.3797,-3.3797,-3.3797,-3.3848,-3.3848,-3.3873,-3.3899,-3.4,-3.4025,-3.405,-3.4126,-3.3859,-3.3689,-3.3543,-3.3355,-3.2927,-3.2586,-3.2297,-3.1867,-3.1372,-3.0632,-3.0095,-2.9955,-2.988,-2.9902,-2.9902,-2.9858,-2.988,-2.9908,-2.9951,-2.9951,-2.9973,-3.0011,-2.9995,-3.0022,-2.9861,-3.8202,-3.8202,-3.8202,-3.8202,-3.8202,-3.8202,-3.8202,-3.8202,-3.8202,-3.8202,-3.8202,-3.8202,-3.8202,-3.8202,-3.8202,-3.8202,-3.8202,-3.8202,-3.8202,-3.8202,-3.8202,-3.8202,-3.8202,-3.8202,-3.8014,-3.7564,-3.6707,-3.559,-3.4457,-3.4448,-3.4448,-3.4414,-3.4448,-3.4481,-3.4616,-3.465,-3.4683,-3.4754,-3.4868,-3.4902,-3.5151,-3.5477,-3.5686,-3.5814,-3.5861,-3.5878,-3.5878,-3.5846,-3.5846,-3.5846,-3.5846,-3.5925,-3.5973,-3.6037,-3.61,-3.6116,-3.6211,-3.6242,-3.6242,-3.6352,-3.6445,-3.6538,-3.66,-3.6662,-3.6831,-3.6783,-3.6591,-3.6274,-3.5627,-3.5317,-3.5128,-3.4841,-3.4542,-3.427,-3.384,-3.3361,-3.3409,-3.343,-3.3492,-3.3581,-3.3565,-3.3565,-3.3565,-3.3565,-3.3591,-3.3607,-3.3633,-3.3633,-3.3617,-3.3694,-3.3617,-3.3579,-3.3524,-3.3353,-3.3202,-3.3016,-3.2732,-3.2176,-3.1598,-3.0653,-2.9918,-2.9717,-2.9573,-2.948,-2.948,-2.9502,-2.9502,-2.9509,-2.9531,-2.9614,-2.9643,-2.9687,-2.9732,-2.9738,-2.9782,-3.8202,-3.8202,-3.8202,-3.8202,-3.8202,-3.8202,-3.8202,-3.8202,-3.8202,-3.8202,-3.8165,-3.8202,-3.8202,-3.8202,-3.8202,-3.8165,-3.8089,-3.8127,-3.8202,-3.8202,-3.8127,-3.8165,-3.8165,-3.806,-3.7512,-3.6961,-3.6374,-3.5584,-3.4568,-3.4419,-3.438,-3.4346,-3.438,-3.4414,-3.4448,-3.4481,-3.4481,-3.4568,-3.4668,-3.4716,-3.4783,-3.4968,-3.5019,-3.51,-3.51,-3.51,-3.5118,-3.5133,-3.51,-3.5166,-3.5297,-3.5442,-3.5572,-3.5653,-3.5735,-3.5767,-3.5863,-3.5894,-3.5941,-3.5973,-3.6022,-3.61,-3.6132,-3.6163,-3.6226,-3.6211,-3.6121,-3.6107,-3.569,-3.571,-3.5504,-3.5065,-3.4735,-3.4457,-3.411,-3.3517,-3.3228,-3.3161,-3.3152,-3.3117,-3.3069,-3.3069,-3.3096,-3.3081,-3.3081,-3.3134,-3.3214,-3.3214,-3.3293,-3.3319,-3.3372,-3.3398,-3.3424,-3.3539,-3.3512,-3.3393,-3.3083,-3.2529,-3.1881,-3.099,-3.018,-2.9491,-2.931,-2.9231,-2.9183,-2.9206,-2.9183,-2.9183,-2.9206,-2.9259,-2.9328,-2.9396,-2.9418,-2.9441,-2.9464]},{"header":{"parameterUnit":"m.s-1","parameterCategory":1,"la1":31.0,"la2":29.5877,"lo1":-88.7671,"lo2":-86.6584,"dy":0.0162,"dx":0.0185,"nx":115,"ny":88,"refTime":"2024-05-18T06:00:00:Z","depth":0,"parameterNumber":3,"parameterNumberName":"V-component_of_WINDS"},"data":[0.0,0.0,0.0,0.0,0.0,0.0,0.0,0.0,0.0,0.0,0.0,0.0,0.0,0.0,0.0,0.0,0.0,0.0,0.0,0.0,0.0,0.0,0.0,0.0,0.0,0.0,0.0,0.0,0.0,0.0,0.0,0.0,0.0,0.0,0.0,0.0,0.0,0.0,0.0,0.0,0.0,0.0,0.0,0.0,0.0,0.0,0.0,0.0,0.0,0.0,0.0,0.0,0.0,0.0,0.0,0.0,0.0,0.0,0.0,0.0,0.0,0.0,0.0,0.0,0.0,0.0,0.0,0.0,0.0,0.0,0.0,0.0,0.0,0.0,0.0,0.0,0.0,0.0,0.0,0.0,0.0,0.0,0.0,0.0,0.0,0.0,0.0,0.0,0.0,0.0,0.0,0.0,0.0,0.0,0.0,0.0,0.0,0.0,0.0,0.0,0.0,0.0,0.0,0.0,0.0,0.0,0.0,0.0,0.0,0.0,0.0,0.0,0.0,0.0,0.0,0.0,0.0,0.0,0.0,0.0,0.0,0.0,0.0,0.0,0.0,0.0,0.0,0.0,0.0,0.0,0.0,0.0,0.0,0.0,0.0,0.0,0.0,0.0,0.0,0.0,0.0,0.0,0.0,0.0,0.0,0.0,0.0,0.0,0.0,0.0,0.0,0.0,0.0,0.0,0.0,0.0,0.0,0.0,0.0,0.0,0.0,0.0,0.0,0.0,0.0,0.0,0.0,0.0,0.0,0.0,0.0,0.0,0.0,0.0,0.0,0.0,0.0,0.0,0.0,0.0,0.0,0.0,0.0,0.0,0.0,0.0,0.0,0.0,0.0,0.0,0.0,0.0,0.0,0.0,0.0,0.0,0.0,0.0,0.0,0.0,0.0,0.0,0.0,0.0,0.0,0.0,0.0,0.0,0.0,0.0,0.0,0.0,0.0,0.0,0.0,0.0,0.0,0.0,0.0,0.0,0.0,0.0,0.0,0.0,0.0,0.0,0.0,0.0,0.0,0.0,0.0,0.0,0.0,0.0,0.0,0.0,0.0,0.0,0.0,0.0,0.0,0.0,0.0,0.0,0.0,0.0,0.0,0.0,0.0,0.0,0.0,0.0,0.0,0.0,0.0,0.0,0.0,0.0,0.0,0.0,0.0,0.0,0.0,0.0,0.0,0.0,0.0,0.0,0.0,0.0,0.0,0.0,0.0,0.0,0.0,0.0,0.0,0.0,0.0,0.0,0.0,0.0,0.0,0.0,0.0,0.0,0.0,0.0,0.0,0.0,0.0,0.0,0.0,0.0,0.0,0.0,0.0,0.0,0.0,0.0,0.0,0.0,0.0,0.0,0.0,0.0,0.0,0.0,0.0,0.0,0.0,0.0,0.0,0.0,0.0,0.0,0.0,0.0,0.0,0.0,0.0,0.0,0.0,0.0,0.0,0.0,0.0,0.0,0.0,0.0,0.0,0.0,0.0,0.0,0.0,0.0,0.0,0.0,0.0,0.0,0.0,0.0,0.0,0.0,0.0,0.0,0.0,0.0,0.0,0.0,0.0,0.0,0.0,0.0,0.0,0.0,0.0,0.0,0.0,0.0,0.0,0.0,0.0,0.0,0.0,0.0,0.0,0.0,0.0,0.0,0.0,0.0,0.0,0.0,0.0,0.0,0.0,0.0,0.0,0.0,0.0,0.0,0.0,0.0,0.0,0.0,0.0,0.0,0.0,0.0,0.0,0.0,0.0,0.0,0.0,0.0,0.0,0.0,0.0,0.0,0.0,0.0,0.0,0.0,0.0,0.0,0.0,0.0,0.0,0.0,0.0,0.0,0.0,0.0,0.0,0.0,0.0,0.0,0.0,0.0,0.0,0.0,0.0,0.0,0.0,0.0,0.0,0.0,0.0,0.0,0.0,0.0,0.0,0.0,0.0,0.0,0.0,0.0,0.0,0.0,0.0,0.0,0.0,0.0,0.0,0.0,0.0,0.0,0.0,0.0,0.0,0.0,0.0,0.0,0.0,0.0,0.0,0.0,0.0,0.0,0.0,0.0,0.0,0.0,0.0,0.0,0.0,0.0,0.0,0.0,0.0,0.0,0.0,0.0,0.0,0.0,0.0,0.0,0.0,0.0,0.0,0.0,0.0,0.0,0.0,0.0,0.0,0.0,0.0,0.0,0.0,0.0,0.0,0.0,0.0,0.0,0.0,0.0,0.0,0.0,0.0,0.0,0.0,0.0,0.0,0.0,0.0,0.0,0.0,0.0,0.0,0.0,0.0,0.0,0.0,0.0,0.0,0.0,0.0,0.0,0.0,0.0,0.0,0.0,0.0,0.0,0.0,0.0,0.0,0.0,0.0,0.0,0.0,0.0,0.0,0.0,0.0,0.0,0.0,0.0,0.0,0.0,0.0,0.0,0.0,0.0,0.0,0.0,0.0,0.0,0.0,0.0,0.0,0.0,0.0,0.0,0.0,0.0,0.0,0.0,0.0,0.0,0.0,0.0,0.0,0.0,0.0,0.0,0.0,0.0,0.0,0.0,0.0,0.0,0.0,0.0,0.0,0.0,0.0,0.0,0.0,0.0,0.0,0.0,0.0,0.0,0.0,0.0,0.0,0.0,0.0,0.0,0.0,0.0,0.0,0.0,0.0,0.0,0.0,0.0,0.0,0.0,0.0,0.0,0.0,0.0,0.0,0.0,0.0,0.0,0.0,0.0,0.0,0.0,0.0,0.0,0.0,0.0,0.0,0.0,0.0,0.0,0.0,0.0,0.0,0.0,0.0,0.0,0.0,0.0,0.0,0.0,0.0,0.0,0.0,0.0,0.0,0.0,0.0,0.0,0.0,0.0,0.0,0.0,0.0,0.0,0.0,0.0,0.0,0.0,0.0,0.0,0.0,0.0,0.0,0.0,0.0,0.0,0.0,0.0,0.0,0.0,0.0,0.0,0.0,0.0,0.0,0.0,0.0,0.0,0.0,0.0,0.0,0.0,0.0,0.0,0.0,0.0,0.0,0.0,0.0,0.0,0.0,0.0,0.0,0.0,0.0,0.0,0.0,0.0,0.0,0.0,0.0,0.0,0.0,0.0,0.0,0.0,0.0,0.0,0.0,0.0,0.0,0.0,0.0,0.0,0.0,0.0,0.0,0.0,0.0,0.0,0.0,0.0,0.0,0.0,0.0,0.0,0.0,0.0,0.0,0.0,0.0,0.0,0.0,0.0,0.0,0.0,0.0,0.0,0.0,0.0,0.0,0.0,0.0,0.0,0.0,0.0,0.0,0.0,0.0,0.0,0.0,0.0,0.0,0.0,0.0,0.0,0.0,0.0,0.0,0.0,0.0,0.0,0.0,0.0,0.0,0.0,0.0,0.0,0.0,0.0,0.0,0.0,0.0,0.0,0.0,0.0,0.0,0.0,0.0,0.0,0.0,0.0,0.0,0.0,0.0,0.0,0.0,0.0,0.0,0.0,0.0,0.0,0.0,0.0,0.0,0.0,0.0,0.0,0.0,0.0,0.0,0.0,0.0,0.0,0.0,0.0,0.0,0.0,0.0,0.0,0.0,0.0,0.0,0.0,0.0,0.0,0.0,0.0,0.0,0.0,0.0,0.0,0.0,0.0,0.0,0.0,0.0,0.0,0.0,0.0,0.0,0.0,0.0,0.0,0.0,0.0,0.0,0.0,0.0,0.0,0.0,0.0,0.0,0.0,0.0,0.0,0.0,0.0,0.0,0.0,0.0,0.0,0.0,0.0,0.0,0.0,0.0,0.0,0.0,0.0,0.0,0.0,0.0,0.0,0.0,0.0,0.0,0.0,0.0,0.0,0.0,0.0,0.0,0.0,0.0,0.0,0.0,0.0,0.0,0.0,0.0,0.0,0.0,0.0,0.0,0.0,0.0,0.0,0.0,0.0,0.0,0.0,0.0,0.0,0.0,0.0,0.0,0.0,0.0,0.0,0.0,0.0,0.0,0.0,0.0,0.0,0.0,0.0,0.0,0.0,0.0,0.0,0.0,0.0,0.0,0.0,0.0,0.0,0.0,0.0,0.0,0.0,0.0,0.0,0.0,0.0,0.0,0.0,0.0,0.0,0.0,0.0,0.0,0.0,0.0,0.0,0.0,0.0,0.0,0.0,0.0,0.0,0.0,0.0,0.0,0.0,0.0,0.0,0.0,0.0,0.0,0.0,0.0,0.0,0.0,0.0,0.0,0.0,0.0,0.0,0.0,0.0,0.0,0.0,0.0,0.0,0.0,0.0,0.0,0.0,0.0,0.0,0.0,0.0,0.3815,0.0,0.0,0.0,0.0,0.0,0.0,0.0,0.0,0.0,0.0,0.0,0.0,0.0,0.0,0.0,0.0,0.0,0.0,0.0,0.0,0.0,0.0,0.0,0.0,0.0,0.0,0.0,0.0,0.0,0.0,0.0,0.0,0.0,0.0,0.0,0.0,0.0,0.0,0.0,0.0,0.0,0.0,0.0,0.0,0.0,0.0,0.0,0.0,0.0,0.0,0.0,0.0,0.0,0.0,0.0,0.0,0.0,0.0,0.0,0.0,0.0,0.0,0.0,0.0,0.0,0.0,0.0,0.0,0.0,0.0,0.0,0.0,0.0,0.0,0.0,0.0,0.0,0.0,0.0,0.0,0.0,0.0,0.0,0.0,0.0,0.0,0.0,0.0,0.0,0.0,0.0,0.0,0.0,0.0,0.0,0.0,0.0,0.0,0.0,0.0,0.0,0.0,0.0,0.0,0.0,0.0,0.0,0.0,0.0,0.0,0.4186,0.4216,0.4067,0.3946,0.3857,0.0,0.0,0.0,0.0,0.0,0.0,0.0,0.0,0.0,0.0,0.0,0.0,0.0,0.0,0.0,0.0,0.0,0.0,0.0,0.0,0.0,0.0,0.0,0.0,0.0,0.0,0.0,0.0,0.0,0.0,0.0,0.0,0.0,0.0,0.0,0.0,0.0,0.0,0.0,0.0,0.0,0.0,0.0,0.0,0.0,0.0,0.0,0.0,0.0,0.0,0.0,0.0,0.0,0.0,0.0,0.0,0.0,0.0,0.0,0.0,0.0,0.0,0.0,0.0,0.0,0.0,0.0,0.0,0.0,0.0,0.0,0.0,0.0,0.0,0.0,0.0,0.0,0.0,0.0,0.0,0.0,0.0,0.0,0.0,0.0,0.0,0.0,0.0,0.0,0.0,0.0,0.0,0.0,0.0,0.0,0.0,0.0,0.0,0.0,0.0,0.0,0.0,0.0,0.0,0.0,0.0,0.0,0.0,0.0,0.0,0.0,0.0,0.4175,0.4056,0.3908,0.0,0.0,0.0,0.0,0.0,0.0,0.0,0.0,0.0,0.0,0.0,0.0,0.0,0.0,0.0,0.0,0.0,0.0,0.0,0.0,0.0,0.0,0.0,0.0,0.0,0.0,0.0,0.0,0.0,0.0,0.0,0.0,0.0,0.0,0.0,0.0,0.0,0.0,0.0,0.0,0.0,0.0,0.0,0.0,0.0,0.0,0.0,0.0,0.0,0.0,0.0,0.0,0.0,0.0,0.0,0.0,0.0,0.0,0.0,0.0,0.0,0.0,0.0,0.0,0.0,0.0,0.0,0.0,0.0,0.0,0.0,0.0,0.0,0.0,0.0,0.0,0.0,0.0,0.0,0.0,0.0,0.0,0.0,0.0,0.0,0.0,0.0,0.0,0.0,0.0,0.0,0.0,0.0,0.0,0.0,0.0,0.0,0.0,0.0,0.0,0.0,0.0,0.0,0.0,0.0,0.0,0.0,0.0,0.0,0.0,0.4303,0.43,0.4289,0.0,0.3911,0.0,0.0,0.0,0.0,0.0,0.0,0.0,0.0,0.0,0.0,0.0,0.0,0.0,0.0,0.0,0.0,0.0,0.0,0.0,0.0,0.0,0.0,0.0,0.0,0.0,0.0,0.0,0.0,0.0,0.0,0.0,0.0,0.0,0.0,0.0,0.0,0.0,0.0,0.0,0.0,0.0,0.0,0.0,0.0,0.0,0.0,0.0,0.0,0.0,0.0,0.0,0.0,0.0,0.0,0.0,0.0,0.0,0.0,0.0,0.0,0.0,0.0,0.0,0.0,0.0,0.0,0.0,0.0,0.0,0.0,0.0,0.0,0.0,0.0,0.0,0.0,0.0,0.0,0.0,0.0,0.0,0.0,0.0,0.0,0.0,0.0,0.0,0.0,0.0,0.0,0.0,0.0,0.0,0.0,0.0,0.0,0.0,0.0,0.0,0.0,0.0,0.0,0.0,0.0,0.0,0.0,0.0,0.0,0.0,0.0,0.0,0.4398,0.4336,0.4186,0.0,0.0,0.0,0.0,0.0,0.0,0.0,0.0,0.0,0.0,0.0,0.0,0.0,0.0,0.0,0.0,0.0,0.0,0.0,0.0,0.0,0.0,0.0,0.0,0.0,0.0,0.0,0.0,0.0,0.0,0.0,0.0,0.0,0.0,0.0,0.0,0.0,0.0,0.0,0.0,0.0,0.0,0.0,0.0,0.0,0.0,0.0,0.0,0.0,0.0,0.0,0.0,0.0,0.0,0.0,0.0,0.0,0.0,0.0,0.0,0.0,0.0,0.0,0.0,0.0,0.0,0.0,0.0,0.0,0.0,0.0,0.0,0.0,0.0,0.0,0.0,0.0,0.0,0.0,0.0,0.0,0.0,0.0,0.0,0.0,0.0,0.0,0.0,0.0,0.0,0.0,0.0,0.0,0.0,0.0,0.0,0.0,0.0,0.0,0.0,0.0,0.0,0.0,0.0,0.0,0.0,0.0,0.0,0.0,0.0,0.4303,0.0,0.4412,0.4344,0.4183,0.3911,0.0,0.0,0.0,0.0,0.0,0.0,0.0,0.0,0.0,0.0,0.0,0.0,0.0,0.0,0.0,0.0,0.0,0.0,0.0,0.0,0.0,0.0,0.0,0.0,0.0,0.0,0.0,0.0,0.0,0.0,0.0,0.0,0.0,0.0,0.0,0.0,0.0,0.0,0.0,0.0,0.0,0.0,0.0,0.0,0.0,0.0,0.0,0.0,0.0,0.0,0.0,0.0,0.0,0.0,0.0,0.0,0.0,0.0,0.0,0.0,0.0,0.0,0.0,0.0,0.0,0.0,0.0,0.0,0.0,0.0,0.0,0.0,0.0,0.0,0.0,0.0,0.0,0.0,0.0,0.0,0.0,0.0,0.0,0.0,0.0,0.0,0.0,0.0,0.0,0.0,0.0,0.0,0.0,0.0,0.0,0.0,0.0,0.0,0.0,0.0,0.0,0.0,0.0,0.0,0.0,0.0,0.0,0.0,0.0,0.4303,0.4303,0.4311,0.4303,0.4186,0.0,0.0,0.0,0.0,0.0,0.0,0.0,0.0,0.0,0.0,0.0,0.0,0.0,0.0,0.0,0.0,0.0,0.0,0.0,0.0,0.0,0.0,0.0,0.0,0.0,0.0,0.0,0.0,0.0,0.0,0.0,0.0,0.0,0.0,0.0,0.0,0.0,0.0,0.0,0.0,0.0,0.0,0.0,0.0,0.0,0.0,0.0,0.0,0.0,0.0,0.0,0.0,0.0,0.0,0.0,0.0,0.0,0.0,0.0,0.0,0.0,0.0,0.0,0.0,0.0,0.0,0.0,0.0,0.0,0.0,0.0,0.0,0.0,0.0,0.0,0.0,0.0,0.0,0.0,0.0,0.0,0.0,0.0,0.0,0.0,0.0,0.0,0.0,0.0,0.0,0.0,0.0,0.0,0.0,0.0,0.0,0.0,0.0,0.0,0.0,0.0,0.0,0.0,0.0,0.0,0.0,0.0,0.0,0.0,0.4298,0.4405,0.4408,0.4306,0.4303,0.4154,0.0,0.0,0.0,0.0,0.0,0.0,0.0,0.0,0.0,0.0,0.0,0.0,0.0,0.0,0.0,0.0,0.0,0.0,0.0,0.0,0.0,0.0,0.0,0.0,0.0,0.0,0.0,0.0,0.0,0.0,0.0,0.0,0.0,0.0,0.0,0.0,0.0,0.0,0.0,0.0,0.0,0.0,0.0,0.0,0.0,0.0,0.0,0.0,0.0,0.0,0.0,0.0,0.0,0.0,0.0,0.0,0.0,0.0,0.0,0.0,0.0,0.0,0.0,0.0,0.0,0.0,0.0,0.0,0.0,0.0,0.0,0.0,0.0,0.0,0.0,0.0,0.0,0.0,0.0,0.0,0.0,0.0,0.0,0.0,0.0,0.0,0.0,0.0,0.0,0.0,0.0,0.0,0.0,0.0,0.0,0.0,0.0,0.0,0.0,0.0,0.0,0.0,0.0,0.0,0.0,0.0,0.0,0.0,0.0,0.43,0.0,0.4379,0.0,0.4303,0.4154,0.0,0.0,0.0,0.0,0.0,0.0,0.0,0.0,0.0,0.0,0.0,0.0,0.0,0.0,0.0,0.0,0.0,0.0,0.0,0.0,0.0,0.0,0.0,0.0,0.0,0.0,0.0,0.0,0.0,0.0,0.0,0.0,0.0,0.0,0.0,0.0,0.0,0.0,0.0,0.0,0.0,0.0,0.0,0.0,0.0,0.0,0.0,0.0,0.0,0.0,0.0,0.0,0.0,0.0,0.0,0.0,0.0,0.0,0.0,0.0,0.0,0.0,0.0,0.0,0.0,0.0,0.0,0.0,0.0,0.0,0.0,0.0,0.0,0.0,0.0,0.0,0.0,0.0,0.0,0.0,0.0,0.0,0.0,0.0,0.0,0.0,0.0,0.0,0.0,0.0,0.0,0.0,0.0,0.0,0.0,0.0,0.0,0.0,0.0,0.0,0.0,0.0,0.0,0.0,0.0,0.0,0.0,0.0,0.4498,0.4303,0.4311,0.4322,0.4306,0.4303,0.4186,0.0,0.0,0.0,0.0,0.0,0.0,0.0,0.0,0.0,0.0,0.0,0.0,0.0,0.0,0.0,0.0,0.0,0.0,0.0,0.0,0.0,0.0,0.0,0.0,0.0,0.0,0.0,0.0,0.0,0.0,0.0,0.0,0.0,0.0,0.0,0.0,0.0,0.0,0.0,0.0,0.0,0.0,0.0,0.0,0.0,0.0,0.0,0.0,0.0,0.0,0.0,0.0,0.0,0.0,0.0,0.0,0.0,0.0,0.0,0.0,0.0,0.0,0.0,0.0,0.0,0.0,0.0,0.0,0.0,0.0,0.0,0.0,0.0,0.0,0.0,0.0,0.0,0.0,0.0,0.0,0.0,0.0,0.0,0.0,0.0,0.0,0.0,0.0,0.0,0.0,0.0,0.0,0.0,0.0,0.0,0.0,0.0,0.0,0.0,0.0,0.0,0.0,0.0,0.0,0.0,0.0,0.0,0.0,0.0,0.4451,0.4536,0.4536,0.4454,0.4344,0.4154,0.0,0.0,0.0,0.0,0.0,0.0,0.0,0.0,0.0,0.0,0.0,0.0,0.0,0.0,0.0,0.0,0.0,0.0,0.0,0.0,0.0,0.0,0.0,0.0,0.0,0.0,0.0,0.0,0.0,0.0,0.0,0.0,0.0,0.0,0.0,0.0,0.0,0.0,0.0,0.0,0.0,0.0,0.0,0.0,0.0,0.0,0.0,0.0,0.0,0.0,0.0,0.0,0.0,0.0,0.0,0.0,0.0,0.0,0.0,0.0,0.0,0.0,0.0,0.0,0.0,0.0,0.0,0.0,0.0,0.0,0.0,0.0,0.0,0.0,0.0,0.0,0.0,0.0,0.0,0.0,0.0,0.0,0.0,0.0,0.0,0.0,0.0,0.0,0.0,0.0,0.0,0.0,0.0,0.0,0.0,0.0,0.0,0.0,0.0,0.0,0.0,0.0,0.0,0.0,0.0,0.0,0.0,0.0,0.0,0.496,0.484,0.4762,0.4683,0.4494,0.4249,0.3978,0.0,0.0,0.0,0.0,0.0,0.0,0.0,0.0,0.0,0.0,0.0,0.0,0.0,0.0,0.0,0.0,0.0,0.0,0.0,0.0,0.0,0.0,0.0,0.0,0.0,0.0,0.0,0.0,0.0,0.0,0.0,0.0,0.0,0.0,0.0,0.0,0.0,0.0,0.0,0.0,0.0,0.0,0.0,0.0,0.0,0.0,0.0,0.0,0.0,0.0,0.0,0.0,0.0,0.0,0.0,0.0,0.0,0.0,0.0,0.0,0.0,0.0,0.0,0.0,0.0,0.0,0.0,0.0,0.0,0.0,0.0,0.0,0.0,0.0,0.0,0.0,0.0,0.0,0.0,0.0,0.0,0.0,0.0,0.0,0.0,0.0,0.0,0.0,0.0,0.0,0.0,0.0,0.0,0.0,0.0,0.0,0.0,0.0,0.0,0.0,0.0,0.0,0.0,0.0,0.0,0.0,0.0,0.0,0.5712,0.5284,0.5053,0.5044,0.4692,0.4402,0.0,0.0,0.0,0.0,0.0,0.0,0.0,0.0,0.0,0.0,0.0,0.0,0.0,0.0,0.0,0.0,0.0,0.0,0.0,0.0,0.0,0.0,0.0,0.0,0.0,0.0,0.0,0.0,0.0,0.0,0.0,0.0,0.0,0.0,0.0,0.0,0.0,0.0,0.0,0.0,0.0,0.0,0.0,0.0,0.0,0.0,0.0,0.0,0.0,0.0,0.0,0.0,0.0,0.0,0.0,0.0,0.0,0.0,0.0,0.0,0.0,0.0,0.0,0.0,0.0,0.0,0.0,0.0,0.0,0.0,0.0,0.0,0.0,0.0,0.0,0.0,0.0,0.0,0.0,0.0,0.0,0.0,0.0,0.0,0.0,0.0,0.0,0.0,0.0,0.0,0.0,0.0,0.0,0.0,0.0,0.0,0.0,0.0,0.0,0.0,0.0,0.0,0.0,0.0,0.0,0.0,0.0,0.0,0.0,0.6128,0.5977,0.5709,0.5299,0.5012,0.474,0.0,0.0,0.0,0.0,0.0,0.0,0.0,0.0,0.0,0.0,0.0,0.0,0.0,0.0,0.0,0.0,0.0,0.0,0.0,0.0,0.0,0.0,0.0,0.0,0.0,0.0,0.0,0.0,0.0,0.0,0.0,0.0,0.0,0.0,0.0,0.0,0.0,0.0,0.0,0.0,0.0,0.0,0.0,0.0,0.0,0.0,0.0,0.0,0.0,0.0,0.0,0.0,0.0,0.0,0.0,0.0,0.0,0.0,0.0,0.0,0.0,0.0,0.0,0.0,0.0,0.0,0.0,0.0,0.0,0.0,0.0,0.0,0.0,0.0,0.0,0.0,0.0,0.0,0.0,0.0,0.0,0.0,0.0,0.0,0.0,0.0,0.0,0.0,0.0,0.0,0.0,0.0,0.0,0.0,0.0,0.0,0.0,0.0,0.0,0.0,0.0,0.0,0.0,0.0,0.0,0.0,0.0,0.0,0.6074,0.6437,0.6448,0.6249,0.5962,0.5428,0.5065,0.0,0.0,0.0,0.0,0.0,0.0,0.0,0.0,0.0,0.0,0.0,0.0,0.0,0.0,0.0,0.0,0.0,0.0,0.0,0.0,0.0,0.0,0.0,0.0,0.0,0.0,0.0,0.0,0.0,0.0,0.0,0.0,0.0,0.0,0.0,0.0,0.0,0.0,0.0,0.0,0.0,0.0,0.0,0.0,0.0,0.0,0.0,0.0,0.0,0.0,0.0,0.0,0.0,0.0,0.0,0.0,0.0,0.0,0.0,0.0,0.0,0.0,0.0,0.0,0.0,0.0,0.0,0.0,0.0,0.0,0.0,0.0,0.0,0.0,0.0,0.0,0.0,0.0,0.0,0.0,0.0,0.0,0.0,0.0,0.0,0.0,0.0,0.0,0.0,0.0,0.0,0.0,0.0,0.0,0.0,0.0,0.0,0.0,0.0,0.0,0.0,0.0,0.0,0.0,0.0,0.0,0.0,0.0,0.6261,0.673,0.6757,0.6757,0.6733,0.5894,0.5373,0.0,0.0,0.0,0.0,0.0,0.0,0.0,0.0,0.0,0.0,0.0,0.0,0.0,0.0,0.0,0.0,0.0,0.0,0.0,0.0,0.0,0.0,0.0,0.0,0.0,0.0,0.0,0.0,0.0,0.0,0.0,0.0,0.0,0.0,0.0,0.0,0.0,0.0,0.0,0.0,0.0,0.0,0.0,0.0,0.0,0.0,0.0,0.0,0.0,0.0,0.0,0.0,0.0,0.0,0.0,0.0,0.0,0.0,0.0,0.0,0.0,0.0,0.0,0.0,0.0,0.0,0.0,0.0,0.0,0.0,0.0,0.0,0.0,0.0,0.0,0.0,0.0,0.0,0.0,0.0,0.0,0.0,0.0,0.0,0.0,0.0,0.0,0.0,0.0,0.0,0.0,0.0,0.0,0.0,0.0,0.0,0.0,0.0,0.0,0.0,0.0,0.0,0.0,0.0,0.0,0.0,0.0,0.0,0.6488,0.6978,0.7109,0.72,0.7244,0.637,0.5868,0.0,0.0,0.0,0.0,0.0,0.0,0.0,0.0,0.0,0.0,0.0,0.0,0.0,0.0,0.0,0.0,0.0,0.0,0.0,0.0,0.0,0.0,0.0,0.0,0.0,0.0,0.0,0.0,0.0,0.0,0.0,0.0,0.0,0.0,0.0,0.0,0.0,0.0,0.0,0.0,0.0,0.0,0.0,0.0,0.0,0.0,0.0,0.0,0.2264,0.0,0.0,0.0,0.0,0.0,0.0,0.0,0.0,0.0,0.0,0.0,0.0,0.0,0.0,0.0,0.0,0.0,0.0,0.0,0.0,0.0,0.0,0.0,0.0,0.0,0.0,0.0,0.0,0.0,0.0,0.0,0.0,0.0,0.0,0.0,0.0,0.0,0.0,0.0,0.0,0.0,0.0,0.0,0.0,0.0,0.0,0.0,0.0,0.0,0.0,0.0,0.0,0.0,0.0,0.0,0.0,0.0,0.0,0.0,0.6911,0.7357,0.7595,0.7781,0.7789,0.735,0.6868,0.0,0.0,0.0,0.0,0.0,0.0,0.0,0.0,0.0,0.0,0.0,0.0,0.0,0.0,0.0,0.0,0.0,0.0,0.0,0.0,0.0,0.0,0.0,0.0,0.0,0.0,0.0,0.0,0.0,0.0,0.0,0.0,0.0,0.0,0.0,0.0,0.0,0.0,0.0,0.0,0.0,0.0,0.0,0.0,0.0,0.0,0.0,0.0,0.0,0.0,0.0,0.0,0.0,0.0,0.0,0.0,0.0,0.0,0.0,0.0,0.0,0.0,0.0,0.0,0.0,0.0,0.0,0.0,0.0,0.0,0.0,0.0,0.0,0.0,0.0,0.0,0.0,0.0,0.0,0.0,0.0,0.0,0.0,0.0,0.0,0.0,0.0,0.0,0.0,0.0,0.0,0.0,0.0,0.0,0.0,0.0,0.0,0.0,0.0,0.0,0.0,0.0,0.0,0.0,0.0,0.0,0.0,0.7003,0.7462,0.7859,0.8197,0.8429,0.8448,0.8464,0.795,0.6909,0.0,0.0,0.0,0.0,0.0,0.0,0.0,0.0,0.0,0.0,0.0,0.0,0.0,0.0,0.0,0.0,0.0,0.0,0.0,0.0,0.0,0.0,0.0,0.0,0.0,0.0,0.0,0.0,0.0,0.0,0.0,0.0,0.0,0.0,0.0,0.0,0.0,0.0,0.2543,0.2845,0.0,0.0,0.0,0.0,0.0,0.0,0.0,0.0,0.2276,0.0,0.0,0.0,0.0,0.0,0.0,0.0,0.0,0.0,0.0,0.0,0.0,0.0,0.0,0.0,0.0,0.0,0.0,0.0,0.0,0.0,0.0,0.0,0.0,0.0,0.0,0.0,0.0,0.0,0.0,0.0,0.0,0.0,0.0,0.0,0.0,0.0,0.0,0.0,0.0,0.0,0.0,0.0,0.0,0.0,0.0,0.0,0.0,0.0,0.0,0.0,0.0,0.0,0.0,0.0,0.0,0.6801,0.77,0.8315,0.8518,0.9098,0.9282,0.9142,0.9159,0.8779,0.8025,0.0,0.0,0.0,0.0,0.0,0.0,0.0,0.0,0.0,0.0,0.0,0.0,0.0,0.0,0.0,0.0,0.0,0.0,0.0,0.0,0.0,0.0,0.0,0.0,0.0,0.0,0.0,0.0,0.0,0.0,0.0,0.0,0.0,0.0,0.0,0.0,0.0,0.0,0.0,0.3069,0.3207,0.0,0.0,0.0,0.0,0.0,0.0,0.0,0.0,0.2277,0.0,0.0,0.0,0.0,0.0,0.0,0.0,0.0,0.0,0.0,0.0,0.0,0.0,0.0,0.0,0.0,0.0,0.0,0.0,0.0,0.0,0.0,0.0,0.0,0.0,0.0,0.0,0.0,0.0,0.0,0.0,0.0,0.0,0.0,0.0,0.0,0.0,0.0,0.0,0.0,0.0,0.0,0.0,0.0,0.0,0.0,0.0,0.0,0.0,0.0,0.0,0.0,0.0,0.0,0.0,0.7392,0.8395,0.9078,0.9377,0.9984,1.0216,0.9999,0.9948,0.9545,0.0,0.0,0.0,0.0,0.0,0.0,0.0,0.0,0.0,0.0,0.0,0.0,0.0,0.0,0.0,0.0,0.0,0.0,0.0,0.0,0.0,0.0,0.0,0.0,0.0,0.0,0.0,0.0,0.0,0.0,0.0,0.0,0.0,0.0,0.0,0.0,0.0,0.0,0.0,0.0,0.3237,0.3357,0.3479,0.0,0.0,0.0,0.0,0.0,0.0,0.2566,0.2425,0.0,0.0,0.0,0.0,0.0,0.0,0.0,0.0,0.0,0.0,0.0,0.0,0.0,0.0,0.0,0.0,0.0,0.0,0.0,0.0,0.0,0.0,0.0,0.0,0.0,0.0,0.0,0.0,0.0,0.0,0.0,0.0,0.0,0.0,0.0,0.0,0.0,0.0,0.0,0.0,0.0,0.0,0.0,0.0,0.0,0.0,0.0,0.0,0.0,0.0,0.0,0.0,0.0,0.0,0.0,0.7992,0.9106,0.9857,1.0192,1.0826,1.1016,1.077,1.06,1.0079,0.0,0.0,0.0,0.0,0.0,0.0,0.0,0.0,0.0,0.0,0.0,0.0,0.0,0.0,0.0,0.0,0.0,0.0,0.0,0.0,0.0,0.0,0.0,0.0,0.0,0.0,0.0,0.0,0.0,0.0,0.0,0.0,0.0,0.0,0.0,0.0,0.0,0.0,0.0,0.0,0.0,0.3534,0.3604,0.364,0.0,0.0,0.0,0.0,0.2963,0.2796,0.0,0.0,0.0,0.0,0.0,0.0,0.0,0.0,0.0,0.0,0.0,0.0,0.0,0.0,0.0,0.0,0.0,0.0,0.0,0.0,0.0,0.0,0.0,0.0,0.0,0.0,0.0,0.0,0.0,0.0,0.0,0.0,0.0,0.0,0.0,0.0,0.0,0.0,0.0,0.0,0.0,0.0,0.0,0.0,0.0,0.0,0.0,0.0,0.0,0.0,0.0,0.0,0.0,0.0,0.0,0.0,0.8629,0.9888,1.0643,1.0891,1.1305,1.1428,1.1209,1.0777,1.0115,0.0,0.0,0.0,0.0,0.0,0.0,0.0,0.0,0.0,0.0,0.0,0.0,0.0,0.0,0.0,0.0,0.0,0.0,0.0,0.0,0.0,0.0,0.0,0.0,0.0,0.0,0.0,0.0,0.0,0.0,0.0,0.0,0.0,0.0,0.0,0.0,0.0,0.0,0.0,0.0,0.0,0.3776,0.3761,0.3825,0.3865,0.0,0.0,0.3595,0.3445,0.3166,0.0,0.0,0.0,0.0,0.0,0.0,0.0,0.0,0.0,0.0,0.0,0.0,0.0,0.0,0.0,0.0,0.0,0.0,0.0,0.0,0.0,0.0,0.0,0.0,0.0,0.0,0.0,0.0,0.0,0.0,0.0,0.0,0.0,0.0,0.0,0.0,0.0,0.0,0.0,0.0,0.0,0.0,0.0,0.0,0.0,0.0,0.0,0.0,0.0,0.0,0.0,0.0,0.0,0.0,0.0,0.8638,0.9322,1.0616,1.1364,1.1531,1.1975,1.2028,1.1645,1.0948,1.0237,0.0,0.0,0.0,0.0,0.0,0.0,0.0,0.0,0.0,0.0,0.0,0.0,0.0,0.0,0.0,0.0,0.0,0.0,0.0,0.0,0.0,0.0,0.0,0.0,0.0,0.0,0.0,0.0,0.0,0.0,0.0,0.0,0.0,0.0,0.0,0.0,0.0,0.0,0.0,0.0,0.0,0.0,0.3812,0.3857,0.0,0.0,0.0,0.3741,0.3544,0.0,0.0,0.0,0.0,0.0,0.0,0.0,0.0,0.0,0.0,0.0,0.0,0.0,0.0,0.0,0.0,0.0,0.0,0.0,0.0,0.0,0.0,0.0,0.0,0.0,0.0,0.0,0.0,0.0,0.0,0.0,0.0,0.0,0.0,0.0,0.0,0.0,0.0,0.0,0.0,0.0,0.0,0.0,0.0,0.0,0.0,0.0,0.0,0.0,0.0,0.0,0.0,0.0,0.0,0.0,0.0,0.0,1.0008,1.1126,1.179,1.1949,1.2345,1.2351,1.1897,1.1082,0.0,0.0,0.0,0.0,0.0,0.0,0.0,0.0,0.0,0.0,0.0,0.0,0.0,0.0,0.0,0.0,0.0,0.0,0.0,0.0,0.0,0.0,0.0,0.0,0.0,0.0,0.0,0.2908,0.0,0.0,0.0,0.0,0.0,0.0,0.0,0.0,0.0,0.0,0.0,0.0,0.0,0.0,0.3827,0.383,0.3931,0.3994,0.0,0.0,0.3923,0.3688,0.3584,0.3414,0.0,0.0,0.0,0.0,0.0,0.0,0.0,0.0,0.0,0.0,0.0,0.0,0.0,0.0,0.0,0.0,0.0,0.0,0.0,0.0,0.0,0.0,0.0,0.0,0.0,0.0,0.0,0.0,0.0,0.0,0.0,0.0,0.0,0.0,0.0,0.0,0.0,0.0,0.0,0.0,0.0,0.0,0.0,0.0,0.0,0.0,0.0,0.0,0.0,0.0,0.0,0.0,0.0,0.0,0.0,1.0541,1.1366,1.1913,1.21,1.2119,1.2041,1.1817,1.1032,1.0273,0.0,0.0,0.0,0.0,0.0,0.0,0.0,0.0,0.0,0.0,0.0,0.0,0.0,0.0,0.0,0.0,0.0,0.0,0.0,0.0,0.0,0.0,0.0,0.0,0.0,0.0,0.0,0.0,0.0,0.0,0.0,0.0,0.0,0.0,0.0,0.0,0.0,0.0,0.0,0.0,0.0,0.3892,0.3892,0.4124,0.4276,0.0,0.0,0.4232,0.4078,0.3838,0.358,0.3326,0.0,0.0,0.0,0.0,0.0,0.0,0.0,0.0,0.0,0.0,0.0,0.0,0.0,0.0,0.0,0.0,0.0,0.0,0.0,0.0,0.0,0.0,0.0,0.0,0.0,0.0,0.0,0.0,0.0,0.0,0.0,0.0,0.0,0.0,0.0,0.0,0.0,0.0,0.0,0.0,0.0,0.0,0.0,0.0,0.0,0.0,0.0,0.0,0.0,0.0,0.0,0.0,0.0,1.002,1.0949,1.1614,1.2043,1.2299,1.2344,1.2229,1.1997,1.1224,1.0417,0.0,0.0,0.0,0.0,0.0,0.0,0.0,0.0,0.0,0.0,0.0,0.0,0.0,0.0,0.0,0.0,0.0,0.0,0.0,0.0,0.0,0.0,0.0,0.0,0.0,0.0,0.0,0.0,0.3578,0.3513,0.3471,0.0,0.0,0.0,0.0,0.0,0.0,0.0,0.0,0.0,0.0,0.4205,0.4208,0.4365,0.0,0.0,0.4367,0.4257,0.4105,0.4014,0.3797,0.3377,0.3201,0.0,0.0,0.0,0.0,0.0,0.0,0.0,0.0,0.0,0.0,0.0,0.0,0.0,0.0,0.0,0.0,0.0,0.0,0.0,0.0,0.0,0.0,0.0,0.0,0.0,0.0,0.0,0.0,0.0,0.0,0.0,0.0,0.0,0.0,0.0,0.0,0.0,0.0,0.0,0.0,0.0,0.0,0.0,0.0,0.0,0.0,0.0,0.0,0.0,0.0,0.0,0.0,1.0406,1.1258,1.1824,1.2175,1.236,1.2405,1.2322,1.2069,1.1352,1.0664,0.0,0.0,0.0,0.0,0.0,0.0,0.0,0.0,0.0,0.0,0.0,0.0,0.0,0.0,0.0,0.0,0.0,0.0,0.0,0.0,0.0,0.0,0.0,0.0,0.0,0.0,0.0,0.0,0.3958,0.3957,0.3935,0.0,0.0,0.0,0.0,0.0,0.0,0.0,0.0,0.0,0.0,0.4555,0.463,0.471,0.4755,0.4758,0.4595,0.44,0.4281,0.4207,0.4029,0.356,0.0,0.0,0.0,0.0,0.0,0.0,0.0,0.0,0.0,0.0,0.0,0.0,0.0,0.0,0.0,0.0,0.0,0.0,0.0,0.0,0.0,0.0,0.0,0.0,0.0,0.0,0.0,0.0,0.0,0.0,1.0521,0.0,0.0,0.0,0.0,0.0,0.0,0.0,0.0,0.0,0.0,0.0,0.0,0.0,0.0,0.0,0.0,0.0,0.0,0.0,0.0,0.0,0.0,1.1076,1.1395,1.1961,1.2305,1.2281,1.2318,1.2214,1.2016,1.1455,1.095,1.0474,0.0,0.0,0.0,0.0,0.0,0.0,0.0,0.0,0.0,0.0,0.0,0.0,0.0,0.0,0.0,0.0,0.0,0.0,0.0,0.0,0.0,0.0,0.0,0.0,0.0,0.0,0.4204,0.4257,0.4232,0.0,0.0,0.0,0.0,0.0,0.0,0.0,0.0,0.0,0.0,0.472,0.4989,0.5167,0.5127,0.5126,0.509,0.493,0.4764,0.4625,0.4493,0.4278,0.0,0.0,0.0,0.0,0.0,0.0,0.0,0.0,0.0,0.0,0.0,0.0,0.0,0.0,0.0,0.0,0.0,0.0,0.0,0.0,0.0,0.0,0.0,0.0,0.0,0.0,0.0,1.256,1.2522,0.0,0.0,0.0,0.0,0.0,0.0,0.0,0.0,0.0,0.0,0.0,1.2024,1.2262,0.0,0.0,0.0,0.0,0.0,0.0,0.0,0.0,0.0,0.0,0.0,0.0,1.0942,1.1389,1.181,1.2111,1.2291,1.2305,1.2268,1.2181,1.1631,1.0857,0.9849,0.0,0.0,0.0,0.0,0.0,0.0,0.0,0.0,0.0,0.0,0.0,0.0,0.0,0.0,0.0,0.0,0.0,0.0,0.0,0.0,0.0,0.0,0.0,0.0,0.0,0.4769,0.0,0.0,0.0,0.0,0.0,0.0,0.0,0.0,0.0,0.0,0.0,0.5089,0.5425,0.5662,0.5794,0.5856,0.584,0.5841,0.0,0.0,0.0,0.0,0.0,0.0,0.0,0.0,0.0,0.0,0.0,0.0,0.0,0.0,0.2454,0.2212,0.2044,0.192,0.1742,0.0,0.0,0.0,0.0,0.0,0.0,0.0,0.0,0.0,0.0,0.0,0.0,0.0,0.0,0.0,0.0,1.3834,0.0,0.0,0.0,0.0,0.0,0.0,0.0,0.0,1.2778,1.3085,1.3192,1.3436,1.3429,0.0,1.307,1.2529,0.0,0.0,0.0,0.0,0.0,0.0,0.0,0.0,1.1049,1.1389,1.1817,1.2147,1.2298,1.2305,1.2305,1.2291,1.1695,1.0856,0.9725,0.9112,0.8513,0.0,0.0,0.0,0.0,0.0,0.0,0.0,0.0,0.0,0.0,0.0,0.0,0.0,0.0,0.0,0.0,0.0,0.0,0.0,0.0,0.0,0.0,0.0,0.5211,0.0,0.0,0.0,0.0,0.0,0.0,0.0,0.0,0.0,0.5317,0.5494,0.5796,0.6132,0.6293,0.6442,0.6573,0.0,0.0,0.0,0.0,0.0,0.0,0.0,0.4919,0.4472,0.4213,0.3915,0.3585,0.3327,0.3094,0.2888,0.0,0.0,0.2428,0.2306,0.2176,0.2019,0.1836,0.1626,0.1337,0.1022,0.0681,0.0,0.0,0.0,0.0,0.0,0.0,0.0,0.0,1.7316,1.7162,0.0,1.6111,0.0,0.0,0.0,0.0,0.0,0.0,0.0,0.0,1.3894,1.4254,1.454,1.457,1.4562,1.4533,1.4187,1.3935,1.3638,1.1878,0.0,0.0,0.0,0.0,0.0,0.0,1.1443,1.1463,1.2004,1.2298,1.2305,1.2305,1.2291,1.2258,1.1682,1.0982,1.016,0.9686,0.9208,0.8613,0.7915,0.0,0.0,0.0,0.0,0.0,0.0,0.0,0.0,0.0,0.0,0.0,0.0,0.0,0.0,0.0,0.0,0.0,0.0,0.0,0.0,0.5502,0.0,0.0,0.0,0.0,0.0,0.0,0.0,0.0,0.0,0.0,0.5622,0.5943,0.6328,0.653,0.0,0.0,0.0,0.0,0.7047,0.7043,0.6853,0.6474,0.578,0.5617,0.5429,0.4916,0.0,0.0,0.3692,0.3439,0.3272,0.3114,0.2983,0.2865,0.2742,0.2595,0.2486,0.2458,0.2122,0.1794,0.1626,0.1281,0.0865,2.1486,0.0,0.0,0.0,0.0,1.9345,1.9392,1.9316,1.9096,1.8942,1.8923,1.7895,0.0,0.0,0.0,0.0,0.0,0.0,1.4591,1.4521,1.5061,1.5409,1.5511,1.5766,1.5709,1.5496,1.5174,1.4856,1.4514,1.3436,1.2544,1.1886,0.0,0.0,0.0,0.0,1.2095,1.1982,1.2335,1.2452,1.2305,1.2305,1.2104,1.1648,1.1482,1.1015,1.0147,0.9804,0.9384,0.8771,0.8285,0.0,0.0,0.0,0.0,0.0,0.0,0.0,0.0,0.0,0.0,0.0,0.0,0.0,0.0,0.0,0.0,0.0,0.0,0.0,0.6223,0.6252,0.6308,0.0,0.0,0.0,0.0,0.0,0.0,0.0,0.0,0.0,0.7238,0.7171,0.7291,0.0,0.0,0.7956,0.828,0.8127,0.7992,0.7975,0.0,0.0,0.0,0.6129,0.5615,0.5302,0.4827,0.4422,0.4076,0.3869,0.362,0.3291,0.315,0.2996,0.2873,0.2719,0.2607,0.2521,0.2382,0.2214,0.1933,0.1709,0.1403,2.345,2.2039,2.1322,2.0909,2.0784,2.0938,2.0995,2.0964,2.0771,2.069,2.0621,1.9684,1.8924,1.8216,1.6884,0.0,0.0,0.0,1.561,1.5467,1.5898,1.6096,1.6111,1.6331,1.6316,1.6089,1.5891,1.5643,1.5279,1.4689,1.4057,1.3427,0.0,0.0,1.2024,1.2326,1.2445,1.2346,1.2594,1.2636,1.2415,1.2342,1.2017,1.1456,1.143,1.1069,1.0321,0.99,0.9519,0.9165,0.8592,0.7997,0.0,0.0,0.0,0.0,0.0,0.0,0.0,0.0,0.0,0.0,0.0,0.5359,0.5359,0.0,0.0,0.0,0.6094,0.6474,0.6799,0.6795,0.0,0.0,0.0,0.0,0.0,0.0,0.0,0.7385,0.7712,0.8033,0.8183,0.7999,0.8049,0.8386,0.8447,0.8528,0.8791,0.0,0.8511,0.8401,0.7941,0.7439,0.6974,0.635,0.5811,0.5366,0.5024,0.4701,0.4401,0.4218,0.3972,0.3628,0.3406,0.3212,0.3097,0.2915,0.2719,0.2607,0.2549,0.2382,0.2128,0.1934,0.1685,2.4987,2.4411,2.3247,2.2494,2.2122,2.2422,2.2559,2.2516,2.2355,2.2279,2.2197,2.1353,2.0514,1.9624,1.8083,0.0,1.6851,1.6584,1.6445,1.6425,1.6484,1.6485,1.6485,1.6492,1.6492,1.6492,1.6463,1.6309,1.5987,1.5586,1.5265,1.4907,1.3427,1.2537,1.2227,1.2523,1.2664,1.2628,1.2852,1.2847,1.2636,1.2452,1.206,1.145,1.143,1.1142,1.0573,1.001,0.9702,0.9626,0.8884,0.827,0.7952,0.0,0.0,0.0,0.0,0.0,0.0,0.0,0.0,0.0,0.0,0.0,0.0,0.0,0.0,0.0,0.655,0.0,0.7212,0.714,0.0,0.0,0.0,0.767,0.767,0.8057,0.8353,0.8413,0.0,0.0,0.8571,0.0,0.861,0.8795,0.8735,0.8781,0.899,0.8833,0.8629,0.8473,0.8079,0.7541,0.6926,0.644,0.5965,0.5316,0.512,0.4987,0.468,0.4504,0.43,0.3974,0.3714,0.3477,0.335,0.309,0.286,0.2747,0.2635,0.2437,0.2268,0.2018,0.1796,2.6242,2.5465,2.5135,2.4386,2.333,2.3086,2.2945,2.2945,2.2901,2.2901,2.2829,2.2164,2.1151,1.982,1.9057,1.8302,1.7583,1.7758,1.765,1.7317,1.7371,1.739,1.7398,1.7191,1.7099,1.7084,1.6895,1.6749,1.6653,1.6067,1.5635,1.5258,1.4638,1.4202,1.3905,1.397,1.393,1.3808,1.3606,1.3287,1.2833,1.2636,1.224,1.1648,1.1491,1.1049,1.0254,0.988,0.9579,0.9324,0.8904,0.8577,0.8308,0.7875,0.0,0.0,0.0,0.0,0.0,0.0,0.0,0.0,0.0,0.6216,0.6201,0.0,0.6908,0.0,0.703,0.7218,0.7473,0.7621,0.0,0.0,0.8168,0.8276,0.8276,0.8461,0.8613,0.862,0.8671,0.8853,0.9207,0.9119,0.9182,0.9527,0.9181,0.893,0.9113,0.8908,0.87,0.8593,0.8155,0.7641,0.7198,0.663,0.6033,0.5557,0.5388,0.5259,0.5024,0.4737,0.4489,0.4295,0.3936,0.363,0.3485,0.3235,0.3002,0.2886,0.2747,0.2607,0.2437,0.227,0.2046,2.6878,2.6386,2.5993,2.5355,2.4647,2.4212,2.3915,2.3747,2.3605,2.3452,2.3266,2.2693,2.1891,2.0855,2.0271,1.9614,1.8924,1.8672,1.8397,1.8132,1.7956,1.7815,1.7721,1.7581,1.7434,1.7326,1.715,1.7035,1.6881,1.6499,1.6104,1.5608,1.5418,1.5211,1.4896,1.4611,1.4433,1.4348,1.405,1.3691,1.3273,1.3066,1.2594,1.1874,1.173,1.1281,1.0458,0.9996,0.9663,0.9439,0.9004,0.8677,0.8415,0.8223,0.7923,0.0,0.0,0.0,0.0,0.0,0.0,0.0,0.0,0.0,0.0,0.0,0.7315,0.7364,0.7467,0.7617,0.7882,0.8115,0.8303,0.8447,0.864,0.8771,0.8765,0.894,0.9043,0.8974,0.9104,0.9236,0.9303,0.9326,0.9373,0.9572,0.926,0.9098,0.9267,0.9039,0.8724,0.8558,0.8121,0.7566,0.6996,0.6547,0.6148,0.5785,0.562,0.5422,0.5256,0.499,0.4767,0.4599,0.4258,0.3979,0.383,0.3508,0.3251,0.3149,0.2996,0.2798,0.2549,0.241,0.2242,2.7419,2.7188,2.6411,2.6057,2.5977,2.5649,2.5149,2.4595,2.4426,2.4043,2.3539,2.3086,2.2583,2.2087,2.141,2.0826,2.0337,1.9417,1.8966,1.892,1.8411,1.8087,1.7815,1.7768,1.7628,1.7426,1.7419,1.7279,1.706,1.7016,1.6647,1.608,1.5986,1.5795,1.5416,1.4915,1.4575,1.4531,1.4366,1.4115,1.3755,1.3521,1.3015,1.2164,1.2038,1.1622,1.0859,1.029,0.9887,0.9724,0.9226,0.8817,0.8504,0.8476,0.8322,0.0,0.7925,0.0,0.0,0.0,0.0,0.0,0.0,0.0,0.0,0.7528,0.7635,0.7774,0.7919,0.8093,0.8315,0.8602,0.8758,0.8764,0.8993,0.9149,0.9161,0.9396,0.9494,0.9391,0.9595,0.9631,0.9349,0.9454,0.9482,0.9411,0.9303,0.933,0.9497,0.9152,0.8691,0.8334,0.8,0.7472,0.6767,0.6523,0.635,0.6024,0.5818,0.562,0.5491,0.5292,0.5057,0.4878,0.4614,0.4362,0.4237,0.3868,0.3548,0.3436,0.3246,0.3021,0.2661,0.2521,0.241,2.8457,2.7778,2.7592,2.7314,2.7032,2.695,2.6212,2.5058,2.5012,2.4671,2.4019,2.3345,2.2794,2.2309,2.1776,2.132,2.0817,2.0283,1.9928,1.9654,1.9012,1.8643,1.855,1.8226,1.7994,1.7947,1.7947,1.7909,1.7841,1.7622,1.7287,1.6849,1.6455,1.6035,1.5673,0.0,0.0,0.0,1.4772,1.4488,1.3973,1.3748,1.3343,1.2663,1.2219,0.0,1.1087,1.0672,1.0276,0.9896,0.9738,0.0,0.0,0.0,0.0,0.0,0.0,0.0,0.0,0.0,0.0,0.0,0.8639,0.8626,0.7986,0.818,0.8475,0.8713,0.8616,0.8549,0.8626,0.8872,0.9023,0.9035,0.9269,0.9406,0.9412,0.9672,0.9802,0.9802,0.9928,1.0067,1.0095,0.9984,0.9868,0.9933,0.973,0.957,0.9603,0.9071,0.8586,0.8253,0.7861,0.7447,0.711,0.6806,0.6581,0.6354,0.6185,0.6017,0.5822,0.5528,0.5326,0.5259,0.4912,0.4523,0.439,0.4106,0.3845,0.3604,0.3444,0.3246,0.2886,0.2747,0.2607,2.9032,0.0,2.81,2.779,0.0,2.7403,2.6909,2.6243,2.5859,2.5219,2.4326,2.3875,2.3305,2.2706,2.2264,2.1767,2.132,2.0862,2.0464,2.0065,1.9563,1.9242,1.8958,1.8596,1.8404,1.8265,1.8179,1.8087,1.8079,1.7965,1.7659,1.736,1.69,1.6488,1.6121,1.5747,1.5426,1.5141,1.5141,1.4907,1.444,1.4227,1.3796,1.3165,0.0,0.0,0.0,0.0,0.0,0.0,0.0,0.0,0.0,0.0,0.0,0.8824,0.8771,0.8705,0.8578,0.8858,0.9052,0.9052,0.9285,0.9248,0.8767,0.8867,0.894,0.8991,0.9032,0.9016,0.8909,0.9143,0.9306,0.9286,0.9546,0.9709,0.9733,0.9937,1.0094,1.0118,1.0258,1.0408,1.0419,1.0408,1.0296,1.0228,1.0049,0.9812,0.9598,0.9098,0.8642,0.8246,0.7884,0.7559,0.7363,0.7134,0.6876,0.6683,0.6449,0.6284,0.6152,0.5859,0.5657,0.562,0.5261,0.4942,0.4797,0.4473,0.4133,0.3926,0.3733,0.3555,0.3276,0.3054,0.2828,2.9384,2.9239,2.8473,2.8069,2.7893,2.7531,2.7382,2.7268,0.0,0.0,0.0,2.4451,2.3949,2.334,2.2779,2.2299,2.1909,2.141,2.0961,2.0518,2.0246,1.9882,1.9471,1.9142,1.892,1.8727,1.8504,1.8365,1.8373,1.8319,1.8141,1.7763,1.7434,1.7016,1.6598,1.6038,1.5665,1.5465,1.5423,1.5206,1.4827,1.4604,1.4157,1.3514,1.2921,1.2393,1.1941,1.1404,1.0981,1.0735,1.034,1.01,1.0015,0.9876,0.9684,0.938,0.9581,0.9579,0.9311,0.9546,0.9706,0.9753,0.976,0.973,0.962,0.9496,0.9362,0.9229,0.9406,0.9414,0.9235,0.9483,0.9615,0.9588,0.9817,0.9973,0.9991,1.0208,1.0358,1.0423,1.0593,1.0719,1.0592,1.0677,1.07,1.04,1.0282,1.0097,0.9687,0.9203,0.8742,0.8256,0.7982,0.7754,0.7591,0.7396,0.7204,0.704,0.6716,0.6482,0.6449,0.6222,0.6024,0.5991,0.5727,0.5454,0.5286,0.4875,0.4469,0.4312,0.4062,0.3827,0.3691,0.3441,0.3132,2.9663,2.9301,2.9166,2.8659,2.7914,2.7852,2.7614,2.7278,2.6765,2.63,2.5905,2.5172,2.4628,2.4261,2.3399,2.296,2.2872,2.223,2.1785,0.0,2.1051,2.0727,2.0473,1.9973,1.9745,1.97,1.9487,1.9404,1.935,1.915,1.8881,1.8538,1.8092,1.743,1.6664,1.6213,1.5914,1.5658,1.5506,1.5138,1.4592,1.4533,1.4203,1.3521,1.3133,1.2755,1.2393,1.2029,1.1645,1.1222,1.1141,1.0899,1.0525,1.0384,1.0164,0.9848,0.9746,0.9688,0.9626,0.9688,0.9793,1.0027,1.0023,1.0023,1.003,0.9909,0.9886,1.0089,0.9996,0.9863,0.9723,0.9925,1.0019,0.9898,1.0081,1.0238,1.0244,1.0466,1.0665,1.0671,1.0857,1.1051,1.0965,1.0858,1.0812,1.07,1.0513,1.0284,0.9863,0.9308,0.8758,0.8332,0.8166,0.8074,0.7917,0.7657,0.7461,0.7423,0.7106,0.6815,0.6843,0.6548,0.635,0.6317,0.6057,0.5825,0.5644,0.5257,0.4897,0.4669,0.4327,0.4002,0.3965,0.3799,0.3547,2.987,2.9653,2.9415,2.9063,2.8638,2.8092,2.7665,2.7299,2.7092,2.6786,2.6388,2.5849,2.5274,2.4692,2.4117,2.358,2.3091,2.2794,2.2407,2.1919,2.1687,2.1419,2.1069,2.0699,2.0419,2.0292,1.9936,1.9754,1.9762,1.9525,1.936,1.9134,1.8463,1.7648,1.6811,1.6414,1.6154,1.5914,1.5665,1.5271,1.4743,1.4599,1.4276,1.38,1.3287,1.2943,1.2789,1.2266,1.1905,1.1688,1.1427,1.1207,1.101,1.0849,1.0655,1.0303,1.0278,1.0231,1.0075,1.0134,1.0244,1.0378,1.0501,1.0588,1.0588,1.0385,1.0324,1.0503,1.0432,1.0405,1.0386,1.0417,1.039,1.0288,1.0416,1.0503,1.0568,1.0773,1.0924,1.0906,1.1033,1.1111,1.1117,1.1037,1.0925,1.0812,1.0625,1.039,1.012,0.9715,0.9247,0.8703,0.8391,0.8214,0.8112,0.7922,0.7792,0.7787,0.7461,0.7232,0.7204,0.6937,0.6716,0.6651,0.6482,0.6285,0.6096,0.5716,0.5362,0.5091,0.4641,0.432,0.4242,0.4104,0.3771,2.9994,2.9963,2.9611,2.9332,2.9083,2.8276,2.7665,2.732,2.7309,2.7112,2.6734,2.6424,2.59,2.5286,2.4794,2.4191,2.3521,2.3305,2.2925,2.2362,2.2318,2.2097,2.1651,2.1365,2.1141,2.088,2.0428,2.0201,2.0102,1.9891,1.9679,1.9521,1.8802,1.7991,1.7203,1.6849,1.6521,1.617,1.5948,1.5584,1.5021,1.4705,1.4381,1.3967,1.3426,1.3089,1.2987,1.2485,1.2186,1.2105,1.1743,1.1553,1.1449,1.1315,1.1118,1.0819,1.0826,1.0801,1.0602,1.0753,1.0819,1.0794,1.0955,1.1089,1.1069,1.0921,1.0809,1.085,1.0856,1.088,1.0932,1.0902,1.0801,1.0779,1.0831,1.0876,1.0864,1.1027,1.1117,1.1117,1.1117,1.1117,1.1117,1.1117,1.1037,1.0887,1.07,1.0507,1.0346,1.0132,0.9727,0.9277,0.8703,0.837,0.829,0.8144,0.8052,0.8047,0.7819,0.7624,0.7559,0.7302,0.7073,0.704,0.6909,0.6736,0.6519,0.6168,0.5808,0.5536,0.5075,0.4685,0.4498,0.4298,0.3996,2.9994,2.9994,2.9932,2.9446,2.868,2.8103,2.7686,2.7351,2.732,2.7289,2.7185,2.6755,2.6537,2.6295,2.5337,2.4791,2.4625,2.4032,2.346,2.3047,2.3013,2.275,2.2309,2.2087,2.1874,2.1607,2.1347,2.1114,2.0871,2.0428,2.0036,1.9592,1.9166,1.8655,1.8086,1.7671,1.7123,1.6402,1.6353,1.5986,1.5295,1.4926,1.4528,1.4034,1.3675,1.3309,1.3045,1.295,1.2782,1.2477,1.2404,1.2225,1.1963,1.1797,1.1596,1.1272,1.1153,1.1094,1.1149,1.1417,1.1492,1.1343,1.1356,1.1355,1.139,1.1329,1.1315,1.1328,1.1321,1.1273,1.1209,1.1361,1.1391,1.1268,1.1265,1.1335,1.1286,1.1168,1.1117,1.1117,1.1117,1.1117,1.1117,1.1117,1.1111,1.1074,1.0881,1.0763,1.0705,1.0406,1.0159,0.9933,0.9373,0.8809,0.8565,0.8306,0.8209,0.8172,0.8079,0.7949,0.7857,0.7759,0.7596,0.7428,0.7297,0.7138,0.6907,0.661,0.6293,0.5896,0.5496,0.5121,0.4671,0.4487,0.427,3.0243,3.0005,2.9994,2.9632,2.9001,2.8524,2.8079,2.7645,2.7423,2.732,2.7289,2.7102,2.6874,2.6537,2.6094,2.5571,2.488,2.4598,2.4092,2.3547,2.3537,2.3276,2.2838,2.275,2.2485,2.2132,2.1919,2.1696,2.1365,2.0961,2.0473,2.0031,1.9647,1.91,1.8395,1.8025,1.7489,1.6812,1.6804,1.6528,1.5965,1.5498,1.5001,1.4396,1.4097,1.3807,1.3467,1.3189,1.295,1.2804,1.2628,1.2426,1.2295,1.2254,1.217,1.2007,1.1901,1.1753,1.1679,1.1703,1.1669,1.1567,1.1659,1.169,1.1703,1.1844,1.1944,1.1931,1.179,1.1715,1.181,1.187,1.1797,1.1737,1.1643,1.1521,1.1409,1.1335,1.1217,1.1155,1.1117,1.1117,1.1117,1.1117,1.1117,1.1117,1.0999,1.0968,1.0956,1.0718,1.0533,1.0351,0.9929,0.9483,0.9036,0.8717,0.8528,0.8376,0.8242,0.8112,0.8112,0.7982,0.7857,0.7787,0.7689,0.7526,0.7297,0.7067,0.6755,0.6302,0.5669,0.5234,0.4916,0.4791,0.4625,3.0419,3.0025,2.9994,2.9725,2.927,2.8814,2.8349,2.7893,2.7496,2.732,2.732,2.732,2.7123,2.6822,2.6677,2.6053,2.5249,2.502,2.4581,2.3957,2.3927,2.3721,2.3319,2.3319,2.3047,2.2662,2.2441,2.2185,2.182,2.141,2.1015,2.061,2.0277,1.9728,1.8926,1.8514,1.7979,1.7392,1.7237,1.7017,1.6601,1.6201,1.559,1.4812,1.4494,1.4223,1.387,1.3508,1.3282,1.3204,1.2983,1.2787,1.2623,1.2623,1.2621,1.2514,1.2511,1.2418,1.2205,1.2151,1.2089,1.2033,1.209,1.2098,1.2089,1.2214,1.2298,1.2271,1.2111,1.2084,1.2251,1.215,1.2077,1.2077,1.1892,1.1706,1.1595,1.1521,1.1409,1.1223,1.1223,1.1186,1.1105,1.1117,1.1117,1.1117,1.1117,1.1117,1.1074,1.095,1.081,1.0675,1.0453,1.0031,0.9395,0.9102,0.8864,0.8646,0.8441,0.8371,0.8306,0.8177,0.8079,0.8047,0.8047,0.7949,0.7689,0.7469,0.7197,0.6629,0.6054,0.5528,0.5274,0.5156,0.5014,3.0419,3.0025,2.9994,2.9746,2.928,2.8835,2.832,2.7945,2.7469,2.732,2.732,2.732,2.7299,2.7216,2.6832,2.632,2.5834,2.5396,2.4851,2.4268,2.4173,2.4024,2.3797,2.3754,2.3537,2.3091,2.3047,2.2696,2.2141,2.1776,2.1562,2.1338,2.1051,2.0535,1.9799,1.929,1.8727,1.7996,1.759,1.7261,1.7098,1.7025,1.6349,1.5258,1.4744,1.4468,1.4126,1.4049,1.3954,1.3768,1.3715,1.3509,1.3066,1.2987,1.2855,1.2628,1.2826,1.2882,1.2734,1.2913,1.2991,1.283,1.2627,1.2572,1.2501,1.2425,1.2342,1.2298,1.2308,1.2308,1.2298,1.2268,1.2268,1.2231,1.2083,1.1966,1.1966,1.1787,1.1589,1.1403,1.1372,1.1298,1.1155,1.1117,1.1117,1.1117,1.1117,1.1117,1.1117,1.1074,1.1056,1.1002,1.0791,1.0402,0.9621,0.9342,0.9179,0.8913,0.8738,0.8705,0.8576,0.8447,0.8344,0.8274,0.8274,0.8204,0.8047,0.7822,0.752,0.7091,0.6598,0.6148,0.5795,0.562,0.5458,3.0677,2.9994,2.9994,2.9891,2.9704,2.9259,2.8783,2.8328,2.7883,2.7521,2.734,2.732,2.732,2.7289,2.7133,2.6812,2.6299,2.5854,2.5365,2.4854,2.4512,2.4292,2.4067,2.4067,2.3894,2.358,2.3547,2.3276,2.275,2.2344,2.2043,2.183,2.1597,2.1122,2.0464,1.9876,1.9185,1.843,1.7983,1.7635,1.7351,1.727,1.6943,1.6274,1.5497,1.4963,1.4622,1.4288,1.4057,1.3992,1.3992,1.3903,1.3726,1.3567,1.3423,1.3213,1.3258,1.328,1.3223,1.3208,1.3156,1.3083,1.29,1.279,1.2783,1.2746,1.2636,1.2526,1.2489,1.2452,1.2342,1.2305,1.2305,1.2268,1.2224,1.215,1.204,1.1929,1.1818,1.1632,1.1484,1.1372,1.1298,1.1186,1.1117,1.1117,1.1117,1.1117,1.1117,1.1117,1.1111,1.1105,1.1027,1.0779,1.0373,0.9843,0.9464,0.9131,0.8926,0.8894,0.8797,0.8765,0.8694,0.8571,0.8533,0.8436,0.8269,0.8009,0.7756,0.7526,0.7042,0.6692,0.6323,0.6096,0.5858,3.0698,3.0056,2.9994,2.9994,2.9932,2.9497,2.9042,2.8587,2.8121,2.7676,2.7372,2.732,2.732,2.732,2.732,2.7154,2.6801,2.6356,2.5792,2.5199,2.4869,2.4555,2.4346,2.4282,2.4153,2.3927,2.3841,2.3614,2.3309,2.2838,2.2574,2.2397,2.2097,2.1647,2.1082,2.0537,1.9844,1.907,1.8614,1.8218,1.7782,1.7635,1.7438,1.7092,1.6322,1.5697,1.5281,1.4741,1.4408,1.4363,1.4263,1.4173,1.4086,1.3956,1.3855,1.371,1.371,1.3674,1.3608,1.3455,1.3382,1.3273,1.3119,1.301,1.301,1.2936,1.282,1.2753,1.2716,1.2636,1.2526,1.2526,1.2452,1.2342,1.2305,1.2261,1.212,1.212,1.2003,1.1818,1.1632,1.1515,1.1477,1.1372,1.1335,1.1298,1.1298,1.126,1.1223,1.1186,1.1149,1.1105,1.1111,1.0966,1.0617,1.0188,0.9795,0.9451,0.9125,0.9081,0.9055,0.9022,0.899,0.8894,0.8797,0.8668,0.8484,0.8196,0.8012,0.783,0.7527,0.719,0.6851,0.6538,0.6267,3.0429,3.0025,2.9994,2.9994,2.9942,2.9549,2.9073,2.8638,2.8162,2.7748,2.7434,2.733,2.732,2.732,2.732,2.7289,2.7164,2.6801,2.6103,2.5292,2.5168,2.489,2.4518,2.4464,2.4368,2.4196,2.3937,2.3841,2.3754,2.3309,2.3091,2.3013,2.2618,2.2201,2.1713,2.1317,2.0734,1.9963,1.9478,1.8982,1.8455,1.817,1.7902,1.7713,1.7171,1.6651,1.6075,1.5522,1.5144,1.4956,1.4668,1.4341,1.4219,1.4147,1.4109,1.4065,1.4093,1.3956,1.3826,1.3797,1.3674,1.3564,1.3346,1.3273,1.3229,1.3083,1.2973,1.2936,1.29,1.2863,1.2863,1.2856,1.2709,1.2378,1.2342,1.2342,1.2268,1.2268,1.2231,1.2003,1.1818,1.1706,1.1706,1.1669,1.1632,1.1595,1.1632,1.1558,1.1446,1.1409,1.1298,1.1186,1.1217,1.1169,1.0846,1.0472,1.0145,0.9787,0.9465,0.9274,0.9183,0.9151,0.9119,0.9055,0.8952,0.8823,0.8765,0.8542,0.8398,0.8201,0.7943,0.7679,0.7363,0.7014,0.6689,3.0419,3.0015,2.9994,2.9994,2.9984,2.9839,2.9518,2.9063,2.8607,2.8142,2.7717,2.7396,2.732,2.732,2.732,2.732,2.7299,2.7123,2.6594,2.5751,2.5378,2.4952,2.459,2.4507,2.4454,2.4368,2.4206,2.4067,2.4024,2.3754,2.3547,2.3319,2.3057,2.275,2.2422,2.1913,2.1345,2.0964,2.0172,1.9598,1.9209,1.8744,1.8451,1.8393,1.808,1.7752,1.7355,1.6451,1.5948,1.5856,1.5646,1.5261,1.4758,1.463,1.4485,1.4168,1.4101,1.4093,1.4029,1.4008,1.4023,1.3928,1.3855,1.3746,1.3637,1.3557,1.3404,1.3163,1.3127,1.3046,1.2936,1.29,1.2826,1.2562,1.2489,1.2452,1.2378,1.2305,1.2268,1.2187,1.204,1.1929,1.1892,1.1855,1.1781,1.1744,1.1744,1.1706,1.1632,1.1595,1.1589,1.1521,1.1508,1.1422,1.1192,1.0842,1.0447,1.0095,0.9724,0.942,0.9312,0.928,0.9247,0.9183,0.9081,0.9017,0.8958,0.8865,0.8745,0.8626,0.8404,0.8122,0.7845,0.7546,0.7231,3.0574,3.0015,2.9994,2.9994,2.9994,2.9994,2.9725,2.927,2.8814,2.8349,2.7893,2.7458,2.732,2.732,2.732,2.732,2.732,2.732,2.6905,2.619,2.5668,2.5223,2.4766,2.4559,2.4507,2.4507,2.4378,2.4335,2.4282,2.4067,2.3884,2.3721,2.3493,2.3188,2.2906,2.25,2.2092,2.1588,2.096,2.0426,1.9966,1.9516,1.9164,1.8949,1.8723,1.8523,1.8247,1.7552,1.6982,1.6569,1.6261,1.5875,1.5455,1.5423,1.5253,1.5012,1.4846,1.4817,1.469,1.4663,1.455,1.4476,1.4476,1.4409,1.4305,1.4268,1.4119,1.38,1.3748,1.3609,1.3433,1.3368,1.3222,1.2973,1.2783,1.2673,1.2569,1.2526,1.2526,1.2489,1.2415,1.2342,1.2298,1.2261,1.215,1.215,1.2077,1.2003,1.1929,1.1855,1.1818,1.1744,1.1626,1.1607,1.1619,1.123,1.0757,1.0353,0.9994,0.9657,0.9414,0.9414,0.9414,0.9382,0.9285,0.9215,0.9183,0.9113,0.9009,0.892,0.8811,0.8561,0.8281,0.8138,0.7817,3.0833,3.0036,2.9994,2.9994,2.9994,2.9994,2.9777,2.9332,2.8887,2.8442,2.7976,2.7562,2.7361,2.733,2.732,2.732,2.732,2.7309,2.7102,2.6625,2.6169,2.5637,2.5013,2.4652,2.4507,2.4507,2.4497,2.4507,2.4454,2.4282,2.4196,2.411,2.3894,2.358,2.3256,2.3125,2.2703,2.2122,2.185,2.1371,2.0737,2.0364,1.9993,1.9433,1.9179,1.8962,1.8794,1.8563,1.8056,1.7116,1.6707,1.6494,1.6373,1.6349,1.6256,1.6127,1.6079,1.5847,1.568,1.5494,1.5357,1.5188,1.5188,1.515,1.5127,1.505,1.4919,1.4622,1.4554,1.4447,1.4211,1.4068,1.3908,1.3564,1.3119,1.2863,1.29,1.2856,1.2826,1.2863,1.29,1.29,1.282,1.2783,1.282,1.2783,1.2643,1.2489,1.2378,1.2224,1.2003,1.1966,1.2003,1.2033,1.2081,1.1624,1.1159,1.0834,1.0392,0.9925,0.9624,0.9574,0.9574,0.9548,0.9484,0.9414,0.9382,0.9312,0.9242,0.9116,0.9027,0.8906,0.8771,0.8555,0.8331,3.0833,3.0015,2.9994,2.9994,2.9994,2.9994,2.9932,2.9756,2.9311,2.8825,2.84,2.7945,2.7541,2.733,2.732,2.732,2.732,2.732,2.7278,2.7071,2.6646,2.572,2.4869,2.458,2.4507,2.4507,2.4507,2.4507,2.4507,2.4454,2.4335,2.4196,2.411,2.3937,2.3657,2.3624,2.3444,2.3026,2.2551,2.2167,2.1742,2.0961,2.0457,2.0294,1.9883,1.9576,1.9369,1.9091,1.8687,1.8063,1.7721,1.7358,1.7013,1.6854,1.6716,1.647,1.6319,1.6226,1.6196,1.6128,1.6035,1.598,1.6015,1.5942,1.5851,1.5651,1.5442,1.5233,1.5088,1.4973,1.485,1.4651,1.4355,1.3921,1.3441,1.3024,1.2973,1.29,1.29,1.29,1.2936,1.2973,1.2973,1.2973,1.2973,1.2973,1.2893,1.282,1.2783,1.2709,1.2562,1.2599,1.2636,1.2599,1.2474,1.2007,1.1592,1.1299,1.0808,1.0242,0.9955,0.9792,0.9734,0.9702,0.9644,0.9542,0.951,0.9446,0.9382,0.9382,0.9282,0.9197,0.9055,0.8908,0.8682,3.0843,3.0005,2.9994,2.9994,2.9994,2.9994,2.9994,2.9901,2.9508,2.9042,2.8587,2.8131,2.7676,2.733,2.732,2.732,2.732,2.732,2.7309,2.7226,2.6812,2.5927,2.5003,2.4642,2.4507,2.4507,2.4507,2.4507,2.4507,2.4507,2.4421,2.4368,2.4325,2.4196,2.398,2.398,2.3851,2.3574,2.3216,2.2909,2.2556,2.2041,2.1399,2.1057,2.059,2.0308,1.9792,1.9518,1.9152,1.8714,1.8425,1.8146,1.7876,1.7723,1.7525,1.7303,1.7255,1.7186,1.7139,1.7091,1.6983,1.6896,1.6896,1.6787,1.6663,1.6481,1.6331,1.6076,1.5912,1.5794,1.5605,1.5385,1.5087,1.4731,1.419,1.3726,1.3433,1.3441,1.3404,1.3404,1.3404,1.3404,1.3404,1.3404,1.3404,1.3411,1.3375,1.3346,1.3273,1.32,1.3119,1.3119,1.3046,1.2966,1.283,1.2427,1.2018,1.1724,1.1155,1.0607,1.0264,1.0015,0.9926,0.9894,0.9772,0.9708,0.9676,0.967,0.9702,0.967,0.9568,0.9486,0.9374,0.9269,0.9051,3.094,3.0099,3.0099,3.0099,3.0109,3.0099,3.0151,3.0026,2.9745,2.9258,2.8751,2.8263,2.7859,2.7382,2.7361,2.732,2.732,2.732,2.732,2.7175,2.6801,2.6127,2.5347,2.4828,2.46,2.4528,2.4507,2.4507,2.4507,2.4507,2.4507,2.4454,2.4497,2.4411,2.4239,2.4249,2.4067,2.3884,2.38,2.3576,2.323,2.2948,2.2444,2.1786,2.136,2.0868,2.0331,1.9981,1.9736,1.9201,1.894,1.8803,1.8794,1.8763,1.8656,1.8581,1.8391,1.8289,1.8318,1.8049,1.798,1.7817,1.7785,1.7708,1.7543,1.7461,1.7321,1.7079,1.7032,1.6779,1.6506,1.6292,1.6005,1.5645,1.5391,1.4972,1.4457,1.4196,1.4165,1.4158,1.4129,1.4129,1.4129,1.4129,1.4129,1.3876,1.3848,1.3746,1.371,1.3593,1.3521,1.3411,1.3339,1.3266,1.31,1.287,1.2501,1.21,1.1465,1.0914,1.0558,1.0333,1.018,1.0053,0.9958,0.9926,0.9926,0.9958,0.9989,0.9926,0.9792,0.9766,0.976,0.9633,0.9447,3.1519,3.062,3.063,3.062,3.063,3.063,3.062,3.0599,3.0514,3.0001,2.9448,2.8948,2.8379,2.7797,2.7465,2.732,2.7357,2.7357,2.732,2.7247,2.6832,2.6335,2.573,2.5285,2.4848,2.46,2.4507,2.4507,2.4507,2.4507,2.4507,2.4507,2.4497,2.4454,2.4464,2.4411,2.4325,2.4163,2.411,2.3973,2.3682,2.341,2.3116,2.266,2.209,2.151,2.0995,2.0605,2.0411,2.0137,1.9754,1.9448,1.9369,1.924,1.9112,1.8993,1.8922,1.8803,1.8652,1.8612,1.8531,1.8491,1.8451,1.8451,1.8411,1.8241,1.8167,1.8032,1.7863,1.7587,1.7298,1.7083,1.6829,1.6522,1.6237,1.5955,1.5434,1.4888,1.4581,1.4497,1.4489,1.4489,1.4497,1.4497,1.4461,1.4353,1.4281,1.4181,1.4101,1.4065,1.3992,1.392,1.3884,1.3804,1.3636,1.338,1.295,1.2531,1.1906,1.1387,1.1035,1.0744,1.0618,1.0396,1.018,1.0149,1.0244,1.0142,1.0174,1.0079,1.0047,1.0021,1.0021,0.9919,0.9817,3.1466,3.0786,3.0776,3.0776,3.0776,3.0776,3.0776,3.0776,3.0776,3.0459,2.988,2.9405,2.8842,2.8292,2.7851,2.7631,2.7631,2.7631,2.7631,2.7579,2.7337,2.6976,2.6378,2.5899,2.5355,2.4664,2.4507,2.4507,2.4507,2.4507,2.4507,2.4507,2.4507,2.4497,2.4507,2.4507,2.4454,2.4378,2.4325,2.4239,2.4092,2.3939,2.3569,2.3202,2.2453,2.1748,2.1518,2.1102,2.0916,2.0809,2.0537,2.0117,1.9794,1.9666,1.9548,1.9469,1.9429,1.939,1.928,1.924,1.924,1.9091,1.9042,1.8931,1.8812,1.8643,1.8523,1.8531,1.8385,1.8257,1.8083,1.7987,1.7717,1.7432,1.7205,1.6995,1.6587,1.5773,1.5053,1.4948,1.4883,1.4883,1.4883,1.4919,1.4883,1.4848,1.4812,1.4748,1.474,1.4669,1.4569,1.4533,1.4461,1.4382,1.4235,1.3907,1.3426,1.2946,1.2397,1.2009,1.1659,1.1387,1.1115,1.087,1.0618,1.0618,1.0649,1.0523,1.046,1.0523,1.0523,1.0364,1.0238,1.0142,1.0047,3.1441,3.0983,3.0983,3.0993,3.0931,3.0931,3.0972,3.092,3.0931,3.0728,3.025,2.9782,2.9317,2.8806,2.8301,2.8104,2.7998,2.7951,2.7893,2.7872,2.7851,2.7507,2.6946,2.6406,2.5805,2.4792,2.4571,2.4507,2.4507,2.4507,2.4507,2.4507,2.4507,2.4507,2.4507,2.4507,2.4507,2.4464,2.4464,2.4454,2.4454,2.4402,2.4111,2.3493,2.292,2.226,2.1987,2.1615,2.1344,2.1254,2.1215,2.0819,2.0342,2.0059,2.002,2.002,1.9942,1.9824,1.9754,1.9784,1.9745,1.9636,1.9508,1.935,1.9161,1.9082,1.9002,1.8971,1.8922,1.8913,1.8882,1.8758,1.8606,1.8344,1.8216,1.8038,1.7596,1.675,1.6156,1.5618,1.5612,1.5656,1.5503,1.5453,1.5374,1.5338,1.5311,1.5275,1.5275,1.5204,1.5026,1.4919,1.4848,1.4812,1.4673,1.4438,1.3939,1.3458,1.2939,1.2582,1.2251,1.1925,1.1615,1.1334,1.1185,1.1122,1.1059,1.0965,1.0933,1.1066,1.0933,1.0713,1.0523,1.0364,1.0301,3.248,3.1823,3.1823,3.168,3.1476,3.1476,3.1476,3.1476,3.1476,3.1289,3.0995,3.0543,2.9949,2.9341,2.8796,2.8381,2.8156,2.8128,2.8081,2.8081,2.8023,2.7742,2.736,2.6868,2.626,2.561,2.5004,2.4645,2.455,2.4507,2.4583,2.454,2.455,2.455,2.454,2.4507,2.454,2.454,2.454,2.4507,2.4507,2.4476,2.4332,2.3876,2.3464,2.3073,2.2489,2.2184,2.1871,2.1476,2.1282,2.1128,2.0925,2.078,2.0625,2.0498,2.0342,2.0225,2.0098,1.9942,1.9902,1.9863,1.9824,1.9784,1.9745,1.9666,1.9557,1.9597,1.9597,1.9676,1.9666,1.939,1.9213,1.9043,1.8791,1.8526,1.8166,1.7829,1.7377,1.6842,1.6684,1.6419,1.6172,1.598,1.591,1.5822,1.5709,1.5638,1.5568,1.5453,1.5275,1.5204,1.5125,1.5125,1.5089,1.4819,1.4455,1.4003,1.3517,1.3108,1.2774,1.2422,1.212,1.1903,1.1654,1.1466,1.1404,1.1341,1.131,1.1317,1.1185,1.1028,1.0933,1.0839,1.0807,3.2616,3.2291,3.2229,3.219,3.2088,3.2077,3.2088,3.2037,3.2088,3.1986,3.1741,3.1328,3.0784,3.0215,2.9744,2.9216,2.8715,2.856,2.8513,2.8477,2.8398,2.824,2.7825,2.7407,2.6811,2.622,2.5556,2.507,2.4892,2.4871,2.4828,2.4871,2.4871,2.4871,2.4828,2.4743,2.47,2.47,2.4583,2.4507,2.4507,2.4497,2.4395,2.425,2.3981,2.3639,2.3329,2.2855,2.2517,2.2117,2.1937,2.1775,2.1555,2.1331,2.1138,2.0925,2.0809,2.0702,2.0576,2.0498,2.043,2.0381,2.0264,2.0108,2.0059,1.9981,1.9951,1.9902,1.9912,1.9912,1.9863,1.9706,1.9666,1.9578,1.9399,1.9219,1.9081,1.9017,1.8594,1.8034,1.7602,1.7177,1.6732,1.6572,1.6466,1.6316,1.6123,1.6,1.5885,1.578,1.5638,1.563,1.563,1.5559,1.5524,1.532,1.5017,1.4564,1.4189,1.3759,1.3303,1.2952,1.2731,1.2521,1.2243,1.1903,1.1809,1.1778,1.1692,1.163,1.1529,1.1459,1.1373,1.131,1.1247,3.2796,3.2695,3.2695,3.2706,3.2645,3.2645,3.2606,3.2544,3.2544,3.2505,3.2437,3.2028,3.1497,3.0942,3.0323,2.9726,2.9185,2.9163,2.9082,2.8989,2.8943,2.8792,2.8487,2.8047,2.7426,2.672,2.6204,2.5754,2.5232,2.5158,2.52,2.5158,2.52,2.52,2.5158,2.4988,2.4946,2.4903,2.4786,2.4625,2.4583,2.4572,2.454,2.4497,2.4188,2.3981,2.3753,2.3494,2.3101,2.274,2.2555,2.2389,2.2007,2.1799,2.1594,2.1379,2.1282,2.1215,2.1138,2.1022,2.0896,2.0858,2.0654,2.0537,2.0459,2.0342,2.0147,2.0059,2.0059,2.0098,2.0098,2.002,1.9981,1.9942,1.9902,1.9854,1.9756,1.969,1.9548,1.8991,1.8446,1.7914,1.7424,1.7009,1.6893,1.6615,1.6412,1.6342,1.6237,1.6167,1.6096,1.6132,1.6132,1.6035,1.5964,1.5894,1.5549,1.5137,1.4847,1.4516,1.4005,1.3511,1.3302,1.3055,1.2674,1.2367,1.2305,1.222,1.212,1.2058,1.1996,1.1864,1.1747,1.1654,1.1591,3.3755,3.3496,3.3446,3.3346,3.3158,3.3097,3.2996,3.2807,3.2807,3.2645,3.2645,3.2431,3.1964,3.1075,3.0094,2.9643,2.9508,2.9485,2.9451,2.9393,2.9347,2.922,2.8969,2.8528,2.7941,2.7259,2.6791,2.6023,2.5476,2.5285,2.5242,2.5242,2.5285,2.5242,2.5285,2.52,2.5158,2.5158,2.5115,2.5031,2.4871,2.4818,2.4743,2.4594,2.4479,2.4313,2.4043,2.3857,2.3618,2.3184,2.3111,2.2873,2.2511,2.2408,2.2131,2.175,2.1436,2.1215,2.1254,2.1205,2.1167,2.1167,2.1051,2.1089,2.0974,2.0819,2.0615,2.0527,2.0489,2.0489,2.045,2.0333,2.0303,2.0186,2.0098,2.002,1.9981,2.0098,1.9964,1.9906,1.9294,1.8648,1.8081,1.7659,1.7286,1.6986,1.6716,1.6656,1.6577,1.6482,1.6412,1.6447,1.6447,1.6386,1.6272,1.6211,1.6018,1.5642,1.5373,1.5146,1.4692,1.4176,1.3805,1.3532,1.3133,1.2897,1.2858,1.2736,1.2582,1.2428,1.2336,1.2212,1.2058,1.1996,1.1965,3.4592,3.404,3.3915,3.3817,3.3717,3.3717,3.3656,3.3568,3.3519,3.3469,3.3419,3.3408,3.2843,3.1746,3.0825,3.0296,3.0136,2.9988,2.9817,2.9737,2.9634,2.9439,2.9314,2.9091,2.8599,2.7789,2.7391,2.6798,2.6104,2.5633,2.5591,2.5591,2.5591,2.5591,2.5506,2.5464,2.5422,2.538,2.5285,2.5147,2.5062,2.5073,2.5041,2.4871,2.4871,2.4703,2.4535,2.444,2.4148,2.3753,2.3577,2.336,2.3008,2.2853,2.2687,2.2224,2.2056,2.1816,2.1602,2.1456,2.1397,2.131,2.1282,2.1177,2.1167,2.1128,2.1051,2.0964,2.0809,2.077,2.0731,2.0576,2.0489,2.0411,2.0303,2.0294,2.0255,2.0294,2.0313,2.0245,2.0158,1.9488,1.8861,1.8449,1.8004,1.7515,1.7195,1.7005,1.6917,1.6795,1.6726,1.6691,1.6656,1.6621,1.6542,1.6438,1.6342,1.605,1.5769,1.553,1.5316,1.4883,1.4495,1.414,1.3813,1.3613,1.3441,1.3164,1.292,1.2805,1.2683,1.2582,1.2513,1.2459,1.2398,3.55,3.4957,3.4592,3.4457,3.4457,3.4457,3.4408,3.4359,3.4359,3.431,3.4166,3.3953,3.3303,3.2429,3.151,3.0859,3.0758,3.0499,3.0329,3.0159,2.9966,2.9852,2.9749,2.9567,2.9071,2.8018,2.7886,2.7253,2.6526,2.6146,2.6021,2.5906,2.5853,2.5853,2.5864,2.5738,2.5696,2.5644,2.5506,2.538,2.5338,2.5285,2.5242,2.52,2.52,2.5115,2.4988,2.4967,2.463,2.4378,2.4284,2.4033,2.3606,2.3451,2.3202,2.2779,2.2513,2.2286,2.1989,2.1778,2.1609,2.154,2.1464,2.1397,2.1282,2.1282,2.1244,2.1167,2.1051,2.0984,2.0945,2.0819,2.0693,2.0654,2.0615,2.0615,2.0566,2.0527,2.0489,2.045,2.0382,2.0256,1.9716,1.9266,1.8754,1.8152,1.7769,1.7455,1.7213,1.7072,1.7003,1.6899,1.683,1.6795,1.676,1.6647,1.6551,1.6463,1.6203,1.5979,1.5779,1.5504,1.5144,1.4782,1.4462,1.4224,1.4009,1.3595,1.3263,1.3224,1.3164,1.3033,1.2972,1.292,1.2828,3.6615,3.6487,3.58,3.5476,3.5428,3.5524,3.5332,3.5078,3.5078,3.4908,3.457,3.3802,3.3059,3.2378,3.1798,3.135,3.1261,3.1062,3.0927,3.0927,3.0883,3.0544,3.0318,2.9999,2.9487,2.8327,2.8158,2.7629,2.6774,2.6592,2.6313,2.599,2.6032,2.5937,2.5937,2.5948,2.5864,2.5864,2.577,2.5686,2.5601,2.5559,2.5464,2.5285,2.5242,2.52,2.52,2.52,2.5126,2.4978,2.4925,2.4714,2.422,2.4147,2.3834,2.3356,2.2953,2.2745,2.2488,2.2045,2.179,2.1769,2.1721,2.1617,2.1512,2.1474,2.1397,2.1282,2.1244,2.1205,2.1138,2.1022,2.0896,2.0858,2.078,2.0693,2.0654,2.0605,2.0566,2.0605,2.0537,2.043,2.0333,1.9887,1.9378,1.8778,1.8119,1.7783,1.7458,1.7289,1.721,1.7141,1.7003,1.6934,1.6899,1.6864,1.6899,1.6899,1.6727,1.6535,1.6343,1.603,1.5765,1.545,1.512,1.4832,1.452,1.4197,1.3935,1.3752,1.364,1.3459,1.3307,1.3246,1.3164,3.6968,3.6922,3.6653,3.6263,3.5835,3.5668,3.5572,3.5464,3.5416,3.516,3.4771,3.4039,3.3418,3.2836,3.2293,3.1981,3.1937,3.1693,3.1572,3.1395,3.1217,3.0994,3.0781,3.0539,3.0078,2.908,2.8783,2.813,2.7083,2.7003,2.6715,2.6479,2.6396,2.6354,2.6313,2.6146,2.6032,2.5948,2.5895,2.5864,2.5812,2.577,2.5728,2.5633,2.5633,2.5549,2.5464,2.5422,2.5327,2.5285,2.5242,2.502,2.4861,2.4787,2.4513,2.401,2.3645,2.3365,2.296,2.2361,2.1828,2.1807,2.1769,2.1769,2.1655,2.1655,2.1655,2.1589,2.1436,2.1387,2.1359,2.1205,2.1099,2.1022,2.0935,2.0819,2.077,2.0722,2.0683,2.0731,2.0654,2.0547,2.0488,2.041,1.9924,1.9375,1.8735,1.8123,1.7786,1.747,1.7382,1.7348,1.722,1.7185,1.7185,1.722,1.7254,1.722,1.722,1.7036,1.6816,1.6702,1.6426,1.6109,1.5785,1.5474,1.5164,1.4856,1.4525,1.4107,1.3929,1.3821,1.367,1.3549,1.3467,3.7366,3.732,3.7261,3.6875,3.6345,3.6133,3.6038,3.6038,3.6086,3.5615,3.4956,3.4409,3.3861,3.3339,3.2934,3.2636,3.2506,3.232,3.2101,3.1925,3.1717,3.1484,3.1362,3.1086,3.0607,2.9749,2.9303,2.8647,2.7435,2.7412,2.7249,2.7097,2.6974,2.6933,2.652,2.6437,2.624,2.6146,2.6104,2.6021,2.6021,2.5979,2.5906,2.5895,2.5853,2.5812,2.5728,2.5686,2.5601,2.5506,2.5422,2.538,2.5327,2.5284,2.5093,2.4796,2.4427,2.4144,2.3621,2.2762,2.1973,2.1838,2.1807,2.1807,2.1807,2.1807,2.1731,2.1769,2.1655,2.1578,2.1589,2.1436,2.132,2.1244,2.1089,2.0974,2.0974,2.0925,2.0886,2.0858,2.077,2.0693,2.0673,2.0604,2.0253,1.9642,1.8909,1.8395,1.8148,1.7839,1.7545,1.752,1.7461,1.7461,1.7461,1.7426,1.7401,1.7358,1.7358,1.7392,1.7266,1.7135,1.7049,1.6816,1.6482,1.6118,1.5862,1.5631,1.4998,1.4309,1.4195,1.407,1.3911,1.3799,1.3791,3.7854,3.7854,3.7598,3.7307,3.701,3.7062,3.7002,3.682,3.6769,3.6208,3.5232,3.4716,3.4181,3.3692,3.3326,3.3197,3.3068,3.284,3.2581,3.2419,3.2332,3.2189,3.1969,3.1616,3.1088,3.0017,2.9611,2.9077,2.7909,2.7909,2.7881,2.776,2.7638,2.7342,2.6685,2.6592,2.6592,2.655,2.652,2.6396,2.6229,2.6188,2.6115,2.6074,2.6021,2.6021,2.5979,2.5895,2.5853,2.5812,2.577,2.5686,2.5601,2.5601,2.5463,2.5199,2.4784,2.453,2.434,2.3175,2.2535,2.2039,2.1977,2.1845,2.1807,2.1807,2.1807,2.1807,2.1769,2.1769,2.1693,2.1655,2.154,2.1464,2.1282,2.1205,2.1167,2.1089,2.1051,2.1012,2.0945,2.0867,2.0819,2.0721,2.0447,1.9891,1.9121,1.8669,1.8469,1.8195,1.7889,1.7691,1.7676,1.7676,1.7642,1.7573,1.7539,1.7505,1.7529,1.7598,1.7598,1.7517,1.7421,1.7391,1.7129,1.6718,1.658,1.6448,1.5707,1.4958,1.4508,1.4327,1.4139,1.41,1.416,3.79,3.79,3.7808,3.7469,3.7059,3.7093,3.6903,3.6519,3.6147,3.5539,3.4968,3.4648,3.4264,3.3824,3.3683,3.3556,3.3471,3.3428,3.3227,3.2909,3.2865,3.2593,3.2376,3.2122,3.1552,3.0742,3.0264,2.9627,2.8486,2.8471,2.8299,2.8151,2.8042,2.7586,2.7167,2.6992,2.691,2.6644,2.6603,2.655,2.6479,2.6479,2.6437,2.6354,2.6313,2.6313,2.6313,2.6188,2.6104,2.6063,2.6021,2.5895,2.5864,2.5822,2.578,2.5644,2.5342,2.4973,2.4666,2.39,2.3389,2.2765,2.2196,2.2022,2.1845,2.1807,2.1807,2.1807,2.1845,2.1845,2.1769,2.1769,2.1693,2.1655,2.154,2.1436,2.1359,2.1254,2.1177,2.1138,2.1099,2.1089,2.1051,2.0974,2.0738,2.0532,1.9883,1.9138,1.8792,1.8543,1.8284,1.8012,1.7881,1.7881,1.7847,1.7779,1.7779,1.7803,1.7837,1.7872,1.7837,1.7837,1.775,1.7702,1.7528,1.7326,1.7078,1.68,1.6249,1.5667,1.5277,1.4891,1.4678,1.4632,1.4636,3.7586,3.7573,3.7364,3.705,3.6771,3.6949,3.6767,3.6199,3.5613,3.5136,3.4869,3.4663,3.4353,3.4043,3.3924,3.3894,3.3852,3.381,3.3683,3.3368,3.3326,3.3142,3.2927,3.263,3.2153,3.1459,3.0848,3.0192,2.9236,2.898,2.8776,2.8578,2.8391,2.8139,2.7777,2.7534,2.733,2.7138,2.7085,2.691,2.6839,2.6757,2.6644,2.6603,2.6561,2.6603,2.652,2.6437,2.6313,2.6271,2.6229,2.6146,2.6146,2.6146,2.6157,2.6104,2.5904,2.5543,2.5161,2.4796,2.4266,2.3722,2.2924,2.2338,2.2077,2.2063,2.2035,2.2035,2.1997,2.1959,2.1921,2.1911,2.1883,2.1845,2.1731,2.1627,2.1589,2.1474,2.1474,2.1436,2.1359,2.132,2.1244,2.1205,2.1088,2.0901,2.0675,1.994,1.9213,1.8958,1.8678,1.8374,1.8086,1.8003,1.7993,1.794,1.7974,1.8076,1.811,1.811,1.8178,1.8178,1.81,1.8022,1.7944,1.7803,1.7474,1.7095,1.6783,1.6462,1.6105,1.5708,1.5314,1.5142,1.5037,3.6972,3.6881,3.6345,3.6136,3.6188,3.6549,3.6483,3.6,3.5508,3.5217,3.5208,3.4604,3.4366,3.4382,3.4356,3.4272,3.4118,3.4118,3.3907,3.3768,3.3683,3.3598,3.3471,3.3202,3.2726,3.2106,3.1468,3.0785,2.9998,2.9455,2.917,2.9091,2.8934,2.8697,2.8391,2.8151,2.7909,2.7667,2.7493,2.7319,2.7249,2.7085,2.7015,2.6933,2.6891,2.6891,2.6809,2.6715,2.6633,2.6633,2.6603,2.6561,2.6603,2.6603,2.6603,2.6509,2.6313,2.606,2.5848,2.5467,2.5167,2.4646,2.3935,2.3167,2.2571,2.2427,2.2368,2.2332,2.2252,2.2214,2.2138,2.2101,2.2063,2.1987,2.1883,2.1845,2.1845,2.1845,2.1845,2.1769,2.1655,2.1578,2.1474,2.1397,2.1436,2.128,2.1102,2.0817,2.0098,1.9436,1.9114,1.8714,1.8424,1.8154,1.8115,1.8129,1.8178,1.8279,1.8269,1.8313,1.8414,1.8448,1.8347,1.8303,1.8414,1.8291,1.7931,1.7693,1.7494,1.7191,1.6926,1.6398,1.5967,1.5473,1.526,3.6358,3.6345,3.6175,3.5874,3.5521,3.526,3.5273,3.543,3.492,3.4659,3.4646,3.4476,3.4397,3.4397,3.4397,3.4356,3.4314,3.4285,3.416,3.4076,3.3979,3.3852,3.3725,3.356,3.3199,3.2698,3.2028,3.1334,3.0754,3.0043,2.9585,2.9585,2.9365,2.9104,2.8946,2.8776,2.8431,2.8082,2.7869,2.7788,2.7696,2.7586,2.7464,2.7435,2.7394,2.7383,2.7383,2.7156,2.7074,2.7033,2.6757,2.6644,2.6603,2.6603,2.6603,2.6592,2.652,2.6467,2.6404,2.6262,2.601,2.5621,2.5121,2.4215,2.3444,2.2947,2.2841,2.267,2.2499,2.2402,2.2365,2.2289,2.2252,2.2176,2.2101,2.2101,2.2138,2.2101,2.2101,2.2101,2.1987,2.1911,2.1769,2.1769,2.1807,2.1655,2.1471,2.1303,2.0929,2.0226,1.969,1.9241,1.8914,1.8696,1.8452,1.8441,1.8434,1.8448,1.8472,1.8539,1.8617,1.8617,1.8516,1.8549,1.8684,1.8583,1.8385,1.8201,1.8085,1.8022,1.7783,1.7182,1.659,1.6159,1.5788,3.5783,3.5757,3.5521,3.5234,3.4907,3.4567,3.462,3.4842,3.4541,3.4397,3.4397,3.4397,3.4397,3.4397,3.4397,3.4397,3.4397,3.4356,3.4314,3.4243,3.4202,3.416,3.4021,3.3869,3.3685,3.3183,3.2577,3.1851,3.1328,3.0598,3.0049,2.9998,2.9715,2.9534,2.9417,2.93,2.8973,2.859,2.8271,2.8163,2.8122,2.8002,2.7921,2.7921,2.7921,2.7921,2.7921,2.7574,2.7482,2.7482,2.7179,2.7138,2.7138,2.7138,2.7044,2.7044,2.6869,2.6798,2.6704,2.6592,2.6401,2.6244,2.612,2.5436,2.4561,2.3906,2.3486,2.3091,2.2827,2.2628,2.2553,2.2515,2.244,2.2402,2.2402,2.2392,2.2402,2.2392,2.2392,2.2365,2.2327,2.2289,2.2252,2.2252,2.2176,2.2063,2.1987,2.1928,2.1477,2.0819,2.0357,1.9955,1.9595,1.9309,1.9052,1.8883,1.8866,1.8839,1.8808,1.8841,1.8852,1.8952,1.9019,1.8985,1.8918,1.8852,1.8808,1.8741,1.8649,1.8565,1.8481,1.8054,1.7494,1.6992,1.6672,3.5221,3.5182,3.4633,3.4476,3.441,3.441,3.441,3.4397,3.441,3.4397,3.4397,3.4397,3.4397,3.4397,3.4397,3.4397,3.4397,3.4397,3.4397,3.4397,3.4356,3.4314,3.4285,3.423,3.4027,3.362,3.2959,3.2067,3.1704,3.0984,3.0381,3.0406,3.033,3.0101,2.9844,2.9856,2.9573,2.9287,2.8907,2.8681,2.8471,2.8243,2.8014,2.8082,2.8082,2.807,2.8042,2.8002,2.7973,2.7973,2.7933,2.7881,2.7829,2.776,2.7667,2.7534,2.736,2.7249,2.7097,2.7015,2.6891,2.6764,2.6704,2.6389,2.5756,2.4853,2.4304,2.3842,2.3612,2.3345,2.3252,2.304,2.2889,2.2852,2.2815,2.2815,2.2815,2.2815,2.2804,2.2804,2.2815,2.274,2.2665,2.2665,2.259,2.2478,2.2365,2.2365,2.2081,2.1493,2.109,2.0726,2.0457,2.016,1.9796,1.9599,1.9414,1.9349,1.9274,1.9185,1.9273,1.9395,1.955,1.9417,1.9218,1.9241,1.9241,1.9164,1.9065,1.8977,1.888,1.8787,1.8395,1.7917,1.7473,3.462,3.4607,3.4463,3.4397,3.4397,3.4397,3.4397,3.4397,3.4397,3.4397,3.4397,3.4397,3.4397,3.4397,3.4397,3.4397,3.4397,3.4397,3.4397,3.4397,3.4397,3.4397,3.4397,3.4314,3.4314,3.3949,3.3191,3.2097,3.1396,3.0866,3.0609,3.0609,3.052,3.033,3.0216,3.0228,3.0113,2.9896,2.9611,2.926,2.9013,2.8934,2.8816,2.8788,2.8788,2.8709,2.8709,2.8618,2.8578,2.8578,2.8431,2.8271,2.8151,2.8002,2.7893,2.78,2.7777,2.7708,2.7667,2.7545,2.7516,2.7505,2.7493,2.7342,2.6852,2.5944,2.5267,2.4815,2.443,2.4185,2.3924,2.3616,2.3379,2.3342,2.3272,2.3272,2.3272,2.3261,2.3261,2.3261,2.3261,2.3187,2.3075,2.3038,2.3001,2.2852,2.2703,2.2628,2.259,2.2243,2.1967,2.1655,2.1445,2.1144,2.069,2.0439,2.033,2.0147,2.0035,1.989,1.9712,1.9758,1.9846,1.9681,1.9517,1.9638,1.9638,1.9539,1.944,1.9407,1.9374,1.9341,1.9297,1.8952,1.8431,3.4397,3.4397,3.4397,3.4397,3.4397,3.4397,3.4397,3.4397,3.4397,3.4397,3.4397,3.4397,3.4397,3.4397,3.4397,3.4397,3.4397,3.4397,3.4397,3.4397,3.4397,3.4397,3.4397,3.4397,3.4397,3.411,3.3182,3.2137,3.1156,3.0911,3.0836,3.0798,3.0672,3.0596,3.0558,3.0533,3.0482,3.0355,3.0152,2.9921,2.9548,2.9392,2.9131,2.9104,2.9143,2.9143,2.9052,2.8961,2.8961,2.8934,2.8816,2.8736,2.8618,2.855,2.8459,2.8419,2.8379,2.8311,2.8259,2.8191,2.8163,2.8111,2.803,2.7799,2.762,2.6777,2.6388,2.5926,2.5308,2.5024,2.4877,2.4623,2.437,2.4242,2.3957,2.3751,2.3677,2.3593,2.3556,2.3446,2.3446,2.3446,2.3372,2.3372,2.3335,2.3298,2.315,2.3113,2.3075,2.2964,2.2731,2.2563,2.236,2.1972,2.1485,2.1364,2.1377,2.1142,2.0863,2.0564,2.0347,2.0205,2.0107,2.0074,2.0074,2.014,2.0107,2.0031,1.9966,1.9966,1.9933,1.9911,1.99,1.9824,1.9392,3.4397,3.4397,3.4397,3.4397,3.4397,3.4397,3.4397,3.4397,3.4397,3.4397,3.4397,3.4397,3.4397,3.4397,3.4397,3.4397,3.4397,3.4397,3.4397,3.4397,3.4397,3.4397,3.4397,3.4397,3.4228,3.3822,3.3051,3.2045,3.1026,3.0949,3.0949,3.0986,3.0949,3.0911,3.0761,3.0723,3.0685,3.0545,3.0444,3.0406,3.0088,2.9703,2.9482,2.9326,2.93,2.9248,2.9248,2.9287,2.9287,2.9287,2.9287,2.9221,2.9131,2.9052,2.8973,2.8922,2.8803,2.8764,2.8764,2.8657,2.8538,2.8419,2.8339,2.8259,2.807,2.7844,2.7449,2.7025,2.6422,2.5954,2.5816,2.5546,2.5327,2.507,2.4699,2.4294,2.4162,2.4066,2.3945,2.3787,2.3776,2.3776,2.3776,2.3776,2.374,2.3751,2.3714,2.3714,2.3703,2.3593,2.343,2.3349,2.3256,2.2816,2.2342,2.2269,2.2339,2.2114,2.1818,2.1364,2.0949,2.076,2.0659,2.069,2.069,2.0658,2.0658,2.0614,2.0582,2.0496,2.0421,2.0356,2.0291,2.0248,2.0183,3.4397,3.4397,3.4397,3.4397,3.4397,3.4397,3.4397,3.4397,3.4397,3.4397,3.4439,3.4397,3.4397,3.4397,3.4397,3.4439,3.4522,3.4481,3.4397,3.4397,3.4481,3.4439,3.4439,3.4496,3.385,3.3353,3.2896,3.211,3.1399,3.1127,3.1024,3.1061,3.1024,3.0986,3.0949,3.0911,3.0911,3.0785,3.0672,3.0647,3.0571,3.033,3.0241,3.0177,3.0177,3.0177,3.0126,3.0139,3.0177,3.0101,2.9947,2.9805,2.965,2.9521,2.9392,2.9353,2.9236,2.9197,2.917,2.9131,2.904,2.8973,2.8934,2.8895,2.8816,2.8803,2.8476,2.8337,2.7759,2.7093,2.6815,2.6423,2.6115,2.5965,2.5646,2.52,2.4869,2.4763,2.4644,2.4561,2.4526,2.4526,2.449,2.4478,2.4478,2.4406,2.4298,2.4298,2.4189,2.4152,2.408,2.4043,2.4007,2.3813,2.3411,2.3274,2.3273,2.3042,2.274,2.2207,2.1727,2.128,2.1197,2.114,2.1106,2.1074,2.1106,2.1106,2.1074,2.0967,2.0871,2.0775,2.0743,2.0711,2.0679]}]]